[[{"header":{"parameterUnit":"m.s-1","parameterCategory":1,"la1":30.6,"la2":29.2853,"lo1":-89.7004,"lo2":-87.6739,"dy":0.0162,"dx":0.0183,"nx":112,"ny":82,"refTime":"2024-04-26T00:00:00:Z","depth":0,"parameterNumber":2,"parameterNumberName":"U-component_of_WINDS"},"data":[0.0,0.0,0.0,0.0,0.0,0.0,0.0,0.0,0.0,0.0,0.0,0.0,0.0,0.0,0.0,0.0,0.0,0.0,0.0,0.0,0.0,0.0,0.0,0.0,0.0,0.0,0.0,0.0,0.0,0.0,0.0,0.0,0.0,0.0,0.0,0.0,0.0,0.0,0.0,0.0,0.0,0.0,0.0,0.0,0.0,0.0,0.0,0.0,0.0,0.0,0.0,0.0,0.0,0.0,0.0,0.0,0.0,0.0,0.0,0.0,0.0,0.0,0.0,0.0,0.0,0.0,0.0,0.0,0.0,0.0,0.0,0.0,0.0,0.0,0.0,0.0,0.0,0.0,0.0,0.0,0.0,0.0,0.0,0.0,0.0,0.0,0.0,0.0,0.0,0.0,-3.6305,-3.8214,-3.9364,-4.0148,-4.0514,-3.895,-3.7137,-3.5132,0.0,0.0,0.0,0.0,0.0,0.0,0.0,0.0,0.0,0.0,0.0,0.0,0.0,0.0,0.0,0.0,0.0,0.0,0.0,0.0,0.0,0.0,0.0,0.0,0.0,0.0,0.0,0.0,0.0,0.0,0.0,0.0,0.0,0.0,0.0,0.0,0.0,0.0,0.0,0.0,0.0,0.0,0.0,0.0,0.0,0.0,0.0,0.0,0.0,0.0,0.0,0.0,0.0,0.0,0.0,0.0,0.0,0.0,0.0,0.0,0.0,0.0,0.0,0.0,0.0,0.0,0.0,0.0,0.0,0.0,0.0,0.0,0.0,0.0,0.0,0.0,0.0,0.0,0.0,0.0,0.0,0.0,0.0,0.0,0.0,0.0,0.0,0.0,0.0,0.0,0.0,0.0,0.0,0.0,0.0,0.0,0.0,0.0,0.0,0.0,0.0,0.0,0.0,0.0,-3.7795,-4.0514,-4.1376,-4.1611,-4.1219,-3.9407,-3.7479,-3.555,0.0,0.0,0.0,0.0,0.0,0.0,0.0,0.0,0.0,0.0,0.0,0.0,0.0,0.0,0.0,0.0,0.0,0.0,0.0,0.0,0.0,0.0,0.0,0.0,0.0,0.0,0.0,0.0,0.0,0.0,0.0,0.0,0.0,0.0,0.0,0.0,0.0,0.0,0.0,0.0,0.0,0.0,0.0,0.0,0.0,0.0,0.0,0.0,0.0,0.0,0.0,0.0,0.0,0.0,0.0,0.0,0.0,0.0,0.0,0.0,0.0,0.0,0.0,0.0,0.0,0.0,0.0,0.0,0.0,0.0,0.0,0.0,0.0,0.0,0.0,0.0,0.0,0.0,0.0,0.0,0.0,0.0,0.0,0.0,0.0,0.0,0.0,0.0,0.0,0.0,0.0,0.0,0.0,0.0,0.0,0.0,0.0,0.0,0.0,0.0,0.0,0.0,0.0,-3.7586,-3.9599,-4.1559,-4.2004,-4.1951,-4.135,-3.9774,-3.7898,-3.5634,-3.3794,0.0,0.0,0.0,0.0,0.0,0.0,0.0,0.0,0.0,0.0,0.0,0.0,0.0,0.0,0.0,0.0,0.0,0.0,0.0,0.0,0.0,0.0,0.0,0.0,0.0,0.0,0.0,0.0,0.0,0.0,0.0,0.0,0.0,0.0,0.0,0.0,0.0,0.0,0.0,0.0,0.0,0.0,0.0,0.0,0.0,0.0,0.0,0.0,0.0,0.0,0.0,0.0,0.0,0.0,0.0,0.0,0.0,0.0,0.0,0.0,0.0,0.0,0.0,0.0,0.0,0.0,0.0,0.0,0.0,0.0,0.0,0.0,0.0,0.0,0.0,0.0,0.0,0.0,0.0,0.0,0.0,0.0,0.0,0.0,0.0,0.0,0.0,0.0,0.0,0.0,0.0,0.0,0.0,0.0,0.0,0.0,0.0,0.0,0.0,0.0,0.0,0.0,-3.9207,-4.1063,-4.2239,-4.2369,-4.2134,-4.1458,-3.9988,-3.8093,-3.5776,-3.4183,0.0,0.0,0.0,0.0,0.0,0.0,0.0,0.0,0.0,0.0,0.0,0.0,0.0,0.0,0.0,0.0,0.0,0.0,0.0,0.0,0.0,0.0,0.0,0.0,0.0,0.0,0.0,0.0,0.0,0.0,0.0,0.0,0.0,0.0,0.0,0.0,0.0,0.0,0.0,0.0,0.0,0.0,0.0,0.0,0.0,0.0,0.0,0.0,0.0,0.0,0.0,0.0,0.0,0.0,0.0,0.0,0.0,0.0,0.0,0.0,0.0,0.0,0.0,0.0,0.0,0.0,0.0,0.0,0.0,0.0,0.0,0.0,0.0,0.0,0.0,0.0,0.0,0.0,0.0,0.0,0.0,0.0,0.0,0.0,0.0,0.0,0.0,0.0,0.0,0.0,0.0,0.0,0.0,0.0,0.0,0.0,0.0,0.0,0.0,0.0,0.0,0.0,-3.9834,-4.169,-4.284,-4.2971,-4.2632,-4.1802,-3.9947,-3.8009,-3.6111,-3.4193,0.0,0.0,0.0,0.0,0.0,0.0,0.0,0.0,0.0,0.0,0.0,0.0,0.0,0.0,0.0,0.0,0.0,0.0,0.0,0.0,0.0,0.0,0.0,0.0,0.0,0.0,0.0,0.0,0.0,0.0,0.0,0.0,0.0,0.0,0.0,0.0,0.0,0.0,0.0,0.0,0.0,0.0,0.0,0.0,0.0,0.0,0.0,0.0,0.0,0.0,0.0,0.0,0.0,0.0,0.0,0.0,0.0,0.0,0.0,0.0,0.0,0.0,0.0,0.0,0.0,0.0,0.0,0.0,0.0,0.0,0.0,0.0,0.0,0.0,0.0,0.0,0.0,0.0,0.0,0.0,0.0,0.0,0.0,0.0,0.0,0.0,0.0,0.0,0.0,0.0,0.0,0.0,0.0,0.0,0.0,0.0,0.0,0.0,0.0,0.0,0.0,0.0,-3.9782,-4.1193,-4.2369,-4.25,-4.2006,-4.0817,-3.9561,-3.7833,-3.5587,0.0,0.0,0.0,0.0,0.0,0.0,0.0,0.0,0.0,0.0,0.0,0.0,0.0,0.0,0.0,0.0,0.0,0.0,0.0,0.0,0.0,0.0,0.0,0.0,0.0,0.0,0.0,0.0,0.0,0.0,0.0,0.0,0.0,0.0,0.0,0.0,0.0,0.0,0.0,0.0,0.0,0.0,0.0,0.0,0.0,0.0,0.0,0.0,0.0,0.0,0.0,0.0,0.0,0.0,0.0,0.0,0.0,0.0,0.0,0.0,0.0,0.0,0.0,0.0,0.0,0.0,0.0,0.0,0.0,0.0,0.0,0.0,0.0,0.0,0.0,0.0,0.0,0.0,0.0,0.0,0.0,0.0,0.0,0.0,0.0,0.0,0.0,0.0,0.0,0.0,0.0,0.0,0.0,0.0,0.0,0.0,0.0,0.0,0.0,0.0,0.0,0.0,-3.8475,-3.9703,-4.0853,0.0,-4.2211,-4.1589,-4.0096,-3.9254,-3.7683,-3.5147,0.0,0.0,0.0,0.0,0.0,0.0,0.0,0.0,0.0,0.0,0.0,0.0,0.0,0.0,0.0,0.0,0.0,0.0,0.0,0.0,0.0,0.0,0.0,0.0,0.0,0.0,0.0,0.0,0.0,0.0,0.0,0.0,0.0,0.0,0.0,0.0,0.0,0.0,0.0,0.0,0.0,0.0,0.0,0.0,0.0,0.0,0.0,0.0,0.0,0.0,0.0,0.0,0.0,0.0,0.0,0.0,0.0,0.0,0.0,0.0,0.0,0.0,0.0,0.0,0.0,0.0,0.0,0.0,0.0,0.0,0.0,0.0,0.0,0.0,0.0,0.0,0.0,0.0,0.0,0.0,0.0,0.0,0.0,0.0,0.0,0.0,0.0,0.0,0.0,0.0,0.0,0.0,0.0,0.0,0.0,0.0,0.0,0.0,0.0,0.0,0.0,0.0,-3.8501,-3.9703,-4.0853,-4.2081,-4.2211,-4.1487,-3.9848,-3.9133,-3.7636,0.0,0.0,0.0,0.0,0.0,0.0,0.0,0.0,0.0,0.0,0.0,0.0,0.0,0.0,0.0,0.0,0.0,0.0,0.0,0.0,0.0,0.0,0.0,0.0,0.0,0.0,0.0,0.0,0.0,0.0,0.0,0.0,0.0,0.0,0.0,0.0,0.0,0.0,0.0,0.0,0.0,0.0,0.0,0.0,0.0,0.0,0.0,0.0,0.0,0.0,0.0,0.0,0.0,0.0,0.0,0.0,0.0,0.0,0.0,0.0,0.0,0.0,0.0,0.0,0.0,0.0,0.0,0.0,0.0,0.0,0.0,0.0,0.0,0.0,0.0,0.0,0.0,0.0,0.0,0.0,0.0,0.0,0.0,0.0,0.0,0.0,0.0,0.0,0.0,0.0,0.0,0.0,0.0,0.0,0.0,0.0,0.0,0.0,0.0,0.0,0.0,0.0,0.0,-3.9128,-3.9651,-4.0278,-4.1455,-4.1559,-4.1071,-3.9822,-3.9133,-3.7814,-3.5403,0.0,0.0,0.0,0.0,0.0,0.0,0.0,0.0,0.0,0.0,0.0,0.0,0.0,0.0,0.0,0.0,0.0,0.0,0.0,0.0,0.0,0.0,0.0,0.0,0.0,0.0,0.0,0.0,0.0,0.0,0.0,0.0,0.0,0.0,0.0,0.0,0.0,0.0,0.0,0.0,0.0,0.0,0.0,0.0,0.0,0.0,0.0,0.0,0.0,0.0,0.0,0.0,0.0,0.0,0.0,0.0,0.0,0.0,0.0,0.0,0.0,0.0,0.0,0.0,0.0,0.0,0.0,0.0,0.0,0.0,0.0,0.0,0.0,0.0,0.0,0.0,0.0,0.0,0.0,0.0,0.0,0.0,0.0,0.0,0.0,0.0,0.0,0.0,0.0,0.0,0.0,0.0,0.0,0.0,0.0,0.0,0.0,0.0,0.0,0.0,0.0,0.0,-3.9416,-3.9808,-4.0278,-4.1219,-4.1198,-4.0713,-3.9772,-3.9035,-3.7823,-3.5956,0.0,0.0,0.0,0.0,0.0,0.0,0.0,0.0,0.0,0.0,0.0,0.0,0.0,0.0,0.0,0.0,0.0,0.0,0.0,0.0,0.0,0.0,0.0,0.0,0.0,0.0,0.0,0.0,0.0,0.0,0.0,0.0,0.0,0.0,0.0,0.0,0.0,0.0,0.0,0.0,0.0,0.0,0.0,0.0,0.0,0.0,0.0,0.0,0.0,0.0,0.0,0.0,0.0,0.0,0.0,0.0,0.0,0.0,0.0,0.0,0.0,0.0,0.0,0.0,0.0,0.0,0.0,0.0,0.0,0.0,0.0,0.0,0.0,0.0,0.0,0.0,0.0,0.0,0.0,0.0,0.0,0.0,0.0,0.0,0.0,0.0,0.0,0.0,0.0,0.0,0.0,0.0,0.0,0.0,0.0,0.0,0.0,0.0,0.0,0.0,0.0,0.0,-3.9468,-4.0095,-4.0621,-4.1274,-4.1073,-4.0614,-3.985,-3.9014,-3.7931,-3.6556,0.0,0.0,0.0,0.0,0.0,0.0,0.0,0.0,0.0,0.0,0.0,0.0,0.0,0.0,0.0,0.0,0.0,0.0,0.0,0.0,0.0,0.0,0.0,0.0,0.0,0.0,0.0,0.0,0.0,0.0,0.0,0.0,0.0,0.0,0.0,0.0,0.0,0.0,0.0,0.0,0.0,0.0,0.0,0.0,0.0,0.0,0.0,0.0,0.0,0.0,0.0,0.0,0.0,0.0,0.0,0.0,0.0,0.0,0.0,0.0,-5.0524,0.0,0.0,0.0,0.0,0.0,0.0,0.0,0.0,0.0,0.0,0.0,0.0,0.0,0.0,0.0,0.0,0.0,0.0,0.0,0.0,0.0,0.0,0.0,0.0,0.0,0.0,0.0,0.0,0.0,0.0,0.0,0.0,0.0,0.0,0.0,0.0,0.0,0.0,0.0,0.0,0.0,-3.952,-4.0095,-4.0702,-4.1542,-4.1206,-4.0823,-4.0695,-3.9702,-3.8513,-3.7134,-3.643,0.0,0.0,0.0,0.0,0.0,0.0,0.0,0.0,0.0,0.0,0.0,0.0,0.0,0.0,0.0,0.0,0.0,0.0,0.0,0.0,0.0,0.0,0.0,0.0,0.0,0.0,0.0,0.0,0.0,0.0,0.0,0.0,0.0,0.0,0.0,0.0,0.0,0.0,0.0,0.0,0.0,0.0,0.0,0.0,0.0,0.0,0.0,0.0,0.0,0.0,0.0,0.0,0.0,0.0,0.0,0.0,0.0,0.0,0.0,0.0,-5.1884,0.0,0.0,0.0,0.0,0.0,0.0,0.0,0.0,0.0,0.0,0.0,0.0,0.0,0.0,0.0,0.0,0.0,0.0,0.0,0.0,0.0,0.0,0.0,0.0,0.0,0.0,0.0,0.0,0.0,0.0,0.0,0.0,0.0,0.0,0.0,0.0,0.0,0.0,0.0,0.0,-3.9913,-4.0575,-4.1229,-4.1672,-4.1466,-4.1182,-4.0895,-4.0056,-3.8944,-3.7663,-3.6857,0.0,0.0,0.0,0.0,0.0,0.0,0.0,0.0,0.0,0.0,0.0,0.0,0.0,0.0,0.0,0.0,0.0,0.0,0.0,0.0,0.0,0.0,0.0,0.0,0.0,0.0,0.0,0.0,0.0,0.0,0.0,0.0,0.0,0.0,0.0,0.0,0.0,0.0,0.0,0.0,0.0,0.0,0.0,0.0,0.0,0.0,0.0,0.0,0.0,0.0,0.0,0.0,0.0,-6.2705,-6.3515,-6.4195,-6.4665,-6.4822,-6.4456,-5.9699,-5.6798,-5.5255,-5.3426,0.0,0.0,0.0,0.0,0.0,0.0,0.0,0.0,0.0,0.0,0.0,0.0,0.0,0.0,0.0,0.0,0.0,0.0,0.0,0.0,0.0,0.0,0.0,0.0,-4.5767,-4.4905,0.0,0.0,0.0,0.0,0.0,0.0,0.0,0.0,0.0,0.0,0.0,0.0,-4.0514,-4.1255,-4.175,-4.1905,-4.1794,-4.1501,-4.0993,-4.0305,-3.932,-3.809,-3.7161,-3.6107,0.0,0.0,0.0,0.0,0.0,0.0,0.0,0.0,0.0,0.0,0.0,0.0,0.0,0.0,0.0,0.0,0.0,0.0,0.0,0.0,0.0,0.0,0.0,0.0,0.0,0.0,0.0,0.0,0.0,0.0,0.0,0.0,-5.3269,-5.2877,0.0,0.0,0.0,0.0,0.0,0.0,0.0,0.0,0.0,0.0,0.0,0.0,0.0,-6.1764,-6.3489,-6.4665,-6.6076,-6.7641,-6.7854,-6.8507,-6.9579,-6.9657,-6.9396,-6.8873,-6.8115,0.0,-6.0039,-5.7791,0.0,0.0,0.0,0.0,0.0,0.0,0.0,0.0,0.0,0.0,0.0,0.0,0.0,0.0,0.0,0.0,0.0,0.0,0.0,0.0,0.0,0.0,-5.0106,-5.0577,-4.9923,-4.8826,0.0,-4.48,-4.2369,-4.1298,-4.0592,0.0,0.0,0.0,0.0,0.0,0.0,0.0,-4.1115,-4.1489,-4.2009,-4.2749,-4.2146,-4.1547,-4.1282,-4.0727,-3.9722,-3.8115,-3.7864,-3.7086,-3.5458,-3.4856,0.0,0.0,0.0,0.0,0.0,0.0,0.0,0.0,0.0,0.0,0.0,0.0,0.0,0.0,0.0,0.0,0.0,0.0,0.0,0.0,0.0,0.0,0.0,0.0,0.0,0.0,0.0,0.0,0.0,-5.3609,-5.5203,-5.5308,-5.5517,-5.5334,0.0,0.0,0.0,0.0,0.0,0.0,0.0,0.0,0.0,-6.362,-6.477,-6.6495,-6.8873,-6.971,-7.0834,-7.2271,-7.2898,-7.3474,-7.397,-7.397,-7.3839,-7.3552,-7.2898,-7.0807,-6.7514,-6.2914,-6.0039,-5.8261,0.0,0.0,0.0,0.0,-5.4445,-5.4393,-5.5857,-5.6008,0.0,-5.5096,0.0,0.0,0.0,0.0,0.0,0.0,0.0,0.0,0.0,0.0,-5.2772,-5.3008,-5.2668,-5.2093,-5.1282,-4.9139,-4.6473,0.0,-4.2265,-4.1716,-4.1141,0.0,0.0,0.0,0.0,-4.1246,-4.216,-4.2345,-4.2571,-4.2977,-4.2645,-4.2116,-4.1326,-4.1075,-4.0275,-3.8592,-3.8191,-3.7412,-3.6034,-3.5433,-3.4776,0.0,0.0,0.0,0.0,0.0,0.0,0.0,0.0,0.0,0.0,0.0,0.0,0.0,0.0,0.0,0.0,0.0,0.0,0.0,0.0,0.0,0.0,0.0,0.0,0.0,0.0,0.0,0.0,-5.5674,-5.7346,-5.8235,-5.8209,-5.8,0.0,0.0,0.0,0.0,0.0,0.0,-6.2783,-6.4116,-6.5998,-6.856,-6.9657,-7.1356,-7.3813,-7.4519,-7.5486,-7.6688,-7.7525,-7.7943,-7.7943,-7.7943,-7.776,-7.742,-7.6427,-7.5251,-7.3552,-6.7645,-6.4195,-6.2417,-6.0117,-5.8862,-5.8392,-5.8836,-5.8706,-5.8549,-5.9986,-6.0018,-5.9377,-5.8932,0.0,-5.6217,-5.4594,0.0,0.0,0.0,0.0,-5.3296,-5.4628,-5.5162,-5.5434,-5.5565,-5.5382,-5.4965,-5.4287,-5.2943,-5.0524,0.0,-4.4382,-4.3624,-4.2762,0.0,0.0,0.0,0.0,-4.2108,-4.3101,-4.3067,-4.3079,-4.3233,-4.3068,-4.2585,-4.163,-4.1376,-4.0701,-3.917,-3.8417,-3.7588,-3.6659,-3.5884,-3.5107,-3.4324,0.0,0.0,0.0,0.0,0.0,0.0,0.0,0.0,0.0,0.0,0.0,0.0,0.0,0.0,0.0,0.0,0.0,0.0,0.0,0.0,0.0,0.0,0.0,0.0,0.0,0.0,0.0,0.0,0.0,-6.2313,-6.2051,0.0,0.0,0.0,0.0,-6.2443,-6.3567,-6.524,-6.7514,-6.9265,-7.099,-7.2742,-7.499,-7.6767,-7.7995,-7.9119,-8.0269,-8.1419,-8.1498,-8.1524,-8.1524,-8.1524,-8.0897,-7.9825,-7.9224,-7.7995,-7.6061,-7.133,-6.8377,-6.6547,-6.4273,-6.3018,-6.2522,-6.2548,-6.2548,-6.26,-6.3254,-6.2841,-6.1888,-6.142,-5.9466,-5.7246,-5.6888,-5.6103,0.0,0.0,-5.6718,-5.7118,-5.8687,-5.8811,-5.8678,-5.9196,-5.8497,-5.741,-5.6297,-5.5429,-5.3504,0.0,-4.7074,-4.5767,-4.4068,0.0,-4.3546,-4.3049,-4.2944,-4.3154,-4.3755,-4.3379,-4.3233,-4.3797,-4.3351,-4.2735,-4.2213,-4.163,-4.0852,-3.9722,-3.8617,-3.7739,-3.7161,-3.606,-3.5483,-3.5408,-3.4906,0.0,0.0,0.0,0.0,0.0,0.0,0.0,0.0,0.0,0.0,0.0,0.0,0.0,0.0,0.0,0.0,0.0,0.0,0.0,0.0,0.0,0.0,0.0,0.0,0.0,0.0,0.0,0.0,-6.5841,-6.5972,0.0,-6.6652,-6.6338,-6.6573,-6.7749,-6.9213,-7.1069,-7.3421,-7.4833,-7.6349,-7.8048,-7.9302,-8.0478,-8.1629,-8.2047,-8.2648,-8.3432,-8.3432,-8.3432,-8.3406,-8.2674,-8.2099,-8.1655,-8.0688,-7.9511,-7.81,-7.6087,-7.3343,-7.0259,-6.8324,-6.7436,-6.72,-6.6834,-6.6704,-6.673,-6.6939,-6.6545,-6.5548,-6.3361,-6.107,-5.9131,-5.857,-5.7935,-5.7601,-5.8461,-5.8538,-5.847,-5.9295,-5.9536,-5.9576,-5.9756,-5.9499,-5.9113,-5.8701,-5.7371,-5.5735,-5.3711,-5.1408,-4.9348,-4.7963,-4.6839,-4.6159,-4.6316,-4.5401,-4.472,-4.4739,-4.4381,-4.3972,-4.3598,-4.3265,-4.276,-4.2263,-4.1656,-4.0974,-4.0275,-3.9195,-3.8316,-3.7739,-3.6985,-3.6257,-3.5508,-3.5307,-3.5031,0.0,0.0,0.0,0.0,0.0,0.0,0.0,0.0,0.0,0.0,0.0,0.0,0.0,0.0,0.0,0.0,0.0,0.0,0.0,0.0,0.0,0.0,0.0,0.0,0.0,-6.3515,-6.6704,-6.9422,-7.0076,-7.0624,-7.1382,-7.1278,-7.1644,-7.282,-7.431,-7.6009,-7.7943,-7.9328,-8.0661,-8.1994,-8.2988,-8.3772,-8.4347,-8.4556,-8.4739,-8.4922,-8.4922,-8.4817,-8.4608,-8.385,-8.338,-8.3145,-8.1968,-8.1053,-8.0243,-7.9093,-7.7028,-7.4388,-7.2062,-7.1017,-7.0781,-7.0206,-6.9997,-6.9945,-6.9579,-6.9056,-6.8137,-6.5434,-6.3589,-6.2092,-6.1095,-6.038,-5.9998,-6.0401,-6.0146,-5.9766,-6.0217,-6.012,-5.9946,-5.9946,-5.9946,-5.9895,-5.9716,-5.8786,-5.7667,-5.6784,-5.4244,-5.1831,-5.0655,-4.9374,-4.8564,-4.8721,-4.7351,-4.6247,-4.6078,-4.5346,-4.4597,-4.4071,-4.3683,-4.3313,-4.2816,-4.2208,-4.158,-4.0852,-3.9747,-3.8894,-3.8316,-3.7764,-3.7111,-3.6335,-3.6335,-3.606,-3.5554,0.0,0.0,0.0,0.0,0.0,0.0,0.0,0.0,0.0,0.0,0.0,0.0,0.0,0.0,0.0,0.0,0.0,0.0,0.0,0.0,0.0,0.0,0.0,-6.3045,-6.6965,-7.0729,-7.317,-7.4414,-7.5565,-7.6688,-7.6296,-7.6427,-7.7603,-7.8727,-7.9851,-8.1001,-8.2674,-8.385,-8.4425,-8.6046,-8.6673,-8.615,-8.6647,-8.6621,-8.6124,-8.6098,-8.5784,-8.5209,-8.5209,-8.4896,-8.4295,-8.3145,-8.2648,-8.2465,-8.0165,-7.9198,-7.8832,-7.5408,-7.3735,-7.316,-7.2585,-7.2376,-7.2193,-7.1069,-7.0285,-6.9501,-6.7749,-6.693,-6.621,-6.4502,-6.343,-6.2745,-6.2554,-6.1757,-6.1168,-6.1531,-6.0865,-6.0125,-6.0125,-6.0125,-5.9972,-5.944,-5.9615,-5.9404,-5.764,-5.5287,-5.3164,-5.1936,-5.1256,-5.0681,-5.008,-4.8711,0.0,-4.7781,-4.6301,-4.5208,-4.5182,-4.4868,-4.4468,-4.3915,-4.3363,-4.2585,-4.1451,-4.04,-3.9546,-3.902,-3.8417,-3.8115,-3.8115,-3.8115,-3.7839,-3.7312,0.0,0.0,0.0,0.0,0.0,0.0,0.0,0.0,0.0,0.0,0.0,0.0,0.0,0.0,0.0,0.0,0.0,0.0,0.0,0.0,0.0,-6.4665,-6.7331,-6.7749,-7.1043,-7.4597,-7.776,-7.9172,-8.0165,-8.0897,-8.121,-8.1655,-8.2387,-8.3118,-8.4033,-8.5183,-8.568,-8.6229,-8.683,-8.73,-8.7483,-8.7327,-8.7039,-8.683,-8.6673,-8.6281,-8.5994,-8.5837,-8.5392,-8.5105,-8.4896,-8.3746,-8.3014,-8.2517,-8.1027,-7.993,-7.8962,-7.6741,-7.58,-7.5538,-7.4545,-7.3918,-7.3421,-7.2663,-7.2062,-7.127,-6.9683,-6.8527,-6.753,-6.6295,-6.5226,-6.4295,-6.4211,-6.3098,-6.2017,-6.1994,-6.1326,-6.0508,-6.0508,-6.0355,-6.0074,-5.9922,-5.9642,-5.9184,-5.832,-5.7318,-5.6107,-5.4257,-5.3332,-5.2634,-5.1782,-5.0624,0.0,-4.8942,-4.8426,-4.7673,-4.6648,-4.6451,-4.6225,-4.5673,-4.4744,-4.4041,-4.3683,-4.2685,-4.1656,-4.0701,-4.0877,-4.0827,-4.0373,-4.0373,-4.0297,0.0,0.0,0.0,0.0,0.0,0.0,0.0,0.0,0.0,0.0,0.0,0.0,0.0,0.0,0.0,0.0,0.0,0.0,0.0,0.0,0.0,0.0,-6.8743,-7.2062,-7.4101,-7.5904,-7.8126,-8.1132,-8.2491,-8.3615,-8.4687,-8.5105,-8.5523,-8.6072,-8.6438,-8.6804,-8.7248,-8.7483,-8.7771,-8.8111,-8.8372,-8.8398,-8.8137,-8.7562,-8.7144,-8.6882,-8.6359,-8.6098,-8.6072,-8.5732,-8.5575,-8.5523,-8.4608,-8.3876,-8.3249,-8.2099,-8.0923,0.0,0.0,0.0,0.0,0.0,-7.4885,-7.4284,-7.3683,-7.3108,-7.2366,-7.1018,-6.9943,-6.9001,-6.7918,-6.6718,-6.5522,-6.5198,-6.3797,-6.2404,-6.2329,-6.148,-6.0737,-6.0737,-6.0508,-6.0278,-6.0125,-5.9871,-5.9338,-5.8403,-5.8165,0.0,-5.542,-5.468,-5.417,-5.3407,-5.2072,-5.0907,-5.0422,-4.9773,-4.9052,-4.8234,-4.7958,-4.7581,-4.7029,-4.6175,0.0,0.0,0.0,-4.3162,-4.2082,-4.2333,0.0,0.0,0.0,-4.2032,-4.2032,0.0,0.0,0.0,-3.9245,-3.9094,0.0,0.0,0.0,0.0,0.0,0.0,0.0,0.0,0.0,0.0,0.0,0.0,0.0,0.0,0.0,0.0,-7.2951,-7.6924,-8.0897,-8.1132,-8.1655,-8.372,-8.4974,-8.6307,-8.7928,-8.8137,-8.8372,-8.8869,-8.8895,-8.8686,-8.8215,-8.8633,0.0,0.0,0.0,-8.9339,-8.8816,-8.8189,-8.7588,-8.6987,-8.6438,-8.615,-8.6098,-8.6098,-8.6098,-8.6046,-8.5392,-8.4791,-8.4242,-8.2962,-8.1655,-8.0295,-7.8257,-7.7081,-7.6453,-7.5904,-7.5382,-7.4807,-7.4205,0.0,0.0,-7.1775,-7.1043,-7.0389,-6.9291,-6.7841,-6.6447,-6.5929,-6.4185,-6.2559,-6.2559,-6.1737,-6.0813,-6.0813,-6.0813,-6.066,-6.0278,-6.0125,-5.9642,-5.8177,-5.8176,-5.7795,-5.5839,-5.5408,-5.5194,-5.4773,-5.3106,-5.1889,-5.1889,-5.0766,-4.9941,-4.9891,0.0,0.0,-4.8234,-4.7707,-4.6753,-4.5196,-4.492,-4.4392,-4.3489,-4.3338,-4.3288,-4.3363,-4.3363,-4.3363,-4.3363,-4.3363,-4.3614,-4.4041,-4.2329,-4.1601,0.0,0.0,0.0,0.0,0.0,0.0,0.0,0.0,0.0,0.0,0.0,0.0,0.0,0.0,0.0,-7.3735,-7.7368,-8.0975,-8.4582,-8.5784,-8.6464,-8.6908,-8.798,-8.8999,-8.981,-9.0306,-9.0594,-9.0672,-9.0672,-9.0672,-9.0568,-9.0646,-9.0672,-9.0672,-9.0385,-9.0149,-9.0045,-8.8973,-8.8163,-8.7614,0.0,0.0,-8.6098,-8.6098,-8.6098,-8.602,-8.4974,-8.4451,-8.4164,-8.2073,-7.9982,-7.8074,-7.7629,-7.6819,-7.5878,-7.5748,-7.5382,-7.4807,-7.4205,-7.3604,-7.2925,-7.1775,-7.1043,-7.0468,-6.9736,-6.832,0.0,-6.6884,-6.5212,-6.344,-6.344,-6.2581,-6.1747,-6.1747,-6.1495,-6.1117,-6.066,-6.0355,-5.9642,-5.8177,-5.8176,-5.7921,-5.6342,-5.5543,-5.4842,-5.4062,-5.3218,-5.2671,-5.2671,-5.2427,-5.2126,-5.1674,-5.1523,-5.1046,-5.0017,-4.9439,-4.8786,-4.8008,-4.6728,-4.61,-4.6326,-4.5472,-4.5221,-4.5648,-4.5673,-4.5673,-4.5673,-4.5673,-4.5723,-4.5773,-4.4116,-4.3564,0.0,0.0,0.0,0.0,0.0,0.0,0.0,0.0,0.0,0.0,0.0,-6.5606,-6.7592,0.0,-7.4388,-7.8126,-8.1419,-8.4504,-8.7379,-8.8555,-8.9104,-8.9104,-8.9601,-9.0306,-9.1195,-9.1482,-9.1665,-9.1665,-9.1665,-9.1561,-9.1221,-9.1195,-9.1195,-9.1195,-9.0672,-9.0411,-9.0411,-8.9208,-8.832,-8.7797,-8.717,-8.6621,-8.6098,-8.6098,-8.6098,-8.6046,-8.5157,-8.4608,-8.4164,-8.1838,-7.9694,-7.7865,-7.7577,-7.6741,-7.5721,-7.5721,-7.5382,-7.4807,-7.4205,-7.3421,-7.2559,-7.1696,-7.0834,-7.0076,-6.9788,-6.8481,-6.7096,-6.7096,-6.5449,-6.3672,-6.3672,-6.2835,-6.1973,-6.1973,-6.1823,-6.1521,-6.0813,-6.0508,-5.9947,-5.8529,-5.8228,-5.7824,-5.6771,-5.5836,-5.4976,-5.428,-5.3658,-5.3231,-5.2955,-5.2929,-5.2829,-5.2553,-5.2277,-5.1875,-5.1322,-5.0243,-4.9364,-4.8812,-4.7732,-4.7129,-4.7068,-4.6602,-4.6301,-4.6301,-4.6301,-4.6301,-4.6301,-4.6301,-4.6301,-4.6301,-4.5447,-4.5196,0.0,0.0,0.0,0.0,0.0,0.0,0.0,-6.3018,-6.4325,-6.5475,-6.7645,-7.0023,-7.2323,-7.5512,-7.891,-8.2387,-8.5183,-8.7719,-9.0019,-9.0672,-9.0855,-9.0855,-9.0777,-9.1117,-9.2188,-9.2267,-9.2267,-9.2267,-9.2267,-9.2031,-9.1561,-9.1561,-9.1561,-9.1561,-9.0934,-9.0568,-9.0568,-8.9261,-8.832,-8.7797,-8.717,-8.6621,-8.6098,-8.6098,-8.602,-8.5863,-8.5053,-8.4295,-8.351,-8.1524,-7.9694,-7.81,-7.7656,-7.6741,-7.5695,-7.5591,-7.5199,-7.465,-7.4049,-7.3081,-7.2036,-7.1435,-7.0546,-6.9657,-6.9422,-6.8298,-6.707,-6.6965,-6.5449,-6.3829,-6.3621,-6.2838,-6.1953,-6.1773,-6.1747,-6.1495,-6.0737,-6.0584,-6.0202,-5.8983,-5.8353,-5.7851,-5.7148,-5.6294,-5.544,-5.4687,-5.4084,-5.3507,-5.3005,-5.2929,-5.2929,-5.2929,-5.2528,-5.2226,-5.2126,-5.067,-4.9565,-4.9113,-4.846,-4.7883,-4.7481,-4.733,-4.7029,-4.6476,-4.6476,-4.6426,-4.6301,-4.6301,-4.6376,-4.6476,-4.6476,-4.6401,-6.3254,-6.2208,-6.1894,-6.2339,-6.2809,-6.3489,0.0,-6.6599,-6.8507,-6.9684,-7.2167,-7.4833,-7.7133,-7.9956,-8.3092,-8.6569,-8.8686,-9.0751,-9.2998,-9.292,-9.2633,-9.2633,-9.2188,-9.2188,-9.2737,-9.2816,-9.2816,-9.2816,-9.2816,-9.2816,-9.2737,-9.2737,-9.2737,-9.2737,-9.1665,-9.1117,-9.1117,-8.9444,-8.832,-8.7797,-8.717,-8.6621,-8.6098,-8.6098,-8.5811,-8.5209,-8.3615,-8.2282,-8.121,-8.0426,-7.9119,-7.7551,-7.7499,-7.6741,-7.5669,-7.5172,-7.4624,-7.4022,-7.3421,-7.2454,-7.1409,-7.086,-7.0232,-6.9501,-6.8481,-6.7697,-6.7017,-6.6521,-6.5449,-6.4247,-6.3363,-6.2664,-6.1965,-6.1094,-6.0813,-6.0737,-6.0278,-6.0201,-5.9896,-5.8906,-5.8679,-5.8303,-5.7223,-5.6922,-5.6319,-5.4787,-5.4084,-5.3507,-5.3005,-5.2929,-5.2929,-5.2929,-5.2879,-5.2628,-5.2151,-5.1021,-5.0293,-5.0243,-4.9264,-4.8661,-4.8586,-4.8109,-4.7581,-4.6993,-4.6993,-4.6803,-4.6301,-4.6301,-4.6552,-4.6993,-4.6993,-4.6778,-6.3855,-6.362,-6.4168,-6.5083,-6.6259,-6.7645,-6.9474,-7.1173,-7.2898,-7.4702,-7.6845,-7.9093,-8.1393,-8.4164,-8.6908,-8.9391,-9.1221,-9.2737,-9.3704,-9.3286,-9.2659,-9.2005,-9.1456,-9.1482,-9.2371,-9.2737,-9.292,-9.292,-9.292,-9.292,-9.292,-9.292,-9.292,-9.292,-9.1822,-9.1195,-9.1195,-8.947,-8.832,-8.7797,-8.717,-8.6621,-8.6098,-8.6098,-8.5575,-8.4608,-8.3223,-8.1968,-8.0792,-7.9903,-7.8701,-7.7446,-7.7107,-7.6453,-7.5643,-7.5094,-7.4519,-7.3918,-7.3317,-7.2167,-7.0886,-7.0677,-6.9971,-6.9056,-6.8246,-6.7592,-6.7017,-6.6442,-6.5449,-6.4404,-6.4013,-6.3518,-6.287,-6.2225,-6.202,-6.1865,-6.127,-6.1114,-6.0781,-5.9837,-5.9382,-5.883,-5.7725,-5.7248,-5.657,-5.5239,-5.4561,-5.3884,-5.303,-5.2929,-5.2929,-5.2929,-5.2929,-5.2703,-5.2151,-5.1674,-5.1122,-5.0469,-4.9992,-4.9439,-4.8786,-4.8535,-4.8159,-4.7606,-4.7581,-4.733,-4.6803,-4.7079,-4.7205,-4.7093,-4.7431,-4.7456,-6.4848,-6.5475,-6.6652,-6.7958,-6.984,-7.1905,-7.4049,-7.5591,-7.7107,-7.9093,-8.074,-8.2491,-8.4634,-8.7144,-8.947,-9.1378,-9.2998,-9.4096,-9.4253,-9.3469,-9.245,-9.1117,-9.0332,-9.0149,-9.0855,-9.1848,-9.2528,-9.2659,-9.2816,-9.292,-9.292,-9.292,-9.2842,-9.2711,-9.1744,-9.1038,-9.0751,-8.9156,-8.8085,-8.7536,-8.6961,-8.6464,-8.6072,-8.5758,-8.4974,-8.3798,-8.2648,-8.1472,-8.0322,-7.9328,-7.8257,-7.7185,-7.6767,-7.6244,-7.5617,-7.4911,-7.4388,-7.3892,-7.3134,-7.1879,-7.0598,-7.0598,-6.9788,-6.8716,-6.7958,-6.7462,-6.6965,-6.6233,-6.5423,-6.4639,-6.4404,-6.3987,-6.3415,-6.2845,-6.2585,-6.235,-6.1745,-6.1666,-6.141,-6.0515,-6.001,-5.9332,-5.8102,-5.7549,-5.6846,-5.5591,-5.5039,-5.4386,-5.3281,-5.3005,-5.2929,-5.2929,-5.2929,-5.2754,-5.2377,-5.2201,-5.1749,-5.0921,-5.0594,-5.0067,-4.9264,-4.9088,-4.8736,-4.8159,-4.8159,-4.7883,-4.7355,-4.7732,-4.7807,-4.7581,-4.7983,-4.8234,-6.6599,-6.788,-6.9135,-7.086,-7.3421,-7.5983,-7.776,-7.9485,-8.1027,-8.2256,-8.3432,-8.4765,-8.649,-8.8268,-9.0228,-9.2476,-9.3835,-9.4828,-9.5403,-9.3992,-9.2293,-9.0594,-8.9365,-8.845,-8.798,-8.994,-9.1482,-9.211,-9.2633,-9.292,-9.292,-9.292,-9.2659,-9.2136,-9.1561,-9.0672,-8.9574,-8.8398,-8.751,-8.6908,-8.6359,-8.6098,-8.6046,-8.4922,-8.3772,-8.2622,-8.1446,-8.0269,-7.9172,-7.8597,-7.7682,-7.6636,-7.661,-7.6244,-7.5565,-7.4441,-7.4022,-7.3839,-7.2716,-7.1565,-7.0598,-7.0598,-6.9788,-6.8638,-6.7462,-6.7096,-6.6861,-6.5737,-6.5371,-6.5135,-6.4194,-6.367,-6.3041,-6.2058,-6.1562,-6.127,-6.119,-6.119,-6.1014,-6.0437,-6.0311,-5.9784,-5.8177,-5.7876,-5.7298,-5.5641,-5.5365,-5.4963,-5.3808,-5.3231,-5.2929,-5.2929,-5.2929,-5.2929,-5.2904,-5.2402,-5.2101,-5.2051,-5.1021,-5.0393,-5.0368,-4.9866,-4.9314,-4.8761,-4.8736,-4.846,-4.7883,-4.7908,-4.8184,-4.8711,-4.8736,-4.9038,-6.8115,-7.052,-7.3186,-7.4519,-7.7002,-7.959,-8.1341,-8.2177,-8.2935,-8.4085,-8.4634,-8.5314,-8.6647,-8.8006,-8.9522,-9.1482,-9.2737,-9.3443,-9.3286,-9.2397,-9.1012,-8.8921,-8.764,-8.6699,-8.6124,-8.8503,-9.0489,-9.1456,-9.2031,-9.2554,-9.2894,-9.2554,-9.2293,-9.211,-9.1195,-9.0306,-8.9522,-8.8372,-8.7483,-8.6882,-8.6359,-8.5889,-8.5445,-8.4295,-8.3354,-8.2543,-8.0975,-7.9877,-7.9093,-7.8152,-7.7316,-7.6584,-7.6166,-7.5669,-7.5094,-7.4284,-7.3761,-7.3317,-7.2559,-7.1565,-7.0598,-7.0598,-6.9788,-6.869,-6.7932,-6.741,-6.6965,-6.6207,-6.5684,-6.5345,-6.4978,-6.4635,-6.4106,-6.3527,-6.2995,-6.2674,-6.2351,-6.227,-6.1994,-6.1065,-6.0889,-6.0362,-5.873,-5.8152,-5.7449,-5.6143,-5.5315,-5.4561,-5.3808,-5.3557,-5.3306,-5.2955,-5.2929,-5.2929,-5.2929,-5.2754,-5.2503,-5.2126,-5.1749,-5.1373,-5.0996,-5.0444,-5.0067,-4.9866,-4.9515,-4.9038,-4.8485,-4.8837,-4.8937,-4.8786,-4.9163,-4.9414,-7.0624,-7.3526,-7.6558,-7.8309,-8.0609,-8.2779,-8.4112,-8.4425,-8.4451,-8.4556,-8.4582,-8.4791,-8.5549,-8.6438,-8.7771,-8.9914,-9.1273,-9.2031,-9.211,-9.1587,-9.0411,-8.832,-8.6908,-8.5863,-8.5262,-8.7065,-8.8843,-9.0202,-9.1221,-9.1927,-9.2293,-9.2188,-9.1927,-9.1482,-9.0568,-8.9705,-8.8895,-8.7954,-8.717,-8.6595,-8.6046,-8.5445,-8.4843,-8.3693,-8.2752,-8.1916,-8.0374,-7.9276,-7.8492,-7.7551,-7.6819,-7.6244,-7.5852,-7.5382,-7.4833,-7.4232,-7.363,-7.3029,-7.248,-7.1565,-7.0598,-7.0598,-6.9788,-6.8743,-6.8168,-6.7592,-6.7017,-6.6442,-6.5841,-6.5397,-6.5238,-6.484,-6.4466,-6.3958,-6.3554,-6.3148,-6.2904,-6.2822,-6.2496,-6.1391,-6.119,-6.0663,-5.9006,-5.8252,-5.7575,-5.6646,-5.5892,-5.5164,-5.4411,-5.4135,-5.3808,-5.3256,-5.3206,-5.313,-5.2955,-5.2929,-5.2779,-5.2427,-5.2226,-5.195,-5.1599,-5.082,-5.0419,-5.0419,-4.9866,-4.9414,-4.9063,-4.9414,-4.9414,-4.9063,-4.9439,-4.959,-7.4049,-7.6845,-7.9302,-8.2099,-8.4059,-8.5419,-8.5994,-8.6046,-8.5471,-8.372,-8.3327,-8.3275,-8.3223,-8.3746,-8.5131,-8.7928,-8.947,-9.0672,-9.1822,-9.1561,-9.0568,-8.8816,-8.717,-8.5915,-8.5288,-8.5784,-8.6804,-8.845,-9.0149,-9.1117,-9.1195,-9.1744,-9.1509,-9.0411,-8.9784,-8.8921,-8.7797,-8.717,-8.6569,-8.6046,-8.5471,-8.487,-8.4216,-8.3092,-8.1942,-8.0766,-7.9616,-7.8492,-7.742,-7.6845,-7.6244,-7.5721,-7.5695,-7.5329,-7.478,-7.4179,-7.3552,-7.2951,-7.2428,-7.1539,-7.0598,-7.0546,-6.9788,-6.8743,-6.8194,-6.7619,-6.7017,-6.6521,-6.592,-6.5396,-6.4972,-6.4492,-6.4009,-6.3554,-6.3148,-6.2822,-6.2822,-6.2822,-6.2496,-6.1391,-6.114,-6.0588,-5.9006,-5.8278,-5.775,-5.7173,-5.7072,-5.6671,-5.5541,-5.4938,-5.4386,-5.3808,-5.3708,-5.3507,-5.3005,-5.2955,-5.2929,-5.2929,-5.2427,-5.2151,-5.2151,-5.1096,-5.0494,-5.0469,-4.9916,-4.964,-4.964,-4.964,-4.9665,-4.969,-4.9665,-4.964,-7.7342,-8.04,-8.3197,-8.4817,-8.5837,-8.649,-8.6647,-8.5366,-8.3641,-8.189,-8.121,-8.0635,-7.9799,-8.1158,-8.3092,-8.5105,-8.7483,-8.9313,-9.0045,-9.0751,-9.0568,-8.8816,-8.7875,-8.6961,-8.5967,-8.6359,-8.7065,-8.7928,-8.9208,-9.0306,-9.1143,-9.096,-9.0672,-9.0411,-8.9391,-8.8503,-8.7797,-8.6804,-8.5994,-8.5419,-8.5262,-8.4451,-8.304,-8.2334,-8.1341,-8.0191,-7.9041,-7.8126,-7.742,-7.6845,-7.6244,-7.5669,-7.5277,-7.4754,-7.4153,-7.3552,-7.2689,-7.1801,-7.167,-7.1173,-7.052,-7.0076,-6.9448,-6.8738,-6.8664,-6.822,-6.7723,-6.7592,-6.7122,-6.6466,-6.5592,-6.5084,-6.4576,-6.3737,-6.3148,-6.2822,-6.2822,-6.2822,-6.2496,-6.1391,-6.0487,-5.9659,-5.8855,-5.8604,-5.8328,-5.775,-5.7675,-5.7123,-5.5591,-5.5265,-5.4963,-5.4411,-5.3959,-5.3658,-5.3507,-5.3155,-5.2929,-5.2929,-5.2804,-5.2729,-5.2729,-5.2051,-5.1473,-5.1071,-5.0494,-5.0218,-5.0218,-5.0218,-5.0419,-5.0845,-5.0419,-5.0218,-8.0295,-8.304,-8.5445,-8.683,-8.7039,-8.683,-8.6595,-8.4765,-8.2465,-8.0217,-7.9302,-7.8544,-7.7394,-7.8649,-8.0609,-8.2857,-8.5628,-8.7954,-8.9313,-9.0751,-9.1117,-8.9888,-8.9261,-8.8581,-8.7666,-8.7849,-8.8294,-8.8895,-8.9287,-8.9784,-9.0411,-9.0411,-9.0306,-9.0019,-8.8869,-8.7849,-8.7039,-8.6412,-8.5784,-8.5183,-8.4922,-8.4059,-8.2596,-8.1759,-8.0897,-7.9956,0.0,-7.776,-7.7394,-7.6558,-7.6009,-7.5669,-7.512,-7.4545,-7.3918,-7.3055,-7.2193,-7.133,-7.0834,-7.0442,-7.0154,-6.9814,-6.9318,-6.8764,-6.8597,-6.8123,-6.7654,-6.7406,-6.6965,-6.6365,-6.559,-6.5063,-6.448,-6.3766,-6.3162,-6.2822,-6.2822,-6.2822,-6.2496,-6.1391,-6.0462,-5.9684,-5.9156,-5.9056,-5.888,-5.8353,-5.8252,-5.775,-5.6294,-5.6118,-5.5817,-5.5013,-5.4637,-5.4235,-5.3733,-5.3432,-5.3181,-5.2929,-5.2929,-5.2929,-5.2929,-5.2402,-5.195,-5.1649,-5.1096,-5.0795,-5.0795,-5.0795,-5.0971,-5.1272,-5.0946,-5.0795,-8.3145,-8.534,-8.6987,-8.8372,-8.7797,-8.6699,-8.5915,-8.3824,-8.1236,-7.8335,-7.729,-7.6532,-7.5355,-7.6218,-7.8048,-8.0871,-8.3746,-8.6464,-8.8816,-9.0777,-9.1822,-9.1378,-9.096,-9.0489,-8.9914,-8.9757,-8.994,-9.0489,-9.0019,-8.9705,-8.9627,-9.0045,-8.9966,-8.9287,-8.832,-8.7248,-8.6098,-8.602,-8.568,-8.5053,-8.4425,-8.351,-8.236,-8.1263,-8.0452,-7.9825,-7.8178,0.0,-7.7368,-7.6192,-7.5721,-7.5643,-7.5042,-7.4467,-7.3866,-7.2637,-7.1801,-7.1147,-6.9991,-6.9573,-6.9495,-6.9579,-6.9239,-6.868,-6.8287,-6.7841,-6.7343,-6.6843,-6.64,-6.5933,-6.5358,-6.4894,-6.4406,-6.3809,-6.3299,-6.2923,-6.2847,-6.2772,-6.2446,-6.1492,-6.0839,-6.0261,-5.9709,-5.9608,-5.9433,-5.8905,-5.883,-5.8428,-5.7298,-5.7072,-5.6646,-5.5616,-5.544,-5.4988,-5.4009,-5.3783,-5.3507,-5.3055,-5.2955,-5.2929,-5.2929,-5.2477,-5.2176,-5.2101,-5.1624,-5.1398,-5.1398,-5.1398,-5.1423,-5.1498,-5.1423,-5.1398,-8.6359,-8.832,-8.9601,-8.9391,-8.8111,-8.6359,-8.4399,-8.1419,-7.8257,-7.5355,-7.4284,-7.35,-7.2376,-7.3892,-7.614,-7.8544,-8.1341,-8.419,-8.6961,-8.9653,-9.1482,-9.1927,-9.2267,-9.2267,-9.1718,-9.1195,-9.0934,-9.1038,-9.096,-9.0751,-9.028,-8.9862,-8.9182,-8.8137,-8.7902,-8.7248,-8.6098,-8.5601,-8.5053,-8.4478,-8.3432,-8.2308,-8.1158,-8.0478,-7.9851,-7.925,-7.7995,0.0,-7.7368,-7.6192,-7.5721,-7.5617,-7.4571,-7.4101,-7.3813,-7.2167,-7.12,-7.0539,-6.9494,-6.8805,-6.8501,-6.8837,-6.8926,-6.868,-6.8287,-6.8125,-6.7964,-6.7517,-6.7272,-6.6982,-6.6102,-6.5756,-6.5368,-6.3985,-6.3626,-6.34,-6.2923,-6.2471,-6.2094,-6.1893,-6.1416,-6.0839,-6.0261,-6.0186,-5.9985,-5.9433,-5.9357,-5.8981,-5.7876,-5.7323,-5.6796,-5.6143,-5.5666,-5.5315,-5.5114,-5.4235,-5.3658,-5.3582,-5.3181,-5.2929,-5.2929,-5.2829,-5.2578,-5.2126,-5.2026,-5.1975,-5.1975,-5.1975,-5.2201,-5.2628,-5.2176,-5.1975,-8.8137,-8.9731,-9.0594,-8.9731,-8.7745,-8.5419,-8.3118,-7.9668,-7.6323,-7.4022,-7.2611,-7.1644,-7.1069,-7.214,-7.3944,-7.6532,-7.9381,-8.2387,-8.5575,-8.8503,-9.0751,-9.1953,-9.2842,-9.3286,-9.2998,-9.2737,-9.245,-9.211,-9.1848,-9.13,-9.0463,-8.9836,-8.8973,-8.7823,-8.7797,-8.7248,-8.6098,-8.5497,-8.4896,-8.4321,-8.3171,-8.2021,-8.0844,-8.0295,-7.972,-7.9119,-7.7969,0.0,-7.7368,-7.6192,-7.5721,-7.5591,-7.4467,-7.3996,-7.3787,-7.2036,-7.0896,-7.0152,-6.9298,-6.8474,-6.784,-6.8093,-6.8151,-6.8067,-6.7925,-6.7671,-6.7417,-6.6882,-6.6797,-6.6635,-6.6212,-6.5849,-6.5336,-6.4362,-6.3651,-6.3174,-6.2898,-6.2621,-6.2345,-6.2069,-6.1793,-6.1441,-6.0864,-6.0512,-6.0236,-5.996,-5.9528,-5.8898,-5.8124,-5.7298,-5.6626,-5.6221,-5.5968,-5.5691,-5.5415,-5.4495,-5.3753,-5.3453,-5.2953,-5.2654,-5.2654,-5.2792,-5.2804,-5.2528,-5.2528,-5.2528,-5.2528,-5.2528,-5.2678,-5.2929,-5.2653,-5.2528,-8.9208,-9.0594,-9.1221,-8.9862,-8.7222,-8.4373,-8.1942,-7.8152,-7.465,-7.2925,-7.1304,-7.018,-7.0049,-7.0494,-7.1775,-7.4545,-7.7211,-8.0139,-8.3589,-8.6673,-8.9313,-9.13,-9.2659,-9.3547,-9.3809,-9.3704,-9.3443,-9.292,-9.2293,-9.1482,-9.0463,-8.9705,-8.8843,-8.7823,-8.7666,-8.7117,-8.6098,-8.5366,-8.4791,-8.4321,-8.2935,-8.1785,-8.0844,-8.0165,-7.959,-7.9119,-7.7969,0.0,0.0,-7.6192,-7.5721,-7.5591,-7.4467,-7.3996,-7.3787,-7.2036,-7.0784,-6.9808,-6.9127,-6.8193,-6.7392,-6.7392,-6.7392,-6.7477,-6.7392,-6.7052,-6.6711,-6.6197,-6.6112,-6.6112,-6.6112,-6.5785,-6.5308,-6.463,-6.3626,-6.2822,-6.2822,-6.2822,-6.2697,-6.227,-6.2169,-6.1994,-6.1361,-6.0626,-6.0147,-5.9943,-5.9053,-5.8299,-5.7756,-5.7004,-5.6393,-5.5979,-5.6074,-5.5897,-5.5471,-5.4437,-5.3651,-5.3159,-5.2515,-5.2144,-5.2283,-5.2585,-5.2861,-5.2929,-5.2929,-5.2929,-5.2929,-5.2929,-5.2929,-5.2929,-5.2929,-5.2929,-8.9836,-9.1482,-9.2214,-9.0045,-8.6935,-8.3667,-8.0818,-7.6636,-7.2872,-7.1173,-6.9866,-6.8847,-6.8324,-6.869,-6.984,-7.2219,-7.4179,-7.6584,-8.0008,-8.3432,-8.6621,-8.9418,-9.1221,-9.2659,-9.373,-9.3286,-9.2998,-9.292,-9.1927,-9.1038,-9.0411,-8.9313,-8.8398,-8.7823,-8.7274,-8.6699,-8.6098,-8.4974,-8.4373,-8.4321,-8.2099,-8.0975,-8.0844,-7.9747,-7.9224,-7.9119,-7.7969,0.0,0.0,-7.6192,-7.5721,-7.5591,-7.4467,-7.3996,-7.3787,-7.2036,-7.0784,-6.9722,-6.8811,-6.7793,-6.6882,-6.6882,-6.7137,-6.7392,-6.6967,-6.6797,-6.6711,-6.6197,-6.6112,-6.6112,-6.6112,-6.6061,-6.5785,-6.4705,-6.3626,-6.2822,-6.2822,-6.2822,-6.2822,-6.2772,-6.2747,-6.2408,-6.1428,-6.0558,-5.9638,-5.8747,-5.7812,-5.6939,-5.6384,-5.6185,-5.5931,-5.5348,-5.5485,-5.5607,-5.5557,-5.4274,-5.3297,-5.2888,-5.1842,-5.1492,-5.1841,-5.2213,-5.2585,-5.2929,-5.2929,-5.2929,-5.2929,-5.2929,-5.2929,-5.2929,-5.2929,-5.2929,-8.9287,-9.1117,-9.1848,-8.9548,-8.6359,-8.2883,-7.9302,-7.5172,-7.1592,-6.9893,-6.8612,-6.7723,-6.7488,-6.7357,-6.8063,-7.0363,-7.1905,-7.3892,-7.7002,-8.04,-8.3537,-8.6098,-8.8843,-9.0855,-9.1665,-9.245,-9.2763,-9.245,-9.1665,-9.096,-9.0411,-8.9261,-8.8346,-8.7823,-8.7196,-8.6621,-8.6098,-8.4922,-8.4347,-8.4321,-8.1994,-8.0871,-8.0844,-7.9694,-7.8989,-7.8623,-7.7812,0.0,0.0,-7.6061,-7.5329,-7.469,-7.3859,-7.3159,-7.245,-7.1443,-7.0225,-6.8994,-6.8591,-6.7558,-6.6369,-6.6369,-6.654,-6.6711,-6.6797,-6.6626,-6.6369,-6.6112,-6.6112,-6.6112,-6.6112,-6.5609,-6.4922,-6.4243,-6.3211,-6.2331,-6.2084,-6.2249,-6.2413,-6.2413,-6.2413,-6.2256,-6.1516,-6.0367,-5.9177,-5.8238,-5.7038,-5.6007,-5.5513,-5.4944,-5.4592,-5.4587,-5.4885,-5.4837,-5.452,-5.3273,-5.2106,-5.1479,-5.0864,-5.0628,-5.0742,-5.1141,-5.1492,-5.1866,-5.1632,-5.1632,-5.1866,-5.2144,-5.2352,-5.2585,-5.2792,-5.2792,-8.7144,-8.9104,-9.0045,-8.7875,-8.487,-8.1498,-7.7786,-7.3813,-7.0468,-6.8899,-6.7671,-6.6782,-6.6625,-6.6416,-6.6913,-6.8873,-6.9997,-7.1644,-7.4545,-7.7499,-8.0348,-8.2988,-8.6229,-8.866,-8.9757,-9.1404,-9.2293,-9.211,-9.1378,-9.0751,-9.0149,-8.8999,-8.8189,-8.7797,-8.7065,-8.6386,-8.5837,-8.4843,-8.4242,-8.4059,-8.189,-8.0871,-8.0844,-7.9694,-7.8858,-7.8283,-7.7708,0.0,0.0,-7.559,-7.4794,-7.3896,-7.294,-7.2064,-7.1178,-7.0617,-6.9536,-6.826,-6.8108,-6.7079,-6.5707,-6.5731,-6.5594,-6.5594,-6.6,-6.6112,-6.6112,-6.594,-6.5681,-6.5508,-6.5508,-6.4687,-6.3782,-6.3443,-6.2544,-6.1672,-6.134,-6.1672,-6.2002,-6.2002,-6.2002,-6.173,-6.1066,-5.9607,-5.8188,-5.7251,-5.5768,-5.4659,-5.4481,-5.3779,-5.3414,-5.3819,-5.3785,-5.3707,-5.3504,-5.2136,-5.0996,-5.0377,-4.9827,-4.961,-4.9767,-5.0009,-5.0269,-5.0694,-5.0411,-5.0482,-5.086,-5.1282,-5.1702,-5.2213,-5.2421,-5.2352,-8.3066,-8.5209,-8.6542,-8.4817,-8.2204,-7.9302,-7.6401,-7.2611,-6.9396,-6.822,-6.7096,-6.6103,-6.5501,-6.5894,-6.6652,-6.7828,-6.8481,-6.9893,-7.2768,-7.4676,-7.7054,-8.0505,-8.3484,-8.6124,-8.8398,-9.0202,-9.1482,-9.2084,-9.1038,0.0,-8.9548,-8.8424,-8.7797,-8.7797,-8.6699,-8.5811,-8.5209,-8.4608,-8.4059,-8.3484,-8.1707,-8.0871,-8.0844,-7.9694,-7.8858,0.0,0.0,0.0,0.0,-7.4924,-7.3882,-7.3268,-7.1621,-7.071,-7.027,-6.9602,-6.878,-6.7872,-6.7324,-6.6069,-6.482,-6.4699,-6.4353,-6.4114,-6.4615,-6.5397,-6.6026,-6.5508,-6.4726,-6.4026,-6.4026,-6.3224,-6.2422,-6.2422,-6.1619,-6.0841,-6.0841,-6.115,-6.1482,-6.1531,-6.1506,-6.1066,-5.9726,-5.7901,-5.6365,-5.5468,-5.3679,-5.2637,-5.306,-5.2724,-5.2569,-5.2976,-5.2257,-5.1994,-5.2658,-5.1025,-4.9995,-4.9995,-4.8711,-4.8297,-4.9112,-4.8971,-4.9126,-4.9533,-4.9533,-4.9676,-5.0127,-5.0482,-5.1047,-5.1841,-5.1796,-5.1586,-8.1027,-8.2831,-8.3667,-8.2308,-8.0113,-7.7525,-7.4597,-7.1435,-6.8795,-6.7619,-6.6469,-6.5606,-6.5423,-6.5214,-6.5345,-6.6076,-6.7017,-6.8246,-6.9971,-7.235,-7.4937,-7.7629,-8.223,-8.6255,-8.8947,-9.0123,-9.0751,-9.0934,-9.0228,-8.9522,-8.8921,-8.7797,-8.717,-8.717,-8.6072,-8.5366,-8.5183,-8.4242,-8.3458,-8.2883,-8.1524,-8.0661,-8.0269,-7.9511,-7.8649,0.0,0.0,0.0,0.0,-7.4165,-7.2772,-7.1234,-6.956,-6.821,-6.7036,-6.6496,-6.5687,-6.4895,-6.4999,-6.4014,-6.2778,-6.3145,-6.292,-6.2564,-6.3097,-6.3914,-6.4527,-6.3738,-6.3274,-6.292,-6.2564,-6.2241,-6.1708,-6.0742,-6.0214,-5.9707,-5.9097,-5.928,-5.9726,-6.0063,-5.9895,-5.9449,-5.8686,-5.7005,-5.5394,-5.4476,-5.33,-5.2389,-5.224,-5.1788,-5.1592,-5.1694,-5.0857,-5.0469,-5.095,-4.9937,-4.8943,-4.8364,-4.8113,-4.8243,-4.8719,-4.8411,-4.8313,-4.8396,-4.7878,-4.7721,-4.8136,-4.8743,-4.9605,-5.0624,-5.0364,-5.0009,-7.7054,-7.8649,-7.9198,-7.8466,-7.6898,-7.4859,-7.2376,-6.9945,-6.7906,-6.6991,-6.5684,-6.4874,-6.5292,-6.4743,-6.4613,-6.5841,-6.6259,-6.7174,-6.9213,-7.1043,-7.3761,-7.8048,-8.2282,-8.6072,-8.9208,-8.9836,-9.0045,-9.0045,-8.9496,-8.8816,-8.8006,-8.7274,-8.6699,-8.6255,-8.5549,-8.5079,-8.487,-8.3746,-8.2883,-8.2282,-8.1106,-8.0276,-7.9717,-7.8909,-7.7955,0.0,0.0,0.0,0.0,-7.2741,-7.1048,-6.9083,-6.7309,-6.5659,-6.4273,-6.3897,-6.3269,-6.2619,-6.2892,-6.2128,-6.1116,-6.1652,-6.1582,-6.1222,-6.1222,-6.2119,-6.2943,-6.185,-6.1402,-6.1132,-6.0861,-6.0581,-6.0206,-5.9527,-5.9154,-5.882,-5.8074,-5.8218,-5.8578,-5.8647,-5.8345,-5.7831,-5.7142,-5.5664,-5.4256,-5.3512,-5.2546,-5.1892,-5.1773,-5.1268,-5.0931,-5.1102,-5.0273,-4.976,-4.979,-4.8995,-4.8221,-4.7804,-4.7576,-4.7545,-4.7937,-4.7553,-4.7313,-4.7289,-4.6779,-4.6691,-4.7032,-4.7913,-4.8694,-4.9437,-4.9054,-4.8621,0.0,-7.3108,-7.3709,-7.3709,-7.2872,-7.1618,-6.9945,-6.8246,0.0,-6.639,-6.4874,-6.3985,-6.5162,-6.4456,-6.4404,-6.6599,-6.6103,-6.6652,-7.0049,-7.0886,-7.3787,-8.0923,-8.338,-8.5758,-8.9052,-8.9418,-8.9444,-8.9444,-8.8843,-8.8006,-8.6961,-8.6804,-8.6281,-8.5209,-8.5079,-8.4765,-8.4216,-8.3118,-8.2256,-8.1629,-8.0459,-7.9593,-7.9126,-7.7943,-7.6708,0.0,0.0,0.0,0.0,-7.077,-6.8896,-6.6794,-6.474,-6.3118,-6.1759,-6.1759,-6.1398,-6.0971,-6.0981,-6.0337,-5.9576,-5.9954,-6.0159,-5.9977,-5.9063,-6.0159,-6.1425,-5.9886,-5.9154,-5.8787,-5.8787,-5.8452,-5.8208,-5.8639,-5.8345,-5.7849,-5.7418,-5.7546,-5.7713,-5.732,-5.6796,-5.6188,-5.5313,-5.4078,-5.3008,-5.2581,-5.1688,-5.1349,-5.1705,-5.0977,-5.0563,-5.0994,-5.0207,-4.9489,-4.9154,-4.8252,-4.7869,-4.8234,-4.7086,-4.6522,-4.6896,-4.6493,-4.6238,-4.6195,-4.6174,-4.6305,-4.6647,-4.7653,-4.8159,-4.8159,-4.7749,-4.7361,-6.6704,0.0,-7.0703,-7.0703,-7.018,-6.9448,0.0,-6.741,-6.6442,-6.6312,-6.456,-6.3515,-6.5083,-6.4456,-6.4142,-6.5554,-6.5946,-6.6965,-6.9553,-7.3709,-7.7812,-8.1367,-8.4085,-8.6333,-8.8032,-8.8555,-8.8816,-8.8816,-8.7875,-8.717,-8.6908,-8.6072,-8.5471,-8.5209,-8.3929,-8.3171,-8.304,-8.2334,-8.1472,-8.0426,-7.9359,-7.8374,-7.7331,-7.5862,-7.4526,0.0,0.0,0.0,-6.9688,-6.8078,-6.618,-6.4201,-6.2471,-6.0941,-5.9558,-5.9171,-5.8533,-5.7871,-5.8235,-5.7691,-5.6918,-5.6976,-5.7328,-5.7514,-5.6861,-5.8141,-5.9338,-5.7885,-5.7421,-5.7234,-5.6767,-5.6868,-5.6974,-5.6327,-5.6148,-5.5941,-5.5371,-5.5067,-5.4938,-5.5247,-5.4873,-5.4454,-5.4276,-5.3387,-5.2671,-5.2492,-5.1979,-5.1646,-5.1827,-5.1016,-5.0435,-5.0522,-4.9794,-4.9188,-4.9085,-4.8233,-4.7713,-4.7848,-4.722,-4.7006,-4.7443,-4.7039,-4.6669,-4.6311,-4.5953,-4.5764,-4.5736,-4.6366,-4.6427,-4.6077,-4.598,-4.5757,-6.4299,-6.5946,-6.7383,-6.7645,-6.7488,-6.7174,-6.6861,-6.6312,-6.5867,-6.5867,-6.4456,-6.375,-6.5475,-6.4848,-6.4717,-6.6652,-6.7253,-6.8455,-7.1278,-7.5277,-7.8884,-8.1472,-8.385,-8.5941,-8.764,-8.8058,-8.8241,-8.8241,-8.7405,-8.6778,-8.6542,-8.568,-8.5053,-8.4817,-8.3178,-8.2321,-8.2622,-8.1352,-8.0172,-7.9327,-7.7711,-7.6317,-7.4905,-7.333,-7.1981,0.0,0.0,0.0,-6.7317,-6.6035,-6.4228,-6.2242,-6.0708,-5.9182,-5.788,-5.728,-5.6654,-5.6115,-5.6684,-5.6418,-5.5944,-5.5755,-5.6038,-5.632,-5.585,-5.6393,-5.7141,-5.632,-5.6132,-5.6038,-5.5755,-5.585,-5.6068,-5.5719,-5.5458,-5.5172,-5.4701,-5.4229,-5.3912,-5.3965,-5.3566,-5.3298,-5.3298,-5.2671,-5.2152,-5.2152,-5.1972,-5.1791,-5.1791,-5.117,-5.0653,-5.0446,-4.9804,-4.9287,-4.908,-4.8417,-4.79,-4.7671,-4.7233,-4.6981,-4.6972,-4.6751,-4.6566,-4.6316,-4.6095,-4.577,-4.5539,-4.569,-4.5577,-4.5106,-4.4955,-4.473,-6.2914,-6.3646,-6.4299,-6.4953,-6.5109,-6.5136,-6.524,-6.524,-6.5266,-6.5371,-6.4534,-6.4325,-6.5972,-6.5528,-6.5789,-6.832,-6.9291,-7.0729,-7.3839,-7.6505,-7.9093,-8.1733,-8.372,-8.5601,-8.7483,-8.7745,-8.7745,-8.7666,-8.7117,-8.6516,-8.5967,-8.5289,-8.4662,-8.3984,-8.223,-8.1481,-8.1704,-7.998,-7.8688,-7.7967,-7.5799,-7.3848,-7.2266,-7.0456,-6.9065,-6.8059,0.0,0.0,-6.4771,-6.3902,-6.2339,-6.0417,-5.915,-5.7804,-5.6404,-5.6026,-5.5607,-5.5209,-5.5661,-5.5755,-5.5755,-5.5283,-5.5472,-5.5661,-5.5304,-5.5209,-5.5209,-5.5209,-5.5209,-5.5209,-5.5209,-5.5209,-5.5283,-5.5661,-5.5332,-5.4824,-5.4422,-5.4005,-5.3427,-5.3046,-5.2692,-5.2402,-5.2402,-5.2062,-5.1791,-5.1791,-5.1791,-5.1791,-5.1791,-5.1398,-5.0943,-5.0466,-5.0032,-4.9576,-4.91,-4.8707,-4.8272,-4.7817,-4.732,-4.6823,-4.6287,-4.6266,-4.6266,-4.6266,-4.6295,-4.6116,-4.5634,-4.5546,-4.5214,-4.4685,-4.4382,-4.4209,-6.0849,-6.1529,-6.2626,-6.3672,-6.3933,-6.4064,-6.456,-6.4665,-6.4796,-6.5266,-6.4848,-6.4796,-6.605,-6.6521,-6.7174,-6.8529,-7.1304,-7.3735,-7.5251,-7.8727,-8.1629,-8.304,-8.5601,-8.7196,-8.7039,-8.7483,-8.7588,-8.7065,-8.6516,-8.5941,-8.5366,-8.438,-8.324,-8.2178,-8.0136,-7.8592,-7.7685,-7.7881,-7.7173,-7.5695,-7.3526,-7.1698,-7.0115,-6.7576,-6.5841,-6.4803,0.0,-6.2118,-6.1162,-6.0583,-5.9419,-5.7936,-5.7676,-5.6718,-5.5386,-5.5303,-5.5013,-5.4639,-5.4714,-5.4714,-5.4714,-5.4639,-5.4639,-5.4735,-5.4639,-5.4639,-5.4639,-5.4639,-5.4639,-5.4639,-5.4639,-5.4639,-5.4639,-5.4714,-5.4091,-5.354,-5.3477,-5.2678,-5.2055,-5.1993,-5.1972,-5.1882,-5.1882,-5.1902,-5.1791,-5.1791,-5.1791,-5.1791,-5.1791,-5.1398,-5.0943,-5.0466,-5.0032,-4.9576,-4.91,-4.8997,-4.8769,-4.8293,-4.7506,-4.6823,-4.6287,-4.6266,-4.6266,-4.6266,-4.6285,-4.6096,-4.5661,-4.5657,-4.5179,-4.4349,-4.4349,-4.4064,-6.0222,-6.0849,-6.1633,-6.2156,-6.2992,-6.375,-6.4012,-6.4796,-6.5554,-6.5815,-6.5894,-6.6259,-6.7462,-6.788,-6.8926,-7.167,-7.4232,-7.6479,-7.8257,-8.0661,-8.2543,-8.338,-8.5209,-8.6412,-8.6464,-8.6699,-8.6777,-8.6486,-8.568,-8.4848,-8.3938,-8.2495,-8.1187,-8.0141,-7.7608,-7.5927,-7.5073,-7.3903,-7.3267,-7.3031,-7.0863,-6.9033,-6.7507,-6.5065,-6.3584,-6.2797,0.0,-6.0319,-5.9884,-5.9134,-5.8217,-5.7298,-5.6794,-5.6043,-5.5165,-5.4917,-5.471,-5.4544,-5.4544,-5.4544,-5.4544,-5.4544,-5.4544,-5.4544,-5.4544,-5.4544,-5.4544,-5.4544,-5.4544,-5.4544,-5.4544,-5.4544,-5.4544,-5.4544,-5.4027,-5.3468,-5.324,-5.264,-5.2102,-5.1853,-5.1791,-5.1791,-5.1791,-5.1791,-5.1791,-5.1791,-5.1791,-5.1791,-5.1791,-5.1605,-5.1315,-5.0839,-5.0384,-4.9928,-4.9473,-4.9204,-4.8873,-4.8396,-4.7527,-4.6865,-4.674,-4.639,-4.6266,-4.6266,-4.6266,-4.6119,-4.5685,-4.5685,-4.5209,-4.4298,-4.4298,-4.4049,-5.9409,-6.0237,-6.0962,-6.0962,-6.2237,-6.3541,-6.3829,-6.5031,-6.6181,-6.6599,-6.7122,-6.7854,-6.903,-6.9684,-7.12,-7.4728,-7.6741,-7.8623,-8.0792,-8.2204,-8.3249,-8.3824,-8.4896,-8.5706,-8.6046,-8.6098,-8.594,-8.5569,-8.4427,-8.3261,-8.1931,-8.0151,-7.8756,-7.7679,-7.5066,-7.332,-7.2464,-7.0041,-6.9394,-7.0453,-6.8314,-6.6441,-6.4859,-6.2887,-6.164,-6.0997,-5.9746,-5.9,-5.8746,-5.8028,-5.741,-5.6864,-5.6131,-5.5508,-5.4979,-5.4668,-5.4544,-5.4544,-5.4544,-5.4544,-5.4544,-5.4544,-5.4544,-5.4544,-5.4544,-5.4544,-5.4544,-5.4544,-5.4544,-5.4544,-5.4544,-5.4544,-5.4544,-5.4544,-5.411,-5.3592,-5.3261,-5.2723,-5.2226,-5.1874,-5.1791,-5.1791,-5.1791,-5.1791,-5.1791,-5.1791,-5.1791,-5.1791,-5.1791,-5.1791,-5.1626,-5.117,-5.0798,-5.0363,-4.9804,-4.9431,-4.9017,-4.8562,-4.7796,-4.7258,-4.7051,-4.6617,-4.637,-4.6266,-4.6266,-4.6182,-4.585,-4.585,-4.5416,-4.4629,-4.4629,-4.4319,-5.7554,-5.9054,-6.0516,-6.0516,-6.1698,-6.3175,-6.4221,-6.4979,-6.5894,-6.754,-6.8324,-6.9082,-7.0259,-7.2219,-7.4258,-7.6192,-7.7917,-7.9668,-8.1446,-8.3145,-8.4425,-8.5,-8.6072,-8.6595,-8.6124,-8.6148,-8.5491,-8.3778,-8.2652,-8.1302,-7.9645,-7.7482,-7.5863,-7.4688,-7.2507,-7.0612,-6.9168,-6.744,-6.7066,-6.8212,-6.6077,-6.4238,-6.2748,-6.1076,-5.9874,-5.8952,-5.8263,-5.7543,-5.6755,-5.6791,-5.6153,-5.5365,-5.5303,-5.4938,-5.4586,-5.4544,-5.4544,-5.4544,-5.4544,-5.4544,-5.4544,-5.4544,-5.4544,-5.4544,-5.4544,-5.4544,-5.4544,-5.4544,-5.4544,-5.4544,-5.4544,-5.4544,-5.4544,-5.4544,-5.3861,-5.322,-5.3199,-5.2474,-5.1833,-5.1812,-5.1791,-5.1791,-5.1791,-5.1791,-5.1791,-5.1791,-5.1791,-5.1791,-5.1791,-5.1791,-5.1626,-5.117,-5.1087,-5.0715,-4.9825,-4.9808,-4.9514,-4.9038,-4.8541,-4.79,-4.7072,-4.701,-4.67,-4.6266,-4.6266,-4.6246,-4.6306,-4.6306,-4.6057,-4.5581,-4.5581,-4.5105,-5.7277,-5.85,-5.9679,-6.0039,-6.1582,-6.3492,-6.4868,-6.6685,-6.8313,-6.9042,-6.991,-7.0901,-7.203,-7.413,-7.6192,-7.7917,-7.9352,-8.0873,-8.2614,-8.3707,-8.443,-8.4637,-8.505,-8.5442,-8.5549,-8.4895,-8.398,-8.2547,-8.081,-7.8583,-7.581,-7.3888,-7.2029,-7.0276,-6.8529,-6.7102,-6.6243,-6.4621,-6.3973,-6.4092,-6.3521,-6.2653,-6.1523,-6.0226,-5.9187,-5.8305,-5.7514,-5.6718,-5.6117,-5.5828,-5.5496,-5.5165,-5.4896,-5.4689,-5.4544,-5.4544,-5.4544,-5.4544,-5.4544,-5.4544,-5.4544,-5.4544,-5.4544,-5.4544,-5.4544,-5.4544,-5.4544,-5.4544,-5.4544,-5.4544,-5.4544,-5.4544,-5.4544,-5.4544,-5.4048,-5.3509,-5.324,-5.2681,-5.2226,-5.2226,-5.2226,-5.2226,-5.2226,-5.2226,-5.2143,-5.1853,-5.1791,-5.1791,-5.1791,-5.1791,-5.1729,-5.1564,-5.1274,-5.086,-5.0218,-4.9908,-4.968,-4.9601,-4.879,-4.8231,-4.7879,-4.7341,-4.6947,-4.6782,-4.6411,-4.6266,-4.6266,-4.6266,-4.6119,-4.5685,-4.5685,-4.5333,-5.6866,-5.798,-5.9076,-5.9843,-6.1914,-6.4196,-6.5847,-6.7995,-6.9814,-7.0808,-7.2025,-7.3063,-7.3521,-7.5373,-7.734,-7.8483,-8.0135,-8.1644,-8.301,-8.3752,-8.4153,-8.4153,-8.3809,-8.3732,-8.4083,-8.3092,-8.1791,-8.0392,-7.8142,-7.5607,0.0,-7.0398,-6.852,-6.7031,-6.5449,-6.4395,-6.3693,-6.2547,-6.1596,-6.1002,-6.1113,-6.0859,-6.0158,-5.9355,-5.8402,-5.7624,-5.6895,-5.6221,-5.5621,-5.531,-5.5103,-5.4958,-5.4648,-5.4544,-5.4544,-5.4544,-5.4544,-5.4544,-5.4544,-5.4544,-5.4544,-5.4544,-5.4544,-5.4544,-5.4544,-5.4544,-5.4544,-5.4544,-5.4544,-5.4544,-5.4544,-5.4544,-5.4544,-5.4544,-5.4068,-5.3551,-5.324,-5.2702,-5.2309,-5.2454,-5.2495,-5.2536,-5.2681,-5.2578,-5.2392,-5.206,-5.1895,-5.1791,-5.1791,-5.1791,-5.1791,-5.1791,-5.1522,-5.115,-5.0673,-5.0218,-4.9908,-4.9849,-4.9017,-4.8521,-4.8376,-4.7775,-4.732,-4.7051,-4.6638,-4.6411,-4.6266,-4.6266,-4.6182,-4.5892,-4.5892,-4.5643,-5.6068,-5.7318,-5.8804,-5.9896,-6.2547,-6.5364,-6.7212,-6.8438,-6.9926,-7.2767,-7.4712,-7.5626,-7.4473,-7.6113,-7.7625,-7.7651,-7.9908,-8.193,-8.2622,-8.3121,-8.3408,-8.3515,-8.2368,-8.1688,-8.1805,-8.0711,-7.9188,-7.7044,-7.4752,-7.2458,0.0,-6.7075,-6.5413,-6.5391,-6.3825,-6.257,-6.1655,-6.1094,-6.032,-5.9418,-5.8806,-5.8679,-5.8746,-5.812,-5.7422,-5.6552,-5.6552,-5.6035,-5.5165,-5.5165,-5.4917,-5.4544,-5.4544,-5.4544,-5.4544,-5.4544,-5.4544,-5.4544,-5.4544,-5.4544,-5.4544,-5.4544,-5.4544,-5.4544,-5.4544,-5.4544,-5.4544,-5.4544,-5.4544,-5.4544,-5.4544,-5.4544,-5.4544,-5.4544,-5.384,-5.3178,-5.3178,-5.2454,-5.1957,-5.2412,-5.2495,-5.264,-5.3116,-5.2806,-5.2495,-5.2495,-5.2102,-5.1812,-5.1791,-5.1791,-5.1791,-5.1791,-5.1791,-5.1605,-5.115,-5.0694,-5.0239,-4.9783,-4.9328,-4.8852,-4.8396,-4.8376,-4.7962,-4.7072,-4.7051,-4.6823,-4.6287,-4.6266,-4.6266,-4.6266,-4.6266,-4.6119,-5.652,-5.7398,-5.8404,-6.0001,-6.1927,-6.4278,-6.7121,-7.0003,-7.2784,-7.531,-7.7099,-7.7855,-7.632,-7.715,-7.8113,-7.8087,-7.8827,-7.9714,-8.066,-8.0543,-8.0428,-8.0494,-7.9443,-7.8983,-7.9443,-7.7746,-7.6239,-7.5096,-7.268,0.0,0.0,-6.5132,-6.3604,-6.2522,-6.1494,-6.0783,-6.0511,-5.9636,-5.891,-5.8328,-5.7895,-5.7833,-5.812,-5.7688,-5.6945,-5.6055,-5.5745,-5.5269,-5.4731,-5.4731,-5.4648,-5.4544,-5.4544,-5.4544,-5.4544,-5.4544,-5.4544,-5.4544,-5.4544,-5.4544,-5.4544,-5.4544,-5.4544,-5.4544,-5.4544,-5.4544,-5.4544,-5.4544,-5.4544,-5.4544,-5.4544,-5.4544,-5.4544,-5.4544,-5.384,-5.3178,-5.3178,-5.2702,-5.2433,-5.2888,-5.322,-5.3489,-5.3633,-5.353,-5.324,-5.2599,-5.2371,-5.2164,-5.1853,-5.1791,-5.1791,-5.1791,-5.1791,-5.175,-5.1605,-5.088,-5.0363,-5.0239,-4.9494,-4.8997,-4.8873,-4.8541,-4.8252,-4.7982,-4.7651,-4.7424,-4.7279,-4.6989,-4.6823,-4.6741,-4.6411,-4.6285,-5.6402,-5.7399,-5.8646,-6.0138,-6.2109,-6.4679,-6.8872,-7.2215,-7.4932,-7.6531,-7.7981,-7.8406,-7.6799,-7.6997,-7.7288,-7.6798,-7.7085,-7.7576,-7.8231,-7.8051,-7.7828,-7.7955,-7.6458,-7.5602,-7.6119,-7.4484,-7.3136,-7.2215,0.0,0.0,0.0,-6.329,-6.1884,-6.0837,-6.0092,-5.9533,-5.916,-5.8622,-5.8022,-5.738,-5.709,-5.7008,-5.709,-5.6821,-5.6283,-5.5579,-5.5124,-5.4772,-5.4544,-5.4544,-5.4544,-5.4544,-5.4544,-5.4544,-5.4544,-5.4544,-5.4544,-5.4503,-5.4317,-5.4379,-5.4503,-5.4317,-5.4379,-5.4544,-5.4544,-5.4544,-5.4544,-5.4544,-5.4544,-5.4544,-5.4544,-5.4544,-5.4544,-5.4544,-5.384,-5.324,-5.3406,-5.295,-5.2681,-5.3323,-5.3654,-5.3903,-5.4089,-5.3965,-5.3654,-5.3116,-5.2723,-5.2329,-5.1853,-5.1791,-5.1791,-5.1791,-5.1791,-5.1791,-5.1791,-5.1129,-5.0611,-5.0425,-4.9742,-4.9266,-4.908,-4.879,-4.8562,-4.8376,-4.8107,-4.7858,-4.7693,-4.7424,-4.7299,-4.7279,-4.701,-4.6885,-5.5826,-5.7232,-5.9064,-6.0229,-6.2751,-6.6323,-7.1441,-7.4293,-7.607,-7.6712,-7.7668,-7.7898,-7.6218,-7.5837,-7.5427,-7.4255,-7.4941,-7.5641,-7.5689,-7.5595,-7.5524,-7.5454,-7.3396,-7.2032,-7.2136,-7.0971,-6.9748,-6.8612,0.0,0.0,0.0,-6.1684,-6.0382,-5.9885,-5.9367,-5.8705,-5.7856,-5.7773,-5.7318,-5.6511,-5.6449,-5.6221,-5.5807,-5.5807,-5.5559,-5.5103,-5.471,-5.4544,-5.4544,-5.4544,-5.4544,-5.4544,-5.4544,-5.4544,-5.4524,-5.4482,-5.4482,-5.4399,-5.3944,-5.4068,-5.4337,-5.3923,-5.4089,-5.4482,-5.4482,-5.4503,-5.4544,-5.4544,-5.4544,-5.4544,-5.4544,-5.4544,-5.4524,-5.4482,-5.384,-5.3344,-5.3758,-5.3199,-5.2868,-5.3696,-5.3882,-5.4048,-5.4461,-5.4192,-5.3882,-5.3799,-5.3054,-5.2329,-5.1853,-5.1791,-5.1791,-5.1791,-5.1791,-5.1791,-5.1791,-5.1377,-5.0922,-5.0508,-5.0032,-4.9576,-4.9142,-4.908,-4.8873,-4.8438,-4.8438,-4.8231,-4.7817,-4.7755,-4.7755,-4.7755,-4.7693,-4.7693,-5.4943,-5.6343,-5.8187,-5.9421,-6.3521,-6.7888,-7.0352,-7.2838,-7.506,-7.6415,-7.7593,-7.7799,-7.6044,-7.5472,-7.4727,-7.3583,-7.3271,-7.3294,-7.3684,-7.2952,-7.2279,-7.1978,-7.0315,-6.8938,-6.87,-6.7386,-6.6363,0.0,0.0,0.0,-6.1557,-6.0594,-5.9761,-5.8933,-5.8105,-5.7587,-5.738,-5.6676,-5.6221,0.0,-5.5662,-5.5434,-5.5331,-5.5331,-5.5082,-5.4668,-5.4565,-5.4544,-5.4544,-5.4544,-5.4544,-5.4544,-5.4544,-5.4544,-5.4503,-5.413,-5.3985,-5.3923,-5.3489,-5.3385,-5.3468,-5.3364,-5.3633,-5.3985,-5.3985,-5.4255,-5.4544,-5.4544,-5.4544,-5.4544,-5.4544,-5.4544,-5.4441,-5.4089,-5.384,-5.3737,-5.382,-5.3696,-5.3613,-5.3705,-5.4151,-5.442,-5.4524,-5.4461,-5.4151,-5.3427,-5.2847,-5.2329,-5.1853,-5.1791,-5.1791,-5.1791,-5.1791,-5.1791,-5.1791,-5.1377,-5.1067,-5.0963,-5.0197,-4.9721,-4.9618,-4.9266,-4.9017,-4.8914,-4.8914,-4.8873,-4.8769,-4.8396,-4.8231,-4.821,-4.7858,-4.7693,-5.4138,-5.5964,-5.8407,-6.1025,-6.4845,-6.8307,-6.9593,-7.1475,-7.3187,-7.3769,-7.5321,-7.623,-7.4823,-7.3611,-7.2605,-7.1808,-7.0893,-7.058,-7.0933,-7.0204,-6.9561,-6.9362,-6.7773,-6.6519,-6.6103,-6.5153,-6.4381,0.0,0.0,-6.1516,-6.0509,-5.9761,-5.8912,-5.798,-5.7484,-5.7028,-5.6573,-5.6117,-5.5766,-5.5538,-5.5289,-5.5082,-5.4875,-5.4875,-5.4751,-5.4544,-5.4544,-5.4544,-5.4544,-5.4544,-5.4544,-5.4503,-5.4296,-5.4337,-5.4461,-5.3778,-5.3654,-5.3758,-5.3075,-5.2992,-5.3137,-5.293,-5.3157,-5.3571,-5.3778,-5.4006,-5.4255,-5.4482,-5.4544,-5.4544,-5.4544,-5.4544,-5.4482,-5.4234,-5.384,-5.3592,-5.3799,-5.3675,-5.3654,-5.4089,-5.4379,-5.4461,-5.4234,-5.4027,-5.3654,-5.295,-5.264,-5.2329,-5.1853,-5.1791,-5.1791,-5.1791,-5.1791,-5.1791,-5.1791,-5.1584,-5.1357,-5.1129,-5.0466,-4.997,-4.9849,-4.9307,-4.9059,-4.9059,-4.9059,-4.9059,-4.9059,-4.881,-4.8707,-4.8707,-4.8459,-4.8334,-5.2923,-5.526,-5.863,-6.263,-6.5548,-6.7792,-6.8784,-7.0145,-7.0982,-7.027,-7.2298,-7.3886,-7.2683,-7.1183,-7.0024,-6.9516,-6.859,-6.7954,-6.8064,-6.7562,-6.7081,-6.695,-6.5569,-6.4439,-6.3968,-6.3388,0.0,0.0,0.0,-6.0301,-5.9591,-5.8785,-5.7939,-5.7028,-5.6925,-5.6511,-5.5766,-5.5683,-5.5455,-5.5082,-5.5,-5.4772,-5.442,-5.4337,-5.4399,-5.4544,-5.4544,-5.4544,-5.4544,-5.4544,-5.4482,-5.4379,-5.3985,-5.4027,-5.4213,-5.3364,-5.3302,-5.3489,-5.2661,-5.2619,-5.2888,-5.2495,-5.2681,-5.3157,-5.3592,-5.3778,-5.3944,-5.4399,-5.4544,-5.4544,-5.4544,-5.4544,-5.4524,-5.4441,-5.384,-5.3427,-5.3861,-5.3675,-5.3613,-5.4296,-5.4358,-5.4192,-5.3799,-5.3427,-5.3033,-5.2557,-5.2495,-5.2329,-5.1853,-5.1791,-5.1791,-5.1791,-5.1791,-5.1791,-5.1791,-5.1791,-5.1646,-5.1253,-5.0715,-5.0259,-4.9887,-4.9349,-4.9059,-4.9059,-4.9059,-4.9059,-4.9059,-4.9059,-4.9059,-4.9059,-4.9059,-4.9059,-5.0333,-5.3191,-5.7126,-6.0591,-6.3685,-6.6085,-6.7075,-6.8473,-6.9418,-6.8218,-6.9805,-7.0914,-6.972,-6.8621,-6.7702,-6.7102,-6.6584,-6.6241,-6.6199,-6.5756,-6.5086,-6.4195,-6.3502,-6.2623,-6.1839,-6.1382,0.0,0.0,-5.9865,-5.8932,-5.7667,-5.7442,-5.6987,-5.6076,-5.5662,-5.5393,-5.5269,-5.4896,-5.4689,-5.4627,-5.4213,-5.3985,-5.3923,-5.3551,-5.3799,-5.4544,-5.4544,-5.4544,-5.4544,-5.4544,-5.4296,-5.3944,-5.3767,-5.3654,-5.3302,-5.2785,-5.2619,-5.2599,-5.2081,-5.1936,-5.1978,-5.1915,-5.2205,-5.2661,-5.3137,-5.353,-5.3944,-5.4399,-5.4544,-5.4544,-5.4544,-5.4544,-5.4441,-5.4027,-5.384,-5.3882,-5.4337,-5.4399,-5.4275,-5.3985,-5.3633,-5.3344,-5.3282,-5.322,-5.3033,-5.2557,-5.2495,-5.2329,-5.1853,-5.1791,-5.1791,-5.1791,-5.1791,-5.1791,-5.1791,-5.1791,-5.1771,-5.1708,-5.0901,-5.0404,-5.0342,-4.9514,-4.9059,-4.9059,-4.9059,-4.9059,-4.9059,-4.9059,-4.9059,-4.9059,-4.9059,-4.9059,-5.0589,-5.3067,-5.5974,-5.9094,-6.1576,-6.3774,-6.5262,-6.6299,-6.6842,-6.6223,-6.6441,-6.6809,-6.7213,-6.6408,-6.5654,-6.542,-6.4755,-6.4265,-6.4314,-6.3839,-6.3258,-6.2839,-6.2258,-6.1686,-6.1044,0.0,0.0,0.0,-5.8684,-5.7877,-5.7256,-5.6738,-5.6159,-5.5517,-5.5289,-5.5062,-5.4813,-5.4627,-5.4399,-5.4151,-5.3696,-5.3468,-5.3468,-5.3282,-5.3406,-5.3778,-5.3778,-5.3778,-5.3778,-5.3778,-5.3654,-5.3447,-5.3178,-5.3116,-5.3095,-5.2371,-5.2267,-5.2433,-5.1957,-5.1791,-5.1791,-5.1791,-5.1936,-5.2247,-5.2971,-5.3323,-5.3613,-5.4337,-5.4544,-5.4544,-5.4544,-5.4544,-5.4482,-5.4275,-5.4234,-5.4296,-5.4503,-5.4337,-5.4089,-5.3882,-5.3282,-5.2785,-5.2785,-5.2578,-5.235,-5.2143,-5.2102,-5.204,-5.1833,-5.1791,-5.1791,-5.1791,-5.1791,-5.1791,-5.1791,-5.1791,-5.1791,-5.1791,-5.0943,-5.0425,-5.0425,-4.9535,-4.9059,-4.9059,-4.9059,-4.9059,-4.9059,-4.9059,-4.9059,-4.9059,-4.9059,-4.9059,-5.0716,-5.2686,-5.4655,-5.7322,-5.9497,-6.1466,-6.3122,-6.4101,-6.4461,-6.4271,-6.3699,-6.3556,-6.4579,-6.4061,-6.3615,-6.3712,-6.3051,-6.248,-6.2656,-6.2295,-6.1933,-6.1829,-6.1278,-6.0816,-6.0382,0.0,0.0,0.0,-5.7815,-5.707,-5.6718,-5.6076,-5.5496,-5.5041,-5.502,-5.4813,-5.4358,-5.4255,-5.4006,-5.3675,-5.322,-5.3013,-5.2992,-5.2888,-5.2826,-5.2847,-5.3075,-5.3178,-5.3178,-5.3178,-5.3116,-5.2971,-5.2619,-5.264,-5.2743,-5.206,-5.2019,-5.2267,-5.1915,-5.1791,-5.1791,-5.1791,-5.1791,-5.1978,-5.2909,-5.3178,-5.3364,-5.4275,-5.4544,-5.4544,-5.4544,-5.4544,-5.4544,-5.4544,-5.4544,-5.4544,-5.4544,-5.4172,-5.382,-5.3696,-5.3033,-5.2454,-5.2329,-5.2019,-5.1791,-5.1791,-5.1791,-5.1791,-5.1791,-5.1791,-5.1791,-5.1791,-5.1791,-5.1791,-5.1791,-5.1791,-5.175,-5.1626,-5.0984,-5.0549,-5.0425,-4.9763,-4.9411,-4.9411,-4.9411,-4.9287,-4.9059,-4.9059,-4.9059,-4.9059,-4.9059,-4.9059,-4.9373,-5.0907,-5.2504,-5.4805,-5.7149,-5.9288,-6.0718,-6.1809,-6.2486,-6.2337,-6.2293,-6.2165,-6.1586,-6.1458,-6.1437,-6.1417,-6.1396,-6.1375,-6.1355,-6.1355,-6.1189,-6.0881,-6.034,-5.9885,-5.9409,0.0,0.0,0.0,-5.7277,-5.6656,-5.5352,-5.5248,-5.502,-5.4586,-5.4565,-5.4358,-5.3882,-5.3468,-5.324,-5.322,-5.2743,-5.2536,-5.2516,-5.2081,-5.1874,-5.1915,-5.2806,-5.3178,-5.3178,-5.3178,-5.293,-5.2516,-5.2495,-5.2247,-5.1874,-5.1812,-5.1812,-5.1833,-5.1812,-5.1791,-5.1791,-5.1791,-5.1791,-5.1978,-5.2909,-5.3178,-5.3364,-5.4275,-5.4544,-5.4544,-5.4544,-5.4544,-5.4544,-5.4544,-5.4544,-5.4544,-5.4544,-5.4172,-5.3716,-5.3302,-5.2826,-5.235,-5.1915,-5.1812,-5.1791,-5.1791,-5.1791,-5.1791,-5.1791,-5.1791,-5.1791,-5.1791,-5.1791,-5.1791,-5.1791,-5.1791,-5.1605,-5.117,-5.1108,-5.088,-5.0446,-5.0384,-5.0342,-5.0342,-5.0342,-4.9928,-4.9059,-4.9059,-4.9059,-4.9059,-4.9059,-4.9059,-4.8086,-4.9224,-5.0591,-5.2888,-5.4797,-5.6474,-5.8138,-5.93,-5.9989,-6.024,-6.0573,-6.0592,-6.0092,-6.0278,-6.0485,-6.0485,-5.9968,-5.9595,-5.9595,-5.9595,-5.9533,-5.9367,-5.9202,-5.8933,0.0,0.0,0.0,0.0,0.0,-5.5703,-5.5207,-5.4917,-5.4565,-5.411,-5.4089,-5.3882,-5.3427,-5.2971,-5.2743,-5.2743,-5.2267,-5.204,-5.204,-5.1874,-5.1791,-5.1812,-5.2164,-5.2288,-5.2288,-5.2288,-5.2205,-5.204,-5.204,-5.1957,-5.1791,-5.1791,-5.1791,-5.1791,-5.1791,-5.1791,-5.1791,-5.1791,-5.1791,-5.1978,-5.2909,-5.3178,-5.3364,-5.4275,-5.4544,-5.4544,-5.4544,-5.4544,-5.4544,-5.4544,-5.4544,-5.4544,-5.4544,-5.4172,-5.3716,-5.3261,-5.2806,-5.235,-5.1874,-5.204,-5.2247,-5.2247,-5.2495,-5.2578,-5.2288,-5.2247,-5.2122,-5.1833,-5.1791,-5.1791,-5.1791,-5.1791,-5.1729,-5.1564,-5.1005,-5.0736,-5.086,-5.0301,-5.0135,-5.0404,-5.0425,-5.0259,-4.9928,-4.9928,-4.9928,-4.9928,-4.9928,-4.9928,-4.7258,-4.8127,-4.9266,-5.1108,-5.2723,-5.4234,-5.5745,-5.6925,-5.7815,-5.8291,-5.8871,-5.9202,-5.8891,-5.8953,-5.916,-5.9471,-5.9015,-5.856,-5.8394,-5.8374,-5.8312,-5.8167,-5.8022,-5.7794,0.0,0.0,0.0,0.0,0.0,0.0,-5.4751,-5.4461,-5.4089,-5.3633,-5.3468,-5.3261,-5.295,-5.2495,-5.2267,-5.2247,-5.1957,-5.1791,-5.1791,-5.1791,-5.1791,-5.1791,-5.1791,-5.1791,-5.1791,-5.1791,-5.1791,-5.1791,-5.1791,-5.1791,-5.1791,-5.1791,-5.1791,-5.1791,-5.1791,-5.1791,-5.1791,-5.1791,-5.1791,-5.1978,-5.2909,-5.3178,-5.3364,-5.4275,-5.4544,-5.4544,-5.4544,-5.4544,-5.4544,-5.4544,-5.4544,-5.4544,-5.4544,-5.4296,-5.3903,-5.3302,-5.293,-5.2578,-5.2122,-5.2288,-5.2536,-5.2702,-5.2992,-5.3013,-5.2557,-5.2495,-5.2309,-5.1853,-5.1791,-5.1791,-5.1791,-5.1791,-5.1729,-5.1584,-5.1129,-5.0963,-5.1108,-5.0673,-5.0591,-5.088,-5.088,-5.088,-5.088,-5.057,-5.0425,-5.0425,-5.0425,-5.0425,0.0,0.0,0.0,-4.9494,-5.1087,-5.2661,-5.3551,-5.4813,-5.591,-5.6366,-5.7194,-5.7815,-5.7836,-5.7484,-5.7484,-5.8374,-5.8519,-5.8374,-5.7918,-5.7856,-5.7691,-5.7235,-5.6801,0.0,0.0,0.0,0.0,0.0,-5.5145,-5.4751,-5.3882,-5.382,-5.3613,-5.3178,-5.2702,-5.2474,-5.2474,-5.2019,-5.1791,-5.1791,-5.1791,-5.1791,-5.1791,-5.1791,-5.1791,-5.1791,-5.1791,-5.1791,-5.1791,-5.1791,-5.1791,-5.1791,-5.1791,-5.1791,-5.1791,-5.1791,-5.1791,-5.1791,-5.1791,-5.1791,-5.1791,-5.1791,-5.1791,-5.1978,-5.2909,-5.3178,-5.3364,-5.4275,-5.4544,-5.4544,-5.4544,-5.4544,-5.4544,-5.4544,-5.4544,-5.4544,-5.4544,-5.4544,-5.4275,-5.3364,-5.3199,-5.3054,-5.2578,-5.2516,-5.2681,-5.3137,-5.322,-5.3054,-5.2578,-5.2516,-5.2329,-5.1853,-5.1791,-5.1791,-5.1791,-5.1791,-5.1605,-5.117,-5.1543,-5.1584,-5.115,-5.1543,-5.1791,-5.1791,-5.1791,-5.1791,-5.1791,-5.0901,-5.0466,-5.0466,-5.0466,-5.0466,-4.701,0.0,0.0,0.0,0.0,0.0,-5.1667,-5.2681,-5.3551,-5.4027,-5.4834,-5.5559,-5.589,-5.6117,-5.6324,-5.6594,-5.6635,-5.6594,-5.6449,-5.6428,-5.6387,-5.6262,-5.6138,0.0,0.0,0.0,0.0,0.0,-5.4213,-5.3965,-5.3406,-5.3054,-5.2806,-5.2681,-5.2226,-5.1998,-5.1998,-5.1853,-5.1791,-5.1791,-5.1791,-5.1791,-5.1791,-5.1791,-5.1791,-5.1791,-5.1791,-5.1791,-5.1791,-5.1791,-5.1791,-5.1791,-5.1791,-5.1791,-5.1791,-5.1791,-5.1791,-5.1791,-5.1791,-5.1791,-5.1791,-5.1791,-5.1791,-5.1978,-5.2909,-5.3178,-5.3364,-5.4275,-5.4544,-5.4544,-5.4544,-5.4544,-5.4544,-5.4544,-5.4544,-5.4544,-5.4544,-5.4544,-5.4275,-5.3364,-5.3447,-5.3406,-5.2619,-5.3033,-5.3509,-5.3633,-5.3944,-5.3882,-5.3095,-5.2992,-5.2681,-5.1895,-5.1791,-5.1791,-5.1791,-5.1791,-5.175,-5.1626,-5.1419,-5.1398,-5.1605,-5.1419,-5.146,-5.1791,-5.1791,-5.1791,-5.1791,-5.1543,-5.1419,-5.1419,-5.1419,-5.1419,-4.6803,-4.6803,-4.7279,-4.8252,0.0,0.0,-5.0384,-5.1108,-5.1708,-5.1978,-5.2909,-5.3696,-5.3758,-5.4317,-5.4751,-5.4751,-5.4586,-5.4731,-5.5476,-5.5579,-5.5517,-5.5331,0.0,0.0,0.0,-5.4461,-5.413,-5.3613,-5.3571,-5.3364,-5.2909,-5.2454,-5.2205,-5.2205,-5.1936,-5.1791,-5.1791,-5.1791,-5.1791,-5.1791,-5.1791,-5.1791,-5.1791,-5.1791,-5.1791,-5.1791,-5.1791,-5.1791,-5.1791,-5.1791,-5.1791,-5.1791,-5.1791,-5.1791,-5.1791,-5.1791,-5.1791,-5.1791,-5.1791,-5.1791,-5.1791,-5.1791,-5.1936,-5.2226,-5.2971,-5.3302,-5.3613,-5.4337,-5.4544,-5.4544,-5.4544,-5.4544,-5.4544,-5.4544,-5.4544,-5.4544,-5.4544,-5.4544,-5.4317,-5.3613,-5.3675,-5.3675,-5.3157,-5.3489,-5.3903,-5.411,-5.4358,-5.4213,-5.3302,-5.3344,-5.3095,-5.2185,-5.2267,-5.2371,-5.2371,-5.2371,-5.2288,-5.2102,-5.1833,-5.1729,-5.1791,-5.1543,-5.1522,-5.1791,-5.1791,-5.1791,-5.1791,-5.1791,-5.1791,-5.1791,-5.1791,-5.1791,-4.6616,-4.6803,-4.7217,-4.7651,-4.8376,0.0,-4.9663,-4.999,-5.028,-5.0342,-5.1336,-5.2102,-5.1791,-5.2392,-5.2971,-5.3013,-5.2681,-5.3013,-5.4731,-5.4958,-5.4813,-5.4441,0.0,0.0,-5.3778,-5.3406,-5.3157,-5.3116,-5.3054,-5.2847,-5.2433,-5.2019,-5.1791,-5.1791,-5.1791,-5.1791,-5.1791,-5.1791,-5.1791,-5.1791,-5.1791,-5.1791,-5.1791,-5.1791,-5.1791,-5.1791,-5.1791,-5.1791,-5.1791,-5.1791,-5.1791,-5.1791,-5.1791,-5.1791,-5.1791,-5.1791,-5.1791,-5.1791,-5.1791,-5.1791,-5.1791,-5.1791,-5.2122,-5.2578,-5.3054,-5.3489,-5.3944,-5.4399,-5.4544,-5.4544,-5.4544,-5.4544,-5.4544,-5.4544,-5.4544,-5.4544,-5.4544,-5.4544,-5.442,-5.4006,-5.3923,-5.3808,-5.3861,-5.3788,-5.4068,-5.4482,-5.4544,-5.4234,-5.3364,-5.3592,-5.353,-5.2661,-5.293,-5.3178,-5.3178,-5.3178,-5.3013,-5.2599,-5.2516,-5.2309,-5.1895,-5.1833,-5.1791,-5.1791,-5.1791,-5.1791,-5.1791,-5.1791,-5.1791,-5.1791,-5.1791,-5.1791,-4.7548,-4.7486,-4.7672,-4.8127,-4.8376,0.0,-4.91,-4.9266,-4.9431,-4.9804,-5.0094,-5.0487,-5.1129,-5.1398,-5.1646,-5.1998,-5.1998,-5.2329,-5.3427,-5.3571,-5.3551,-5.3447,0.0,0.0,-5.3302,-5.324,-5.3033,-5.2661,-5.2288,-5.204,-5.1936,-5.1853,-5.1791,-5.1791,-5.1791,-5.1791,-5.1791,-5.1791,-5.1791,-5.1791,-5.1791,-5.1791,-5.1791,-5.1791,-5.1791,-5.1791,-5.1791,-5.1791,-5.1791,-5.1791,-5.1791,-5.1791,-5.1791,-5.1791,-5.1791,-5.1791,-5.1791,-5.1791,-5.1791,-5.1791,-5.1791,-5.1791,-5.2122,-5.2578,-5.3054,-5.3489,-5.3944,-5.4399,-5.4544,-5.4544,-5.4544,-5.4544,-5.4544,-5.4544,-5.4544,-5.4544,-5.4544,-5.4544,-5.4503,-5.442,-5.4399,-5.4275,-5.3903,-5.4151,-5.442,-5.4524,-5.4544,-5.4337,-5.3778,-5.3799,-5.3633,-5.3116,-5.3137,-5.3178,-5.3178,-5.3178,-5.3137,-5.3054,-5.2702,-5.2454,-5.2371,-5.1998,-5.1791,-5.1791,-5.1791,-5.1791,-5.1791,-5.1791,-5.1791,-5.1791,-5.1791,-5.1791,-4.7879,-4.7693,0.0,-4.8252,0.0,0.0,0.0,-4.8893,-4.879,-4.9017,-4.9245,-4.9473,-4.9701,-5.0135,-5.0508,-5.0736,-5.0591,-5.0756,-5.1688,-5.2205,-5.2495,-5.2495,0.0,0.0,-5.2143,-5.1936,-5.1708,-5.1481,-5.146,-5.146,-5.146,-5.1667,-5.1791,-5.1791,-5.1791,-5.1791,-5.1791,-5.1791,-5.1791,-5.1791,-5.1791,-5.1791,-5.1791,-5.1791,-5.1791,-5.1791,-5.1791,-5.1791,-5.1791,-5.1791,-5.1791,-5.1791,-5.1791,-5.1791,-5.1791,-5.1791,-5.1791,-5.1791,-5.1791,-5.1791,-5.1791,-5.1791,-5.2267,-5.2888,-5.3116,-5.3654,-5.4234,-5.4482,-5.4544,-5.4544,-5.4544,-5.4544,-5.4544,-5.4544,-5.4544,-5.4544,-5.4544,-5.4544,-5.4544,-5.4544,-5.4544,-5.4461,-5.4234,-5.4379,-5.4544,-5.4544,-5.4544,-5.4358,-5.3903,-5.4048,-5.4027,-5.3571,-5.3716,-5.3861,-5.3861,-5.3861,-5.3758,-5.353,-5.3302,-5.2971,-5.2516,-5.2267,-5.204,-5.1812,-5.1791,-5.1791,-5.1791,-5.1791,-5.1791,-5.1791,-5.1791,-5.1791,0.0,0.0,0.0,0.0,0.0,-4.8603,0.0,0.0,0.0,-4.85,-4.881,-4.8955,-4.8583,0.0,0.0,0.0,0.0,0.0,0.0,-5.0798,0.0,-5.1398,0.0,0.0,-5.086,-5.0591,-5.0466,-5.0549,-5.0818,-5.1046,-5.1232,-5.1522,-5.1708,-5.1791,-5.1791,-5.1791,-5.1791,-5.1791,-5.1791,-5.1791,-5.1791,-5.1791,-5.1791,-5.1791,-5.1791,-5.1791,-5.1791,-5.1791,-5.1791,-5.1791,-5.1791,-5.1791,-5.1791,-5.1791,-5.1791,-5.1791,-5.1791,-5.1791,-5.1791,-5.1791,-5.1791,-5.1791,-5.2433,-5.322,-5.3385,-5.3965,-5.4544,-5.4544,-5.4544,-5.4544,-5.4544,-5.4544,-5.4544,-5.4544,-5.4544,-5.4544,-5.4544,-5.4544,-5.4544,-5.4544,-5.4544,-5.4544,-5.4544,-5.4544,-5.4544,-5.4544,-5.4544,-5.4399,-5.4027,-5.4296,-5.4399,-5.4027,-5.4317,-5.4544,-5.4544,-5.4544,-5.4379,-5.4006,-5.3903,-5.3509,-5.2785,-5.2578,-5.2309,-5.1936,-5.1936,-5.1978,-5.206,-5.1978,-5.1895,-5.1791,-5.1791,-5.1791,0.0,0.0,0.0,0.0,-4.8997,0.0,0.0,0.0,-4.8997,-4.8997,0.0,0.0,0.0,0.0,0.0,0.0,0.0,0.0,-4.9204,-4.9307,-4.9535,-4.9949,0.0,0.0,0.0,-5.0218,-5.0591,-5.1005,-5.0694,-5.086,-5.1688,-5.1377,-5.1377,-5.1791,-5.1791,-5.1791,-5.1791,-5.1791,-5.1791,-5.1791,-5.1791,-5.1791,-5.1791,-5.1791,-5.1791,-5.1791,-5.1791,-5.1791,-5.1791,-5.1791,-5.1791,-5.1791,-5.1791,-5.1791,-5.1791,-5.1791,-5.1791,-5.1791,-5.1791,-5.1791,-5.1791,-5.1791,-5.2433,-5.3323,-5.413,-5.4461,-5.4544,-5.4544,-5.4544,-5.4544,-5.4544,-5.4544,-5.4544,-5.4544,-5.4544,-5.4544,-5.4544,-5.4544,-5.4544,-5.4544,-5.4544,-5.4544,-5.4544,-5.4544,-5.4544,-5.4544,-5.4544,-5.4524,-5.4461,-5.4503,-5.4524,-5.4461,-5.4503,-5.4544,-5.4544,-5.4544,-5.4503,-5.4461,-5.4068,-5.3799,-5.3696,-5.2909,-5.2474,-5.2412,-5.2412,-5.2619,-5.3033,-5.2619,-5.2205,-5.1791,-5.1791,-5.1791,0.0,0.0,0.0,0.0,0.0,0.0,-4.9121,0.0,-4.9059,0.0,0.0,0.0,0.0,0.0,0.0,0.0,-4.8603,0.0,0.0,0.0,-4.8252,0.0,0.0,0.0,0.0,0.0,0.0,0.0,-4.999,-5.0197,-5.0591,-5.0922,-5.1191,-5.1398,-5.1667,-5.1791,-5.1791,-5.1791,-5.1791,-5.1791,-5.1791,-5.1791,-5.1791,-5.1791,-5.1791,-5.1791,-5.1791,-5.1791,-5.1791,-5.1791,-5.1791,-5.1791,-5.1791,-5.1791,-5.1791,-5.1791,-5.1791,-5.1791,-5.1791,-5.1791,-5.1853,-5.2122,-5.264,-5.3302,-5.3944,-5.4317,-5.4544,-5.4544,-5.4544,-5.4544,-5.4544,-5.4544,-5.4544,-5.4544,-5.4544,-5.4544,-5.4544,-5.4544,-5.4544,-5.4544,-5.4544,-5.4544,-5.4544,-5.4544,-5.4544,-5.4544,-5.4544,-5.4544,-5.4544,-5.4544,-5.4544,-5.4544,-5.4544,-5.4544,-5.4544,-5.4544,-5.4544,-5.4544,-5.411,-5.384,-5.384,-5.322,-5.2888,-5.2888,-5.2888,-5.2992,-5.3178,-5.2723,-5.2392,-5.2205,-5.1936,-5.1791,-5.204,0.0,0.0,0.0,0.0,0.0,0.0,0.0,0.0,0.0,0.0,0.0,0.0,0.0,-4.9017,-4.8893,0.0,-4.7941,0.0,-4.7631,0.0,0.0,0.0,0.0,0.0,0.0,0.0,0.0,0.0,-4.9535,-4.9908,-5.0322,-5.0653,-5.0922,-5.1377,-5.1605,-5.1605,-5.1729,-5.1791,-5.1791,-5.1791,-5.1791,-5.1791,-5.1791,-5.1791,-5.1791,-5.1791,-5.1791,-5.1791,-5.1791,-5.1791,-5.1791,-5.1791,-5.1791,-5.1791,-5.1791,-5.1791,-5.1791,-5.1791,-5.1791,-5.1874,-5.235,-5.2723,-5.3095,-5.3675,-5.4089,-5.4379,-5.4503,-5.4544,-5.4544,-5.4544,-5.4544,-5.4544,-5.4544,-5.4544,-5.4544,-5.4544,-5.4544,-5.4544,-5.4544,-5.4544,-5.4544,-5.4544,-5.4544,-5.4544,-5.4544,-5.4544,-5.4544,-5.4544,-5.4544,-5.4544,-5.4544,-5.4544,-5.4544,-5.4544,-5.4544,-5.4544,-5.4544,-5.4213,-5.3985,-5.3861,-5.353,-5.3364,-5.3364,-5.3364,-5.3427,-5.3551,-5.3095,-5.2806,-5.2661,-5.2081,-5.1791,0.0,0.0,0.0,-5.1729,0.0,0.0,0.0,0.0,-4.9684,0.0,0.0,0.0,0.0,0.0,-4.8914,-4.8479,-4.8376,0.0,0.0,0.0,0.0,0.0,0.0,0.0,0.0,0.0,0.0,0.0,0.0,0.0,-5.0322,-4.9597,-4.9535,-5.0425,-5.0901,-5.1129,-5.1129,-5.1584,-5.1791,-5.1791,-5.1791,-5.1791,-5.1791,-5.1791,-5.1791,-5.1791,-5.1791,-5.1791,-5.1791,-5.1791,-5.1791,-5.1791,-5.1791,-5.1791,-5.1791,-5.1791,-5.1791,-5.1791,-5.1791,-5.1791,-5.1874,-5.235,-5.2495,-5.2681,-5.3571,-5.3767,-5.3965,-5.442,-5.4544,-5.4544,-5.4544,-5.4544,-5.4544,-5.4544,-5.4544,-5.4544,-5.4544,-5.4544,-5.4544,-5.4544,-5.4544,-5.4544,-5.4544,-5.4544,-5.4544,-5.4544,-5.4544,-5.4544,-5.4544,-5.4544,-5.4544,-5.4544,-5.4544,-5.4544,-5.4544,-5.4544,-5.4544,-5.4544,-5.4524,-5.4317,-5.3861,-5.384,-5.382,-5.382,-5.382,-5.4048,-5.4503,-5.4027,-5.3571,-5.3137,-5.2226,-5.1791,0.0,0.0,-5.3095,-5.2785,0.0,0.0,0.0,0.0,0.0,0.0,0.0,0.0,0.0,0.0,-4.9266,-4.85,-4.8127,-4.7755,0.0,0.0,0.0,0.0,0.0,0.0,0.0,0.0,0.0,0.0,-4.8293,0.0,0.0,-4.9183,-4.9514,-4.9514,-5.0549,-5.1108,-5.1108,-5.1564,-5.1791,-5.1791,-5.1791,-5.1791,-5.1791,-5.1791,-5.1791,-5.1791,-5.1791,-5.1791,-5.1791,-5.1791,-5.1791,-5.1791,-5.1791,-5.1791,-5.1791,-5.1791,-5.1791,-5.1791,-5.1791,-5.1791,-5.1833,-5.1978,-5.2454,-5.3013,-5.3302,-5.382,-5.4337,-5.4503,-5.4544,-5.4544,-5.4544,-5.4544,-5.4544,-5.4544,-5.4544,-5.4544,-5.4544,-5.4544,-5.4544,-5.4544,-5.4544,-5.4544,-5.4544,-5.4544,-5.4544,-5.4544,-5.4544,-5.4544,-5.4544,-5.4544,-5.4544,-5.4544,-5.4544,-5.4544,-5.4544,-5.4544,-5.4544,-5.4544,-5.4544,-5.4461,-5.4317,-5.4296,-5.4296,-5.4296,-5.4296,-5.4379,-5.4544,-5.4068,-5.3758,-5.3613,-5.2992,-5.2392,-5.6511,-5.5621,0.0,-5.4461,-5.3571,0.0,-5.1998,0.0,0.0,0.0,0.0,0.0,0.0,0.0,-4.939,-4.8314,-4.7879,-4.7465,0.0,-4.6452,0.0,0.0,0.0,0.0,0.0,0.0,0.0,-4.7444,-4.7734,-4.7838,0.0,0.0,-4.8955,-4.8831,-5.0156,-5.086,-5.086,-5.1481,-5.1791,-5.1791,-5.1791,-5.1791,-5.1791,-5.1791,-5.1791,-5.1791,-5.1791,-5.1791,-5.1791,-5.1791,-5.1791,-5.1791,-5.1791,-5.1791,-5.1791,-5.1791,-5.1791,-5.1791,-5.1791,-5.1915,-5.204,-5.204,-5.2557,-5.322,-5.3364,-5.382,-5.4317,-5.4482,-5.4544,-5.4544,-5.4544,-5.4544,-5.4544,-5.4544,-5.4544,-5.4544,-5.4544,-5.4544,-5.4544,-5.4544,-5.4544,-5.4544,-5.4544,-5.4544,-5.4544,-5.4544,-5.4544,-5.4544,-5.4544,-5.4544,-5.4544,-5.4544,-5.4544,-5.4544,-5.4544,-5.4544,-5.4544,-5.4544,-5.4544,-5.4544,-5.4544,-5.4689,-5.4689,-5.4544,-5.4689,-5.4689,-5.4544,-5.4068,-5.384,-5.384,-5.3385,-5.2868]},{"header":{"parameterUnit":"m.s-1","parameterCategory":1,"la1":30.6,"la2":29.2853,"lo1":-89.7004,"lo2":-87.6739,"dy":0.0162,"dx":0.0183,"nx":112,"ny":82,"refTime":"2024-04-26T00:00:00:Z","depth":0,"parameterNumber":3,"parameterNumberName":"V-component_of_WINDS"},"data":[0.0,0.0,0.0,0.0,0.0,0.0,0.0,0.0,0.0,0.0,0.0,0.0,0.0,0.0,0.0,0.0,0.0,0.0,0.0,0.0,0.0,0.0,0.0,0.0,0.0,0.0,0.0,0.0,0.0,0.0,0.0,0.0,0.0,0.0,0.0,0.0,0.0,0.0,0.0,0.0,0.0,0.0,0.0,0.0,0.0,0.0,0.0,0.0,0.0,0.0,0.0,0.0,0.0,0.0,0.0,0.0,0.0,0.0,0.0,0.0,0.0,0.0,0.0,0.0,0.0,0.0,0.0,0.0,0.0,0.0,0.0,0.0,0.0,0.0,0.0,0.0,0.0,0.0,0.0,0.0,0.0,0.0,0.0,0.0,0.0,0.0,0.0,0.0,0.0,0.0,4.0321,4.244,4.3718,4.4589,4.4995,4.3354,4.1517,3.9797,0.0,0.0,0.0,0.0,0.0,0.0,0.0,0.0,0.0,0.0,0.0,0.0,0.0,0.0,0.0,0.0,0.0,0.0,0.0,0.0,0.0,0.0,0.0,0.0,0.0,0.0,0.0,0.0,0.0,0.0,0.0,0.0,0.0,0.0,0.0,0.0,0.0,0.0,0.0,0.0,0.0,0.0,0.0,0.0,0.0,0.0,0.0,0.0,0.0,0.0,0.0,0.0,0.0,0.0,0.0,0.0,0.0,0.0,0.0,0.0,0.0,0.0,0.0,0.0,0.0,0.0,0.0,0.0,0.0,0.0,0.0,0.0,0.0,0.0,0.0,0.0,0.0,0.0,0.0,0.0,0.0,0.0,0.0,0.0,0.0,0.0,0.0,0.0,0.0,0.0,0.0,0.0,0.0,0.0,0.0,0.0,0.0,0.0,0.0,0.0,0.0,0.0,0.0,0.0,4.1976,4.4995,4.5953,4.6214,4.5779,4.4151,4.2363,4.0626,0.0,0.0,0.0,0.0,0.0,0.0,0.0,0.0,0.0,0.0,0.0,0.0,0.0,0.0,0.0,0.0,0.0,0.0,0.0,0.0,0.0,0.0,0.0,0.0,0.0,0.0,0.0,0.0,0.0,0.0,0.0,0.0,0.0,0.0,0.0,0.0,0.0,0.0,0.0,0.0,0.0,0.0,0.0,0.0,0.0,0.0,0.0,0.0,0.0,0.0,0.0,0.0,0.0,0.0,0.0,0.0,0.0,0.0,0.0,0.0,0.0,0.0,0.0,0.0,0.0,0.0,0.0,0.0,0.0,0.0,0.0,0.0,0.0,0.0,0.0,0.0,0.0,0.0,0.0,0.0,0.0,0.0,0.0,0.0,0.0,0.0,0.0,0.0,0.0,0.0,0.0,0.0,0.0,0.0,0.0,0.0,0.0,0.0,0.0,0.0,0.0,0.0,0.0,4.1744,4.3979,4.6156,4.665,4.6592,4.5924,4.4661,4.2931,4.0812,3.9047,0.0,0.0,0.0,0.0,0.0,0.0,0.0,0.0,0.0,0.0,0.0,0.0,0.0,0.0,0.0,0.0,0.0,0.0,0.0,0.0,0.0,0.0,0.0,0.0,0.0,0.0,0.0,0.0,0.0,0.0,0.0,0.0,0.0,0.0,0.0,0.0,0.0,0.0,0.0,0.0,0.0,0.0,0.0,0.0,0.0,0.0,0.0,0.0,0.0,0.0,0.0,0.0,0.0,0.0,0.0,0.0,0.0,0.0,0.0,0.0,0.0,0.0,0.0,0.0,0.0,0.0,0.0,0.0,0.0,0.0,0.0,0.0,0.0,0.0,0.0,0.0,0.0,0.0,0.0,0.0,0.0,0.0,0.0,0.0,0.0,0.0,0.0,0.0,0.0,0.0,0.0,0.0,0.0,0.0,0.0,0.0,0.0,0.0,0.0,0.0,0.0,0.0,4.3544,4.5605,4.6911,4.7056,4.6795,4.6247,4.5098,4.3436,4.1155,3.9847,0.0,0.0,0.0,0.0,0.0,0.0,0.0,0.0,0.0,0.0,0.0,0.0,0.0,0.0,0.0,0.0,0.0,0.0,0.0,0.0,0.0,0.0,0.0,0.0,0.0,0.0,0.0,0.0,0.0,0.0,0.0,0.0,0.0,0.0,0.0,0.0,0.0,0.0,0.0,0.0,0.0,0.0,0.0,0.0,0.0,0.0,0.0,0.0,0.0,0.0,0.0,0.0,0.0,0.0,0.0,0.0,0.0,0.0,0.0,0.0,0.0,0.0,0.0,0.0,0.0,0.0,0.0,0.0,0.0,0.0,0.0,0.0,0.0,0.0,0.0,0.0,0.0,0.0,0.0,0.0,0.0,0.0,0.0,0.0,0.0,0.0,0.0,0.0,0.0,0.0,0.0,0.0,0.0,0.0,0.0,0.0,0.0,0.0,0.0,0.0,0.0,0.0,4.424,4.6301,4.7579,4.7724,4.7556,4.7144,4.5551,4.382,4.2001,4.0301,0.0,0.0,0.0,0.0,0.0,0.0,0.0,0.0,0.0,0.0,0.0,0.0,0.0,0.0,0.0,0.0,0.0,0.0,0.0,0.0,0.0,0.0,0.0,0.0,0.0,0.0,0.0,0.0,0.0,0.0,0.0,0.0,0.0,0.0,0.0,0.0,0.0,0.0,0.0,0.0,0.0,0.0,0.0,0.0,0.0,0.0,0.0,0.0,0.0,0.0,0.0,0.0,0.0,0.0,0.0,0.0,0.0,0.0,0.0,0.0,0.0,0.0,0.0,0.0,0.0,0.0,0.0,0.0,0.0,0.0,0.0,0.0,0.0,0.0,0.0,0.0,0.0,0.0,0.0,0.0,0.0,0.0,0.0,0.0,0.0,0.0,0.0,0.0,0.0,0.0,0.0,0.0,0.0,0.0,0.0,0.0,0.0,0.0,0.0,0.0,0.0,0.0,4.4182,4.575,4.7056,4.7201,4.6858,4.6034,4.511,4.3714,4.1576,0.0,0.0,0.0,0.0,0.0,0.0,0.0,0.0,0.0,0.0,0.0,0.0,0.0,0.0,0.0,0.0,0.0,0.0,0.0,0.0,0.0,0.0,0.0,0.0,0.0,0.0,0.0,0.0,0.0,0.0,0.0,0.0,0.0,0.0,0.0,0.0,0.0,0.0,0.0,0.0,0.0,0.0,0.0,0.0,0.0,0.0,0.0,0.0,0.0,0.0,0.0,0.0,0.0,0.0,0.0,0.0,0.0,0.0,0.0,0.0,0.0,0.0,0.0,0.0,0.0,0.0,0.0,0.0,0.0,0.0,0.0,0.0,0.0,0.0,0.0,0.0,0.0,0.0,0.0,0.0,0.0,0.0,0.0,0.0,0.0,0.0,0.0,0.0,0.0,0.0,0.0,0.0,0.0,0.0,0.0,0.0,0.0,0.0,0.0,0.0,0.0,0.0,4.2731,4.4095,4.5372,0.0,4.6778,4.6392,4.542,4.4859,4.3637,4.1335,0.0,0.0,0.0,0.0,0.0,0.0,0.0,0.0,0.0,0.0,0.0,0.0,0.0,0.0,0.0,0.0,0.0,0.0,0.0,0.0,0.0,0.0,0.0,0.0,0.0,0.0,0.0,0.0,0.0,0.0,0.0,0.0,0.0,0.0,0.0,0.0,0.0,0.0,0.0,0.0,0.0,0.0,0.0,0.0,0.0,0.0,0.0,0.0,0.0,0.0,0.0,0.0,0.0,0.0,0.0,0.0,0.0,0.0,0.0,0.0,0.0,0.0,0.0,0.0,0.0,0.0,0.0,0.0,0.0,0.0,0.0,0.0,0.0,0.0,0.0,0.0,0.0,0.0,0.0,0.0,0.0,0.0,0.0,0.0,0.0,0.0,0.0,0.0,0.0,0.0,0.0,0.0,0.0,0.0,0.0,0.0,0.0,0.0,0.0,0.0,0.0,0.0,4.276,4.4095,4.5372,4.6633,4.6778,4.6483,4.5638,4.5017,4.3678,0.0,0.0,0.0,0.0,0.0,0.0,0.0,0.0,0.0,0.0,0.0,0.0,0.0,0.0,0.0,0.0,0.0,0.0,0.0,0.0,0.0,0.0,0.0,0.0,0.0,0.0,0.0,0.0,0.0,0.0,0.0,0.0,0.0,0.0,0.0,0.0,0.0,0.0,0.0,0.0,0.0,0.0,0.0,0.0,0.0,0.0,0.0,0.0,0.0,0.0,0.0,0.0,0.0,0.0,0.0,0.0,0.0,0.0,0.0,0.0,0.0,0.0,0.0,0.0,0.0,0.0,0.0,0.0,0.0,0.0,0.0,0.0,0.0,0.0,0.0,0.0,0.0,0.0,0.0,0.0,0.0,0.0,0.0,0.0,0.0,0.0,0.0,0.0,0.0,0.0,0.0,0.0,0.0,0.0,0.0,0.0,0.0,0.0,0.0,0.0,0.0,0.0,0.0,4.3456,4.4037,4.4734,4.604,4.6156,4.6016,4.5608,4.5017,4.3885,4.2192,0.0,0.0,0.0,0.0,0.0,0.0,0.0,0.0,0.0,0.0,0.0,0.0,0.0,0.0,0.0,0.0,0.0,0.0,0.0,0.0,0.0,0.0,0.0,0.0,0.0,0.0,0.0,0.0,0.0,0.0,0.0,0.0,0.0,0.0,0.0,0.0,0.0,0.0,0.0,0.0,0.0,0.0,0.0,0.0,0.0,0.0,0.0,0.0,0.0,0.0,0.0,0.0,0.0,0.0,0.0,0.0,0.0,0.0,0.0,0.0,0.0,0.0,0.0,0.0,0.0,0.0,0.0,0.0,0.0,0.0,0.0,0.0,0.0,0.0,0.0,0.0,0.0,0.0,0.0,0.0,0.0,0.0,0.0,0.0,0.0,0.0,0.0,0.0,0.0,0.0,0.0,0.0,0.0,0.0,0.0,0.0,0.0,0.0,0.0,0.0,0.0,0.0,4.3776,4.4211,4.4734,4.5779,4.5956,4.5917,4.5652,4.5102,4.4187,4.2851,0.0,0.0,0.0,0.0,0.0,0.0,0.0,0.0,0.0,0.0,0.0,0.0,0.0,0.0,0.0,0.0,0.0,0.0,0.0,0.0,0.0,0.0,0.0,0.0,0.0,0.0,0.0,0.0,0.0,0.0,0.0,0.0,0.0,0.0,0.0,0.0,0.0,0.0,0.0,0.0,0.0,0.0,0.0,0.0,0.0,0.0,0.0,0.0,0.0,0.0,0.0,0.0,0.0,0.0,0.0,0.0,0.0,0.0,0.0,0.0,0.0,0.0,0.0,0.0,0.0,0.0,0.0,0.0,0.0,0.0,0.0,0.0,0.0,0.0,0.0,0.0,0.0,0.0,0.0,0.0,0.0,0.0,0.0,0.0,0.0,0.0,0.0,0.0,0.0,0.0,0.0,0.0,0.0,0.0,0.0,0.0,0.0,0.0,0.0,0.0,0.0,0.0,4.3834,4.4531,4.5214,4.594,4.612,4.6108,4.5843,4.5378,4.4608,4.3469,0.0,0.0,0.0,0.0,0.0,0.0,0.0,0.0,0.0,0.0,0.0,0.0,0.0,0.0,0.0,0.0,0.0,0.0,0.0,0.0,0.0,0.0,0.0,0.0,0.0,0.0,0.0,0.0,0.0,0.0,0.0,0.0,0.0,0.0,0.0,0.0,0.0,0.0,0.0,0.0,0.0,0.0,0.0,0.0,0.0,0.0,0.0,0.0,0.0,0.0,0.0,0.0,0.0,0.0,0.0,0.0,0.0,0.0,0.0,0.0,5.6113,0.0,0.0,0.0,0.0,0.0,0.0,0.0,0.0,0.0,0.0,0.0,0.0,0.0,0.0,0.0,0.0,0.0,0.0,0.0,0.0,0.0,0.0,0.0,0.0,0.0,0.0,0.0,0.0,0.0,0.0,0.0,0.0,0.0,0.0,0.0,0.0,0.0,0.0,0.0,0.0,0.0,4.3892,4.4531,4.5403,4.6748,4.6472,4.6549,4.7333,4.6383,4.5293,4.4157,4.3319,0.0,0.0,0.0,0.0,0.0,0.0,0.0,0.0,0.0,0.0,0.0,0.0,0.0,0.0,0.0,0.0,0.0,0.0,0.0,0.0,0.0,0.0,0.0,0.0,0.0,0.0,0.0,0.0,0.0,0.0,0.0,0.0,0.0,0.0,0.0,0.0,0.0,0.0,0.0,0.0,0.0,0.0,0.0,0.0,0.0,0.0,0.0,0.0,0.0,0.0,0.0,0.0,0.0,0.0,0.0,0.0,0.0,0.0,0.0,0.0,5.7623,0.0,0.0,0.0,0.0,0.0,0.0,0.0,0.0,0.0,0.0,0.0,0.0,0.0,0.0,0.0,0.0,0.0,0.0,0.0,0.0,0.0,0.0,0.0,0.0,0.0,0.0,0.0,0.0,0.0,0.0,0.0,0.0,0.0,0.0,0.0,0.0,0.0,0.0,0.0,0.0,4.4327,4.536,4.6295,4.7102,4.7388,4.7583,4.7882,4.7108,4.6105,4.4885,4.3828,0.0,0.0,0.0,0.0,0.0,0.0,0.0,0.0,0.0,0.0,0.0,0.0,0.0,0.0,0.0,0.0,0.0,0.0,0.0,0.0,0.0,0.0,0.0,0.0,0.0,0.0,0.0,0.0,0.0,0.0,0.0,0.0,0.0,0.0,0.0,0.0,0.0,0.0,0.0,0.0,0.0,0.0,0.0,0.0,0.0,0.0,0.0,0.0,0.0,0.0,0.0,0.0,0.0,6.9641,7.0541,7.1295,7.1818,7.1992,7.1586,6.6302,6.308,6.1367,5.9335,0.0,0.0,0.0,0.0,0.0,0.0,0.0,0.0,0.0,0.0,0.0,0.0,0.0,0.0,0.0,0.0,0.0,0.0,0.0,0.0,0.0,0.0,0.0,0.0,5.083,4.9872,0.0,0.0,0.0,0.0,0.0,0.0,0.0,0.0,0.0,0.0,0.0,0.0,4.4995,4.6324,4.7294,4.7574,4.8397,4.8699,4.8209,4.7716,4.686,4.5394,4.4287,4.303,0.0,0.0,0.0,0.0,0.0,0.0,0.0,0.0,0.0,0.0,0.0,0.0,0.0,0.0,0.0,0.0,0.0,0.0,0.0,0.0,0.0,0.0,0.0,0.0,0.0,0.0,0.0,0.0,0.0,0.0,0.0,0.0,5.9161,5.8726,0.0,0.0,0.0,0.0,0.0,0.0,0.0,0.0,0.0,0.0,0.0,0.0,0.0,6.8596,7.0512,7.1818,7.3385,7.5288,7.5359,7.6085,7.7275,7.7362,7.7072,7.6491,7.565,0.0,6.668,6.4183,0.0,0.0,0.0,0.0,0.0,0.0,0.0,0.0,0.0,0.0,0.0,0.0,0.0,0.0,0.0,0.0,0.0,0.0,0.0,0.0,0.0,0.0,5.5649,5.6171,5.5445,5.4226,0.0,4.9756,4.7056,4.5866,4.5082,0.0,0.0,0.0,0.0,0.0,0.0,0.0,4.5663,4.6586,4.7691,4.9068,4.9021,4.8968,4.9089,4.8536,4.7339,4.5424,4.5125,4.4197,4.2351,4.1632,0.0,0.0,0.0,0.0,0.0,0.0,0.0,0.0,0.0,0.0,0.0,0.0,0.0,0.0,0.0,0.0,0.0,0.0,0.0,0.0,0.0,0.0,0.0,0.0,0.0,0.0,0.0,0.0,0.0,5.9539,6.1309,6.1425,6.1658,6.1454,0.0,0.0,0.0,0.0,0.0,0.0,0.0,0.0,0.0,7.0657,7.1934,7.385,7.6491,7.742,7.8669,8.0265,8.0962,8.1601,8.2152,8.2152,8.2007,8.1688,8.0962,7.864,7.4982,6.9873,6.668,6.4706,0.0,0.0,0.0,0.0,6.0467,6.0409,6.2035,6.2477,0.0,6.2138,0.0,0.0,0.0,0.0,0.0,0.0,0.0,0.0,0.0,0.0,5.861,5.8871,5.8493,5.7855,5.6955,5.4575,5.1614,0.0,4.694,4.633,4.5692,0.0,0.0,0.0,0.0,4.5808,4.6824,4.7863,4.8757,4.9439,4.9931,4.997,4.9359,4.906,4.7997,4.5992,4.5514,4.4586,4.3039,4.2321,4.1444,0.0,0.0,0.0,0.0,0.0,0.0,0.0,0.0,0.0,0.0,0.0,0.0,0.0,0.0,0.0,0.0,0.0,0.0,0.0,0.0,0.0,0.0,0.0,0.0,0.0,0.0,0.0,0.0,6.1832,6.369,6.4677,6.4648,6.4415,0.0,0.0,0.0,0.0,0.0,0.0,6.9728,7.1208,7.3298,7.6143,7.7362,7.9249,8.1978,8.2762,8.3836,8.5171,8.61,8.6565,8.6565,8.6565,8.6361,8.5984,8.4881,8.3575,8.1688,7.5127,7.1295,6.9321,6.6767,6.5373,6.4851,6.5344,6.5199,6.5025,6.6622,6.6803,6.6381,6.6464,0.0,6.3962,6.2528,0.0,0.0,0.0,0.0,5.9452,6.0671,6.1399,6.1837,6.1982,6.1779,6.1313,6.0557,5.8929,5.6113,0.0,4.9291,4.8449,4.7491,0.0,0.0,0.0,0.0,4.6766,4.7869,4.8893,4.9557,4.9734,5.0649,5.075,4.9613,4.9419,4.8506,4.6681,4.5783,4.4796,4.3688,4.286,4.1931,4.0905,0.0,0.0,0.0,0.0,0.0,0.0,0.0,0.0,0.0,0.0,0.0,0.0,0.0,0.0,0.0,0.0,0.0,0.0,0.0,0.0,0.0,0.0,0.0,0.0,0.0,0.0,0.0,0.0,0.0,6.9205,6.8915,0.0,0.0,0.0,0.0,6.935,7.0599,7.2456,7.4982,7.6927,7.8843,8.0788,8.3284,8.5258,8.6623,8.7871,8.9148,9.0425,9.0513,9.0542,9.0542,9.0542,8.9845,8.8655,8.7987,8.6623,8.4474,7.922,7.594,7.3908,7.1382,6.9989,6.9437,6.9466,6.9466,6.9525,7.025,7.0253,6.9951,6.927,6.7659,6.5709,6.4725,6.4114,0.0,0.0,6.425,6.4418,6.5321,6.5892,6.6323,6.6909,6.6119,6.489,6.3632,6.2103,5.9422,0.0,5.2281,5.083,4.8943,0.0,4.8362,4.7811,4.7695,4.7927,4.8595,4.9139,4.9734,5.0383,5.087,5.093,5.0196,4.9613,4.8686,4.7339,4.6022,4.4975,4.4287,4.3069,4.2381,4.2291,4.1692,0.0,0.0,0.0,0.0,0.0,0.0,0.0,0.0,0.0,0.0,0.0,0.0,0.0,0.0,0.0,0.0,0.0,0.0,0.0,0.0,0.0,0.0,0.0,0.0,0.0,0.0,0.0,0.0,7.3124,7.3269,0.0,7.4024,7.3676,7.3937,7.5243,7.6869,7.893,8.1543,8.311,8.4794,8.6681,8.8074,8.938,9.0658,9.1122,9.179,9.2661,9.2661,9.2661,9.2632,9.1819,9.118,9.0687,8.9613,8.8306,8.6739,8.4503,8.1455,7.803,7.5882,7.4895,7.4634,7.4227,7.4082,7.4111,7.4343,7.4068,7.344,7.1933,7.0253,6.8625,6.7974,6.7386,6.6849,6.6515,6.6603,6.6819,6.6873,6.7442,6.8083,6.8289,6.7995,6.7554,6.7083,6.5132,6.272,6.0443,5.7472,5.4807,5.3268,5.202,5.1265,5.1439,5.0423,4.9776,5.0126,5.0495,5.0696,5.071,5.0994,5.096,5.0255,4.9643,4.894,4.7997,4.6711,4.5663,4.4975,4.4077,4.321,4.241,4.2171,4.1841,0.0,0.0,0.0,0.0,0.0,0.0,0.0,0.0,0.0,0.0,0.0,0.0,0.0,0.0,0.0,0.0,0.0,0.0,0.0,0.0,0.0,0.0,0.0,0.0,0.0,7.0541,7.4082,7.7101,7.7827,7.8436,7.9278,7.9162,7.9569,8.0875,8.253,8.4416,8.6565,8.8103,8.9584,9.1064,9.2167,9.3038,9.3677,9.3909,9.4112,9.4315,9.4315,9.4199,9.3967,9.3125,9.2603,9.2341,9.1035,9.0019,8.9119,8.7842,8.5549,8.2617,8.0033,7.8872,7.8611,7.7972,7.774,7.7682,7.7275,7.6695,7.584,7.3959,7.2669,7.1744,7.0748,7.0229,6.9939,6.9178,6.9037,6.9057,6.8664,6.9008,6.9417,6.9417,6.9417,6.9358,6.9151,6.7476,6.5756,6.4608,6.0909,5.7565,5.6258,5.4836,5.3936,5.411,5.282,5.1816,5.1967,5.1935,5.1757,5.1487,5.1715,5.1618,5.0913,5.0301,4.9553,4.8686,4.7369,4.6352,4.5663,4.5005,4.4227,4.3399,4.3399,4.3069,4.2372,0.0,0.0,0.0,0.0,0.0,0.0,0.0,0.0,0.0,0.0,0.0,0.0,0.0,0.0,0.0,0.0,0.0,0.0,0.0,0.0,0.0,0.0,0.0,7.0018,7.4372,7.8553,8.1085,8.2646,8.3923,8.5171,8.4736,8.4881,8.6187,8.7435,8.8684,8.9961,9.1819,9.3125,9.3764,9.5564,9.626,9.568,9.6231,9.6202,9.5651,9.5622,9.5273,9.4635,9.4635,9.4286,9.3619,9.2341,9.179,9.1587,8.9032,8.7958,8.7552,8.3749,8.1891,8.1252,8.0614,8.0381,8.0178,7.893,7.8059,7.7188,7.5243,7.4824,7.4837,7.2906,7.2807,7.3141,7.2119,7.1673,7.1303,7.0939,7.0637,7.0397,7.0397,7.0397,7.0219,6.9595,6.9187,6.8336,6.6454,6.2491,5.9045,5.7681,5.6926,5.6287,5.562,5.4696,0.0,5.4007,5.3381,5.2931,5.2902,5.3117,5.2995,5.2336,5.1678,5.075,4.9509,4.8147,4.713,4.6399,4.5783,4.5424,4.5424,4.5424,4.5095,4.4466,0.0,0.0,0.0,0.0,0.0,0.0,0.0,0.0,0.0,0.0,0.0,0.0,0.0,0.0,0.0,0.0,0.0,0.0,0.0,0.0,0.0,7.1818,7.4779,7.5243,7.8901,8.2849,8.6361,8.7929,8.9032,8.9845,9.0193,9.0687,9.1499,9.2312,9.3328,9.4606,9.5157,9.5767,9.6434,9.6957,9.716,9.6986,9.6667,9.6434,9.626,9.5825,9.5505,9.5331,9.4838,9.4519,9.4286,9.3009,9.2196,9.1645,8.999,8.8771,8.7697,8.5229,8.4184,8.3894,8.2791,8.2094,8.1543,8.0701,8.0033,7.9327,7.8074,7.7116,7.6329,7.5595,7.4869,7.4126,7.3058,7.2267,7.15,7.069,7.0237,7.0068,7.0068,7.02,7.0337,7.0159,6.9678,6.8991,6.7983,6.5647,6.3278,6.1733,6.0413,5.9362,5.8916,5.7853,0.0,5.6675,5.645,5.6065,5.5347,5.5359,5.5089,5.4431,5.3324,5.2486,5.2174,5.087,4.9643,4.8506,4.8716,4.8656,4.8221,4.8221,4.8131,0.0,0.0,0.0,0.0,0.0,0.0,0.0,0.0,0.0,0.0,0.0,0.0,0.0,0.0,0.0,0.0,0.0,0.0,0.0,0.0,0.0,0.0,7.6346,8.0033,8.2297,8.43,8.6768,9.0106,9.1616,9.2864,9.4054,9.4519,9.4983,9.5593,9.5999,9.6405,9.6899,9.716,9.7479,9.7857,9.8147,9.8176,9.7886,9.7247,9.6783,9.6492,9.5912,9.5622,9.5593,9.5215,9.5041,9.4983,9.3967,9.3154,9.2457,9.118,8.9874,0.0,0.0,0.0,0.0,0.0,8.3168,8.25,8.1833,8.1194,8.0547,7.9395,7.8365,7.7479,7.6768,7.5743,7.4714,7.3855,7.2746,7.1629,7.1072,7.0414,6.9869,6.9869,7.0068,7.0265,7.0397,7.01,6.963,6.8836,6.7652,0.0,6.4603,6.2764,6.1497,6.1438,6.0166,5.9211,5.8906,5.8535,5.8071,5.7483,5.7154,5.6705,5.6047,5.5029,0.0,0.0,0.0,5.1439,5.0152,5.0451,0.0,0.0,0.0,5.0092,5.0092,0.0,0.0,0.0,4.677,4.6591,0.0,0.0,0.0,0.0,0.0,0.0,0.0,0.0,0.0,0.0,0.0,0.0,0.0,0.0,0.0,0.0,8.102,8.5432,8.9845,9.0106,9.0687,9.298,9.4373,9.5854,9.7654,9.7886,9.8147,9.8699,9.8728,9.8495,9.7973,9.8437,0.0,0.0,0.0,9.9221,9.8641,9.7944,9.7276,9.6609,9.5999,9.568,9.5622,9.5622,9.5622,9.5564,9.4838,9.417,9.3561,9.2138,9.0687,8.9177,8.6913,8.5607,8.491,8.43,8.372,8.3081,8.2413,0.0,0.0,7.9714,7.8901,7.8175,7.6956,7.5843,7.494,7.4355,7.3029,7.1649,7.1649,7.0708,6.9803,6.9803,6.9803,6.9936,7.0265,7.0397,7.0141,6.918,6.8721,6.7969,6.6399,6.4304,6.2937,6.3149,6.1905,6.0889,6.0889,6.01,5.9518,5.9458,0.0,0.0,5.7483,5.6855,5.5718,5.3862,5.3533,5.2905,5.1828,5.1648,5.1588,5.1678,5.1678,5.1678,5.1678,5.1678,5.1977,5.2486,5.0557,4.9689,0.0,0.0,0.0,0.0,0.0,0.0,0.0,0.0,0.0,0.0,0.0,0.0,0.0,0.0,0.0,8.1891,8.5926,8.9932,9.3938,9.5273,9.6028,9.6522,9.7712,9.8844,9.9744,10.0295,10.0615,10.0702,10.0702,10.0702,10.0586,10.0673,10.0702,10.0702,10.0382,10.0121,10.0005,9.8815,9.7915,9.7305,0.0,0.0,9.5622,9.5622,9.5622,9.5535,9.4373,9.3793,9.3473,9.1151,8.8829,8.671,8.6216,8.5316,8.4271,8.4126,8.372,8.3081,8.2413,8.1746,8.0991,7.9714,7.8901,7.8262,7.7449,7.6044,0.0,7.4445,7.2744,7.0923,7.0923,6.9962,6.903,6.903,6.9203,6.9537,6.9936,7.02,7.0141,6.918,6.8721,6.8117,6.6997,6.532,6.407,6.3861,6.3142,6.2632,6.2632,6.248,6.2121,6.1583,6.1403,6.0835,5.9608,5.8919,5.8141,5.7214,5.5688,5.494,5.5209,5.4192,5.3892,5.4401,5.4431,5.4431,5.4431,5.4431,5.4491,5.4551,5.2576,5.1917,0.0,0.0,0.0,0.0,0.0,0.0,0.0,0.0,0.0,0.0,0.0,7.2863,7.5069,0.0,8.2617,8.6768,9.0425,9.3851,9.7044,9.835,9.896,9.896,9.9512,10.0295,10.1282,10.1602,10.1805,10.1805,10.1805,10.1689,10.1311,10.1282,10.1282,10.1282,10.0702,10.0411,10.0411,9.9076,9.8089,9.7508,9.6812,9.6202,9.5622,9.5622,9.5622,9.5564,9.4577,9.3967,9.3473,9.089,8.8509,8.6477,8.6158,8.5229,8.4097,8.4097,8.372,8.3081,8.2413,8.1543,8.0585,7.9627,7.8669,7.7827,7.7507,7.6056,7.4518,7.4518,7.2689,7.0715,7.0715,6.9786,6.8828,6.8828,6.8963,6.9232,6.9803,7.0068,7.0034,6.9598,6.9086,6.8456,6.7657,6.6249,6.5084,6.4546,6.3947,6.3438,6.3109,6.3079,6.2959,6.263,6.2301,6.1822,6.1164,5.9877,5.883,5.8171,5.6885,5.6166,5.6218,5.5538,5.5179,5.5179,5.5179,5.5179,5.5179,5.5179,5.5179,5.5179,5.4162,5.3862,0.0,0.0,0.0,0.0,0.0,0.0,0.0,6.9989,7.144,7.2718,7.5127,7.7769,8.0323,8.3865,8.7639,9.1499,9.4606,9.7421,9.9976,10.0702,10.0905,10.0905,10.0818,10.1195,10.2385,10.2472,10.2472,10.2472,10.2472,10.2211,10.1689,10.1689,10.1689,10.1689,10.0992,10.0586,10.0586,9.9134,9.8089,9.7508,9.6812,9.6202,9.5622,9.5622,9.5535,9.536,9.446,9.3619,9.2748,9.0542,8.8509,8.6739,8.6245,8.5229,8.4068,8.3952,8.3517,8.2907,8.2239,8.1165,8.0004,7.9336,7.8349,7.7362,7.7101,7.5853,7.4488,7.4372,7.2689,7.0889,7.0813,6.9941,6.9108,6.9059,6.903,6.9203,6.9869,7.0002,7.0022,6.9982,6.9542,6.8944,6.8106,6.7089,6.6071,6.5173,6.4455,6.3767,6.3169,6.3079,6.3079,6.3079,6.26,6.2241,6.2121,6.0386,5.9069,5.853,5.7752,5.7064,5.6585,5.6406,5.6047,5.5388,5.5388,5.5329,5.5179,5.5179,5.5269,5.5388,5.5388,5.5299,7.025,6.9089,6.8741,6.9234,6.9757,7.0512,0.0,7.3966,7.6085,7.7391,8.0149,8.311,8.5665,8.88,9.2283,9.6144,9.8495,10.0789,10.3285,10.3198,10.2879,10.2879,10.2385,10.2385,10.2995,10.3082,10.3082,10.3082,10.3082,10.3082,10.2995,10.2995,10.2995,10.2995,10.1805,10.1195,10.1195,9.9337,9.8089,9.7508,9.6812,9.6202,9.5622,9.5622,9.5302,9.4635,9.2864,9.1383,9.0193,8.9322,8.7871,8.6129,8.6071,8.5229,8.4039,8.3487,8.2878,8.221,8.1543,8.0468,7.9307,7.8698,7.8001,7.7188,7.6056,7.5185,7.443,7.3879,7.2689,7.1511,7.1305,7.0673,7.0039,6.9817,6.9803,6.9869,7.0265,7.0331,7.0284,7.0047,6.9931,6.9482,6.8196,6.7837,6.7119,6.5293,6.4455,6.3767,6.3169,6.3079,6.3079,6.3079,6.3019,6.272,6.2151,6.0805,5.9937,5.9877,5.871,5.7992,5.7902,5.7334,5.6705,5.6128,5.6128,5.5777,5.5179,5.5179,5.5478,5.6128,5.6128,5.5748,7.0918,7.0657,7.1266,7.2282,7.3589,7.5127,7.7159,7.9046,8.0962,8.2965,8.5345,8.7842,9.0396,9.3473,9.6522,9.9279,10.1311,10.2995,10.4069,10.3605,10.2908,10.2182,10.1573,10.1602,10.2589,10.2995,10.3198,10.3198,10.3198,10.3198,10.3198,10.3198,10.3198,10.3198,10.1979,10.1282,10.1282,9.9366,9.8089,9.7508,9.6812,9.6202,9.5622,9.5622,9.5041,9.3967,9.2428,9.1035,8.9729,8.8742,8.7406,8.6013,8.5636,8.491,8.401,8.34,8.2762,8.2094,8.1426,8.0149,7.8727,7.8494,7.7711,7.6695,7.5795,7.5069,7.443,7.3792,7.2689,7.1685,7.1563,7.101,7.0594,7.0643,7.072,7.0855,7.1422,7.1555,7.148,7.1153,7.0769,7.0111,6.8794,6.8226,6.7418,6.5832,6.5024,6.4216,6.3199,6.3079,6.3079,6.3079,6.3079,6.281,6.2151,6.1583,6.0924,6.0146,5.9578,5.8919,5.8141,5.7842,5.7393,5.6735,5.6705,5.6406,5.5777,5.6107,5.6256,5.6248,5.6526,5.6555,7.2021,7.2718,7.4024,7.5475,7.7566,7.9859,8.2239,8.3952,8.5636,8.7842,8.9671,9.1616,9.3996,9.6783,9.9366,10.1485,10.3285,10.4505,10.4679,10.3808,10.2676,10.1195,10.0324,10.0121,10.0905,10.2008,10.2763,10.2908,10.3082,10.3198,10.3198,10.3198,10.3111,10.2966,10.1892,10.1108,10.0789,9.9018,9.7828,9.7218,9.658,9.6028,9.5593,9.5244,9.4373,9.3067,9.179,9.0483,8.9206,8.8103,8.6913,8.5723,8.5258,8.4678,8.3981,8.3197,8.2617,8.2065,8.1223,7.983,7.8407,7.8407,7.7507,7.6317,7.5475,7.4924,7.4372,7.356,7.266,7.1946,7.1842,7.1534,7.1364,7.1503,7.1679,7.1883,7.2454,7.2522,7.238,7.196,7.1517,7.0709,6.9243,6.8585,6.7747,6.6251,6.5592,6.4814,6.3498,6.3169,6.3079,6.3079,6.3079,6.2869,6.2421,6.2211,6.1672,6.0685,6.0296,5.9668,5.871,5.8501,5.8082,5.7393,5.7393,5.7064,5.6436,5.6885,5.6974,5.6705,5.7184,5.7483,7.3966,7.5388,7.6782,7.8698,8.1543,8.4387,8.6361,8.8277,8.999,9.1354,9.2661,9.4141,9.6057,9.8031,10.0208,10.2705,10.4214,10.5317,10.5956,10.4388,10.2502,10.0615,9.925,9.8234,9.7712,9.9889,10.1602,10.2298,10.2879,10.3198,10.3198,10.3198,10.2908,10.2327,10.1689,10.0702,9.9482,9.8176,9.7189,9.6522,9.5912,9.5622,9.5564,9.4315,9.3038,9.1761,9.0454,8.9148,8.7929,8.729,8.6274,8.5113,8.5084,8.4678,8.3923,8.2675,8.221,8.2007,8.0759,7.9481,7.8407,7.8407,7.7507,7.623,7.4924,7.4518,7.4256,7.3008,7.2602,7.2499,7.224,7.2442,7.268,7.2341,7.2559,7.2857,7.2924,7.2924,7.2714,7.2026,7.1876,7.1248,6.9333,6.8974,6.8286,6.6311,6.5981,6.5503,6.4126,6.3438,6.3079,6.3079,6.3079,6.3079,6.3049,6.245,6.2091,6.2032,6.0805,6.0057,6.0027,5.9428,5.877,5.8112,5.8082,5.7752,5.7064,5.7094,5.7423,5.8052,5.8082,5.8441,7.565,7.832,8.1281,8.2762,8.552,8.8393,9.0338,9.1267,9.2109,9.3386,9.3996,9.4751,9.6231,9.7741,9.9424,10.1602,10.2995,10.3779,10.3605,10.2618,10.1079,9.8757,9.7334,9.6289,9.5651,9.8292,10.0498,10.1573,10.2211,10.2792,10.3169,10.2792,10.2502,10.2298,10.1282,10.0295,9.9424,9.8147,9.716,9.6492,9.5912,9.5389,9.4896,9.3619,9.2574,9.1674,8.9932,8.8713,8.7842,8.6797,8.5868,8.5055,8.4591,8.4039,8.34,8.25,8.192,8.1426,8.0585,7.9481,7.8407,7.8407,7.7507,7.6288,7.5446,7.4866,7.4372,7.3531,7.295,7.2573,7.2482,7.2736,7.3099,7.3241,7.3595,7.387,7.4142,7.421,7.3881,7.2774,7.2565,7.1936,6.9991,6.9303,6.8465,6.6909,6.5922,6.5024,6.4126,6.3827,6.3528,6.3109,6.3079,6.3079,6.3079,6.2869,6.257,6.2121,6.1672,6.1224,6.0775,6.0116,5.9668,5.9428,5.9009,5.8441,5.7782,5.8201,5.8321,5.8141,5.859,5.889,7.8436,8.1659,8.5026,8.6971,8.9526,9.1935,9.3415,9.3764,9.3793,9.3909,9.3938,9.417,9.5012,9.5999,9.7479,9.986,10.1369,10.2211,10.2298,10.1718,10.0411,9.8089,9.6522,9.536,9.4693,9.6696,9.867,10.0179,10.1311,10.2095,10.2502,10.2385,10.2095,10.1602,10.0586,9.9628,9.8728,9.7683,9.6812,9.6173,9.5564,9.4896,9.4228,9.2951,9.1906,9.0977,8.9264,8.8045,8.7174,8.6129,8.5316,8.4678,8.4242,8.372,8.311,8.2442,8.1775,8.1107,8.0497,7.9481,7.8407,7.8407,7.7507,7.6346,7.5708,7.5069,7.443,7.3792,7.3124,7.2631,7.2773,7.3128,7.351,7.3901,7.4248,7.4594,7.48,7.4869,7.448,7.3163,7.2924,7.2295,7.032,6.9423,6.8615,6.7508,6.661,6.5742,6.4844,6.4515,6.4126,6.3468,6.3408,6.3318,6.3109,6.3079,6.2899,6.248,6.2241,6.1912,6.1493,6.0565,6.0086,6.0086,5.9428,5.889,5.8471,5.889,5.889,5.8471,5.8919,5.9099,8.2239,8.5345,8.8074,9.118,9.3357,9.4867,9.5505,9.5564,9.4925,9.298,9.2545,9.2486,9.2428,9.3009,9.4548,9.7654,9.9366,10.0702,10.1979,10.1689,10.0586,9.8641,9.6812,9.5418,9.4722,9.5273,9.6405,9.8234,10.0121,10.1195,10.1282,10.1892,10.1631,10.0411,9.9715,9.8757,9.7508,9.6812,9.6144,9.5564,9.4925,9.4257,9.3532,9.2283,9.1006,8.97,8.8422,8.7174,8.5984,8.5345,8.4678,8.4097,8.4068,8.3662,8.3052,8.2384,8.1688,8.102,8.0439,7.9452,7.8407,7.8349,7.7507,7.6346,7.5737,7.5098,7.443,7.3879,7.3211,7.2789,7.3115,7.3539,7.396,7.4248,7.4594,7.4869,7.4869,7.4869,7.448,7.3163,7.2864,7.2206,7.032,6.9453,6.8824,6.8136,6.8016,6.7537,6.6191,6.5473,6.4814,6.4126,6.4006,6.3767,6.3169,6.3109,6.3079,6.3079,6.248,6.2151,6.2151,6.0894,6.0176,6.0146,5.9488,5.9159,5.9159,5.9159,5.9189,5.9219,5.9189,5.9159,8.5897,8.9293,9.2399,9.4199,9.5331,9.6057,9.6231,9.4809,9.2893,9.0948,9.0193,8.9555,8.8626,9.0135,9.2283,9.4519,9.716,9.9192,10.0005,10.0789,10.0586,9.8641,9.7596,9.658,9.5476,9.5912,9.6696,9.7654,9.9076,10.0295,10.1224,10.1021,10.0702,10.0411,9.9279,9.8292,9.7508,9.6405,9.5505,9.4867,9.4693,9.3793,9.2225,9.1441,9.0338,8.9061,8.7784,8.6768,8.5984,8.5345,8.4678,8.4039,8.3604,8.3023,8.2355,8.1688,8.073,7.9743,7.9598,7.9046,7.832,7.7827,7.713,7.6508,7.6259,7.5766,7.5214,7.5069,7.4547,7.398,7.3975,7.4215,7.445,7.4298,7.4594,7.4869,7.4869,7.4869,7.448,7.3163,7.2086,7.1098,7.0141,6.9842,6.9512,6.8824,6.8734,6.8076,6.6251,6.5862,6.5503,6.4844,6.4306,6.3947,6.3767,6.3348,6.3079,6.3079,6.2929,6.2839,6.2839,6.2032,6.1343,6.0864,6.0176,5.9847,5.9847,5.9847,6.0086,6.0595,6.0086,5.9847,8.9177,9.2225,9.4896,9.6434,9.6667,9.6434,9.6173,9.4141,9.1587,8.909,8.8074,8.7232,8.5955,8.7348,8.9526,9.2022,9.5099,9.7683,9.9192,10.0789,10.1195,9.9831,9.9134,9.8379,9.7363,9.7567,9.806,9.8728,9.9163,9.9715,10.0411,10.0411,10.0295,9.9976,9.8699,9.7567,9.6667,9.597,9.5273,9.4606,9.4315,9.3357,9.1732,9.0803,8.9845,8.88,0.0,8.6361,8.5955,8.5026,8.4416,8.4039,8.3429,8.2791,8.2094,8.1136,8.0178,7.922,7.8669,7.8233,7.7914,7.7537,7.6985,7.6538,7.6687,7.6325,7.58,7.6021,7.5525,7.5012,7.5121,7.5011,7.4998,7.4992,7.4941,7.4869,7.4869,7.4869,7.448,7.3163,7.2056,7.1128,7.05,7.038,7.0171,6.9542,6.9423,6.8824,6.7089,6.6879,6.652,6.5562,6.5114,6.4635,6.4036,6.3677,6.3378,6.3079,6.3079,6.3079,6.3079,6.245,6.1912,6.1553,6.0894,6.0535,6.0535,6.0535,6.0745,6.1104,6.0715,6.0535,9.2341,9.478,9.6609,9.8147,9.7508,9.6289,9.5418,9.3096,9.0222,8.7,8.5839,8.4997,8.3691,8.4649,8.6681,8.9816,9.3009,9.6028,9.8641,10.0818,10.1979,10.1485,10.1021,10.0498,9.986,9.9686,9.9889,10.0498,9.9976,9.9628,9.9541,10.0005,9.9918,9.9163,9.8089,9.6899,9.5622,9.5535,9.5157,9.446,9.3764,9.2748,9.147,9.0251,8.9351,8.8655,8.6826,0.0,8.5926,8.462,8.4097,8.401,8.3342,8.2704,8.2036,8.0672,7.9743,7.9017,7.7903,7.7438,7.7351,7.7275,7.6898,7.6612,7.7015,7.668,7.6285,7.6725,7.6385,7.6014,7.6355,7.5981,7.5576,7.5876,7.5437,7.4988,7.4899,7.4809,7.442,7.3283,7.2505,7.1816,7.1158,7.1038,7.0829,7.0201,7.0111,6.9632,6.8286,6.8016,6.7508,6.6281,6.6071,6.5533,6.4366,6.4096,6.3767,6.3228,6.3109,6.3079,6.3079,6.254,6.2181,6.2091,6.1523,6.1253,6.1253,6.1253,6.1283,6.1373,6.1283,6.1253,9.5912,9.8089,9.9512,9.9279,9.7857,9.5912,9.3735,9.0425,8.6913,8.3691,8.25,8.163,8.0381,8.2065,8.4562,8.7232,9.0338,9.3502,9.658,9.957,10.1602,10.2095,10.2472,10.2472,10.1863,10.1282,10.0992,10.1108,10.1021,10.0789,10.0266,9.9802,9.9047,9.7886,9.7625,9.6899,9.5622,9.507,9.446,9.3822,9.2661,9.1412,9.0135,8.938,8.8684,8.8016,8.6623,0.0,8.5926,8.462,8.4097,8.3981,8.282,8.2297,8.1978,8.0149,7.9075,7.8513,7.8033,7.76,7.7087,7.6787,7.655,7.6612,7.7015,7.7002,7.6988,7.7328,7.7387,7.7224,7.7055,7.6991,7.6706,7.6086,7.5826,7.5557,7.4988,7.445,7.4001,7.3762,7.3193,7.2505,7.1816,7.1727,7.1487,7.0829,7.0739,7.029,6.8974,6.8315,6.7687,6.6909,6.634,6.5922,6.5682,6.4635,6.3947,6.3857,6.3378,6.3079,6.3079,6.2959,6.266,6.2121,6.2002,6.1942,6.1942,6.1942,6.2211,6.272,6.2181,6.1942,9.7886,9.9657,10.0615,9.9657,9.745,9.4867,9.2312,8.848,8.4765,8.221,8.0643,7.9569,7.893,8.012,8.2123,8.4997,8.8161,9.1499,9.5041,9.8292,10.0789,10.2124,10.3111,10.3605,10.3285,10.2995,10.2676,10.2298,10.2008,10.1398,10.0469,9.9773,9.8815,9.7538,9.7508,9.6899,9.5622,9.4954,9.4286,9.3648,9.237,9.1093,8.9787,8.9177,8.8539,8.7871,8.6594,0.0,8.5926,8.462,8.4097,8.3952,8.2704,8.2181,8.1949,8.0004,7.9085,7.8598,7.8155,7.7737,7.7357,7.7135,7.7031,7.7105,7.7283,7.7505,7.7726,7.8136,7.8209,7.8192,7.804,7.7784,7.7348,7.6534,7.5856,7.5288,7.4958,7.4629,7.43,7.3971,7.3642,7.3223,7.2535,7.2116,7.1787,7.1457,7.1258,7.0817,6.9886,6.9353,6.854,6.715,6.67,6.637,6.6041,6.5233,6.4631,6.427,6.367,6.3309,6.3309,6.3194,6.2929,6.26,6.26,6.26,6.26,6.26,6.278,6.3079,6.275,6.26,9.9076,10.0615,10.1311,9.9802,9.687,9.3706,9.1006,8.6797,8.2907,8.0991,7.9191,7.7943,7.7798,7.8291,7.9714,8.2791,8.5752,8.9003,9.2835,9.626,9.9192,10.1398,10.2908,10.3895,10.4185,10.4069,10.3779,10.3198,10.2502,10.1602,10.0469,9.9628,9.867,9.7538,9.7363,9.6754,9.5622,9.4809,9.417,9.3648,9.2109,9.0832,8.9787,8.9032,8.8393,8.7871,8.6594,0.0,0.0,8.462,8.4097,8.3952,8.2704,8.2181,8.1949,8.0004,7.9133,7.8903,7.8306,7.7931,7.7696,7.7696,7.7696,7.7623,7.7696,7.799,7.8282,7.8717,7.8789,7.8789,7.8789,7.84,7.7831,7.7023,7.5826,7.4869,7.4869,7.4869,7.4719,7.421,7.4091,7.3881,7.329,7.2733,7.2319,7.2234,7.1956,7.1513,7.0847,7.0552,6.9639,6.7757,6.7272,6.6911,6.6402,6.589,6.5374,6.4918,6.4132,6.3679,6.3565,6.3367,6.3137,6.3079,6.3079,6.3079,6.3079,6.3079,6.3079,6.3079,6.3079,6.3079,9.9773,10.1602,10.2414,10.0005,9.6551,9.2922,8.9758,8.5113,8.0933,7.9046,7.7595,7.6462,7.5882,7.6288,7.7566,8.0207,8.2384,8.5055,8.8858,9.2661,9.6202,9.9308,10.1311,10.2908,10.4098,10.3605,10.3285,10.3198,10.2095,10.1108,10.0411,9.9192,9.8176,9.7538,9.6928,9.6289,9.5622,9.4373,9.3706,9.3648,9.118,8.9932,8.9787,8.8568,8.7987,8.7871,8.6594,0.0,0.0,8.462,8.4097,8.3952,8.2704,8.2181,8.1949,8.0004,7.9133,7.898,7.8636,7.8331,7.8136,7.8136,7.7917,7.7696,7.8063,7.8209,7.8282,7.8717,7.8789,7.8789,7.8789,7.8729,7.84,7.7113,7.5826,7.4869,7.4869,7.4869,7.4869,7.4809,7.4779,7.4706,7.4352,7.3955,7.3647,7.3361,7.3007,7.2551,7.1845,7.1752,7.1108,6.9427,6.8213,6.7457,6.7396,6.6428,6.5964,6.6192,6.5028,6.4158,6.3876,6.3622,6.3367,6.3079,6.3079,6.3079,6.3079,6.3079,6.3079,6.3079,6.3079,6.3079,9.9163,10.1195,10.2008,9.9453,9.5912,9.2051,8.8074,8.3487,7.9511,7.7624,7.6201,7.5214,7.4953,7.4808,7.5592,7.8146,7.9859,8.2065,8.552,8.9293,9.2777,9.5622,9.867,10.0905,10.1805,10.2676,10.3024,10.2676,10.1805,10.1021,10.0411,9.9134,9.8118,9.7538,9.6841,9.6202,9.5622,9.4315,9.3677,9.3648,9.1064,8.9816,8.9787,8.8509,8.7726,8.7319,8.6419,0.0,0.0,8.4474,8.4029,8.3867,8.2934,8.251,8.2251,8.1107,8.0253,7.9719,7.9603,7.91,7.8572,7.8572,7.8427,7.8282,7.8209,7.8354,7.8572,7.8789,7.8789,7.8789,7.8789,7.819,7.7543,7.7244,7.6172,7.5278,7.5482,7.5346,7.521,7.521,7.521,7.5188,7.5291,7.5216,7.5065,7.4709,7.4501,7.4156,7.3501,7.3245,7.2776,7.1948,7.0091,6.8785,6.8388,6.788,6.76,6.7392,6.6437,6.5534,6.4802,6.4437,6.4158,6.3906,6.4045,6.4045,6.3906,6.3679,6.3508,6.3367,6.3194,6.3194,9.6783,9.896,10.0005,9.7596,9.4257,9.0513,8.639,8.1978,7.8262,7.6521,7.5156,7.4169,7.3995,7.3763,7.4314,7.6491,7.774,7.9569,8.2791,8.6071,8.9235,9.2167,9.5767,9.8466,9.9686,10.1515,10.2502,10.2298,10.1485,10.0789,10.0121,9.8844,9.7944,9.7508,9.6696,9.5941,9.5331,9.4228,9.3561,9.3357,9.0948,8.9816,8.9787,8.8509,8.7581,8.6942,8.6303,0.0,0.0,8.432,8.3984,8.3892,8.3172,8.29,8.2788,8.2137,8.1417,8.081,8.0631,8.0119,7.9532,7.9208,7.922,7.922,7.8831,7.8789,7.8789,7.8933,7.9148,7.9291,7.9291,7.8297,7.7373,7.7651,7.6721,7.5819,7.6088,7.5819,7.555,7.555,7.555,7.5722,7.6258,7.6465,7.6522,7.6495,7.6232,7.5926,7.5332,7.4876,7.4368,7.3737,7.2355,7.0949,6.9728,6.9345,6.9074,6.8705,6.78,6.6892,6.6043,6.5468,6.507,6.474,6.4961,6.4906,6.466,6.4326,6.3989,6.3622,6.3451,6.3508,9.2254,9.4635,9.6115,9.4199,9.1296,8.8074,8.4852,8.0643,7.7072,7.5766,7.4518,7.3414,7.2747,7.3182,7.4024,7.533,7.6056,7.7624,8.0817,8.2936,8.5578,8.9409,9.2719,9.5651,9.8176,10.0179,10.1602,10.2269,10.1108,0.0,9.9453,9.8205,9.7508,9.7508,9.6289,9.5302,9.4635,9.3967,9.3357,9.2719,9.0745,8.9816,8.9787,8.8509,8.7581,0.0,0.0,0.0,0.0,8.413,8.4061,8.4286,8.3488,8.3342,8.356,8.2948,8.2515,8.2152,8.149,8.1407,8.1308,8.0254,8.0182,8.0422,7.9971,7.9332,7.8861,7.9291,7.993,8.0492,8.0492,7.9483,7.8475,7.8475,7.7466,7.6488,7.6488,7.6191,7.5923,7.5984,7.5954,7.6258,7.7312,7.7716,7.8116,7.885,7.8286,7.7672,7.7384,7.6714,7.5777,7.4441,7.4804,7.4083,7.1489,7.0553,7.009,7.009,6.9085,6.8181,6.7597,6.6636,6.5938,6.5584,6.5584,6.5475,6.518,6.4906,6.4463,6.3876,6.3963,6.4132,8.999,9.1993,9.2922,9.1412,8.8974,8.61,8.2849,7.9336,7.6404,7.5098,7.3821,7.2863,7.266,7.2427,7.2573,7.3385,7.443,7.5795,7.7711,8.0352,8.3226,8.6216,9.1325,9.5796,9.8786,10.0092,10.0789,10.0992,10.0208,9.9424,9.8757,9.7508,9.6812,9.6812,9.5593,9.4809,9.4606,9.3561,9.269,9.2051,9.0542,8.9584,8.9148,8.8306,8.7348,0.0,0.0,0.0,0.0,8.4383,8.4456,8.4893,8.4759,8.4799,8.5035,8.5111,8.4454,8.3437,8.3009,8.2489,8.1814,8.1186,8.1262,8.1535,8.1124,8.0531,8.0041,8.0671,8.0986,8.1262,8.1535,8.0749,7.9877,7.988,7.9006,7.8164,7.7892,7.7605,7.7312,7.705,7.7181,7.7476,7.8056,7.9003,7.9665,7.9634,7.9769,7.9717,7.9113,7.8429,7.7762,7.7365,7.6655,7.5177,7.2764,7.2658,7.239,7.1367,7.0829,7.003,6.8936,6.8818,6.8362,6.7536,6.7904,6.768,6.6712,6.6173,6.553,6.4795,6.5046,6.532,8.5578,8.7348,8.7958,8.7145,8.5403,8.3139,8.0381,7.7682,7.5417,7.4401,7.295,7.205,7.2515,7.1905,7.176,7.3124,7.3589,7.4605,7.6869,7.8901,8.192,8.6681,9.1383,9.5593,9.9076,9.9773,10.0005,10.0005,9.9395,9.8641,9.7741,9.6928,9.6289,9.5796,9.5012,9.4489,9.4257,9.3009,9.2051,9.1383,9.0077,8.9352,8.9119,8.8217,8.7341,0.0,0.0,0.0,0.0,8.4793,8.5048,8.5501,8.5765,8.5956,8.6072,8.6352,8.5698,8.4625,8.4032,8.3579,8.3161,8.2374,8.228,8.2548,8.2548,8.1875,8.1293,8.2078,8.2414,8.2615,8.2815,8.2245,8.155,8.1371,8.0676,7.9855,7.9385,7.9037,7.8624,7.8182,7.8311,7.8691,7.9193,8.0239,8.1009,8.0848,8.1107,8.1063,8.049,7.9514,7.8802,7.8691,7.7785,7.6442,7.4692,7.4375,7.3901,7.2914,7.2222,7.1493,7.0571,7.05,7.0144,6.9453,6.9844,6.9386,6.8113,6.7017,6.6258,6.5754,6.5991,6.6311,0.0,8.1194,8.1862,8.1862,8.0933,7.954,7.7682,7.5795,0.0,7.3734,7.205,7.1063,7.2369,7.1586,7.1528,7.3966,7.3414,7.4024,7.7798,7.8727,8.1949,8.9874,9.2603,9.5244,9.8902,9.9308,9.9337,9.9337,9.867,9.7741,9.658,9.6405,9.5825,9.4635,9.4489,9.4141,9.3532,9.2312,9.1354,9.0658,8.9555,8.9177,8.9436,8.8292,8.7661,0.0,0.0,0.0,0.0,8.528,8.5651,8.6265,8.6698,8.6874,8.6984,8.6984,8.6475,8.5676,8.4708,8.4785,8.5083,8.3858,8.3374,8.3505,8.4154,8.3374,8.2446,8.3571,8.409,8.4347,8.4347,8.3867,8.3322,8.2972,8.2366,8.1665,8.0869,8.049,7.9985,7.9257,7.9441,7.9873,8.0481,8.1316,8.2017,8.2338,8.2118,8.1778,8.1553,8.0211,7.9177,7.89,7.8431,7.787,7.7157,7.574,7.4779,7.4452,7.3379,7.2674,7.2386,7.1763,7.137,7.1305,7.1272,7.0627,6.9321,6.7584,6.6744,6.6744,6.6942,6.7169,7.4082,0.0,7.8524,7.8524,7.7943,7.713,0.0,7.4866,7.3792,7.3647,7.1702,7.0541,7.2282,7.1586,7.1237,7.2805,7.324,7.4372,7.7246,8.1862,8.6419,9.0367,9.3386,9.5883,9.777,9.835,9.8641,9.8641,9.7596,9.6812,9.6522,9.5593,9.4925,9.4635,9.3212,9.237,9.2225,9.1441,9.0483,8.9322,8.9699,8.9369,8.8569,8.9216,8.9014,0.0,0.0,0.0,8.7219,8.6551,8.7031,8.8163,8.8395,8.8463,8.8506,8.8765,8.8017,8.6815,8.6336,8.6137,8.5994,8.5675,8.5393,8.5268,8.5704,8.4794,8.3961,8.5016,8.533,8.5455,8.5766,8.5512,8.5066,8.4699,8.3833,8.2936,8.2284,8.1641,8.1068,8.0573,8.0781,8.1112,8.123,8.1818,8.228,8.2395,8.2581,8.2651,8.2538,8.1248,8.0322,8.0267,7.911,7.8337,7.8172,7.6815,7.562,7.4747,7.3943,7.3431,7.3056,7.3131,7.2904,7.2345,7.1786,7.0978,6.9925,6.9228,6.8669,6.8151,6.8169,6.8319,7.1411,7.324,7.4837,7.5127,7.4953,7.4605,7.4256,7.3647,7.3153,7.3153,7.1586,7.0802,7.2718,7.2021,7.1876,7.4024,7.4692,7.6027,7.9162,8.3604,8.761,9.0483,9.3125,9.5447,9.7334,9.7799,9.8002,9.8002,9.7073,9.6376,9.6115,9.5157,9.446,9.4199,9.2784,9.2031,9.1761,9.0748,9.0022,8.9466,8.9791,8.9752,8.9665,8.9952,8.9887,0.0,0.0,0.0,8.8326,8.7631,8.7998,8.8891,8.8953,8.8992,8.8914,8.8838,8.8079,8.7032,8.6663,8.6463,8.6352,8.6474,8.6291,8.6107,8.6413,8.6013,8.5518,8.6107,8.623,8.6291,8.6474,8.6413,8.6132,8.58,8.4991,8.4151,8.3432,8.2714,8.2034,8.1532,8.1701,8.1876,8.1876,8.228,8.2656,8.2656,8.277,8.2883,8.2883,8.1889,8.1061,8.073,7.9703,7.8875,7.8544,7.7484,7.6471,7.5554,7.486,7.428,7.3731,7.3917,7.3803,7.3406,7.2529,7.1671,7.0798,7.0189,6.9516,6.8797,6.8896,6.9042,6.9873,7.0686,7.1411,7.2137,7.2311,7.234,7.2456,7.2456,7.2485,7.2602,7.1673,7.144,7.3269,7.2776,7.3066,7.6044,7.6956,7.8553,8.2007,8.4968,8.7842,9.0774,9.298,9.507,9.716,9.745,9.745,9.7363,9.6754,9.6086,9.5476,9.4931,9.4234,9.3478,9.274,9.2098,9.1743,9.0401,8.9925,9.0087,8.9935,9.0386,9.1258,9.0791,9.0825,9.1142,0.0,0.0,8.915,8.8766,8.8823,8.9152,8.9155,8.901,8.8749,8.8156,8.7496,8.687,8.6535,8.6474,8.6474,8.6777,8.6656,8.6535,8.681,8.687,8.687,8.687,8.687,8.687,8.687,8.687,8.6777,8.6535,8.5817,8.503,8.4406,8.3559,8.2863,8.2272,8.2313,8.2452,8.2452,8.2713,8.2883,8.2883,8.2883,8.2883,8.2883,8.2254,8.1525,8.0763,8.0067,7.9339,7.8577,7.7947,7.7252,7.6523,7.5728,7.4933,7.4255,7.4221,7.4221,7.4221,7.3373,7.2562,7.1804,7.0979,7.0125,6.9304,6.9498,6.9562,6.758,6.8334,6.9554,7.0715,7.1005,7.115,7.1702,7.1818,7.1963,7.2485,7.2021,7.1963,7.3356,7.3879,7.4605,7.6276,7.9191,8.1891,8.3575,8.7435,9.0658,9.2225,9.507,9.6841,9.6667,9.716,9.7276,9.6696,9.6086,9.5447,9.4809,9.4539,9.388,9.2681,9.2186,9.1816,9.1563,9.0985,9.0357,8.9613,9.1,9.1357,9.0759,9.2374,9.2518,9.1482,0.0,9.1018,9.0676,9.0029,8.9773,8.9856,8.9883,8.9244,8.8421,8.8289,8.7825,8.723,8.7137,8.7137,8.7137,8.723,8.723,8.717,8.723,8.723,8.723,8.723,8.723,8.723,8.723,8.723,8.723,8.7137,8.6144,8.5061,8.4961,8.3895,8.2902,8.2803,8.277,8.2827,8.2827,8.286,8.2883,8.2883,8.2883,8.2883,8.2883,8.2254,8.1525,8.0763,8.0067,7.9339,7.8577,7.8411,7.8047,7.7285,7.6026,7.4933,7.4255,7.4221,7.4221,7.4221,7.4072,7.3591,7.2895,7.2713,7.1952,7.0629,7.0629,7.0346,6.6883,6.758,6.845,6.9031,6.996,7.0802,7.1092,7.1963,7.2805,7.3095,7.3182,7.3589,7.4924,7.5388,7.655,7.9598,8.2442,8.4939,8.6913,8.9584,9.1674,9.2603,9.4635,9.597,9.6028,9.6289,9.6587,9.69,9.5996,9.5482,9.5713,9.4691,9.4015,9.3833,9.3107,9.2723,9.2914,9.2701,9.2109,9.1198,9.2351,9.2658,9.2279,9.2922,9.295,9.2446,0.0,9.1566,9.1338,9.0195,8.986,8.994,8.9149,8.8608,8.8283,8.7885,8.7554,8.7289,8.7289,8.7289,8.7289,8.7289,8.7289,8.7289,8.7289,8.7289,8.7289,8.7289,8.7289,8.7289,8.7289,8.7289,8.7289,8.7289,8.6461,8.5567,8.5202,8.4241,8.338,8.2983,8.2883,8.2883,8.2883,8.2883,8.2883,8.2883,8.2883,8.2883,8.2883,8.2585,8.2121,8.1359,8.0631,7.9902,7.9173,7.8742,7.8212,7.745,7.6059,7.5183,7.48,7.442,7.4221,7.4221,7.4221,7.3807,7.3111,7.3111,7.2349,7.0891,7.0891,7.0494,6.6562,6.7342,6.8003,6.8003,6.9273,7.057,7.0889,7.2224,7.3501,7.3966,7.4547,7.5359,7.6666,7.7391,7.9075,8.2994,8.5229,8.7319,8.9729,9.1296,9.2457,9.3096,9.4286,9.5186,9.5564,9.5832,9.6288,9.6931,9.6271,9.5992,9.6567,9.5309,9.4693,9.5075,9.4371,9.4056,9.4224,9.4439,9.3995,9.2861,9.3383,9.3577,9.3494,9.3234,9.3128,9.3037,9.222,9.1726,9.1331,9.0214,8.9683,8.9475,8.8321,8.7975,8.7985,8.7488,8.7289,8.7289,8.7289,8.7289,8.7289,8.7289,8.7289,8.7289,8.7289,8.7289,8.7289,8.7289,8.7289,8.7289,8.7289,8.7289,8.7289,8.7289,8.6593,8.5765,8.5235,8.4374,8.3579,8.3016,8.2883,8.2883,8.2883,8.2883,8.2883,8.2883,8.2883,8.2883,8.2883,8.2883,8.2618,8.1889,8.1293,8.0598,7.9703,7.9107,7.8444,7.7715,7.649,7.5628,7.5297,7.4785,7.4387,7.4221,7.4221,7.3906,7.3376,7.3376,7.268,7.1421,7.1421,7.0924,6.6063,6.719,6.8401,6.8401,6.9127,7.0163,7.1324,7.2166,7.3182,7.5011,7.5882,7.6724,7.803,8.0207,8.2471,8.462,8.6536,8.848,9.0454,9.2341,9.3764,9.4402,9.5593,9.6173,9.5651,9.6521,9.6843,9.6163,9.6773,9.6892,9.6189,9.6541,9.6232,9.5168,9.5568,9.5426,9.4549,9.5646,9.5336,9.3457,9.393,9.3685,9.281,9.3825,9.3532,9.2313,9.2565,9.1864,9.0606,9.0445,8.9646,8.8388,8.8289,8.7919,8.7355,8.7289,8.7289,8.7289,8.7289,8.7289,8.7289,8.7289,8.7289,8.7289,8.7289,8.7289,8.7289,8.7289,8.7289,8.7289,8.7289,8.7289,8.7289,8.7289,8.6196,8.5169,8.5136,8.3976,8.295,8.2916,8.2883,8.2883,8.2883,8.2883,8.2883,8.2883,8.2883,8.2883,8.2883,8.2883,8.2618,8.1889,8.1757,8.1161,7.9736,7.9516,7.9239,7.8477,7.7682,7.6655,7.533,7.5231,7.4918,7.4221,7.4221,7.4188,7.4105,7.4105,7.3707,7.2945,7.2945,7.2183,6.589,6.7,6.82,6.8612,7.0221,7.1922,7.2999,7.5043,7.7044,7.8381,7.9542,8.0492,8.1058,8.2691,8.462,8.6536,8.8712,9.081,9.2764,9.4614,9.5852,9.6086,9.6555,9.6574,9.6061,9.6379,9.6608,9.6863,9.6948,9.7259,9.7909,9.7609,9.7342,9.7172,9.6742,9.6502,9.6384,9.6258,9.5517,9.4353,9.5067,9.4659,9.3393,9.3631,9.2905,9.1521,9.1375,9.0767,8.9807,8.9343,8.8813,8.8283,8.7852,8.7521,8.7289,8.7289,8.7289,8.7289,8.7289,8.7289,8.7289,8.7289,8.7289,8.7289,8.7289,8.7289,8.7289,8.7289,8.7289,8.7289,8.7289,8.7289,8.7289,8.7289,8.6494,8.5633,8.5202,8.4308,8.3579,8.3579,8.3579,8.3579,8.3579,8.3579,8.3446,8.2983,8.2883,8.2883,8.2883,8.2883,8.2784,8.2519,8.2055,8.1393,8.0366,7.9869,7.9504,7.9185,7.808,7.7185,7.6622,7.5761,7.5132,7.4867,7.4453,7.4221,7.4221,7.4221,7.3807,7.3111,7.3111,7.2548,6.6142,6.7141,6.8259,6.9145,7.1382,7.3849,7.5416,7.7533,7.9783,8.1455,8.3038,8.405,8.365,8.5194,8.6843,8.8126,9.0577,9.2892,9.4447,9.6134,9.7235,9.7235,9.748,9.7391,9.6726,9.686,9.7043,9.7092,9.7363,9.7868,0.0,9.824,9.8085,9.8448,9.749,9.6831,9.6687,9.6084,9.5304,9.4385,9.5011,9.4617,9.3303,9.3168,9.2339,9.0889,9.061,8.9972,8.9012,8.8515,8.8184,8.7952,8.7455,8.7289,8.7289,8.7289,8.7289,8.7289,8.7289,8.7289,8.7289,8.7289,8.7289,8.7289,8.7289,8.7289,8.7289,8.7289,8.7289,8.7289,8.7289,8.7289,8.7289,8.7289,8.6527,8.5699,8.5202,8.4341,8.3711,8.3943,8.401,8.4076,8.4308,8.4142,8.3844,8.3314,8.3049,8.2883,8.2883,8.2883,8.2883,8.2883,8.2453,8.1856,8.1094,8.0366,7.9869,7.9583,7.8444,7.7649,7.7417,7.6457,7.5728,7.5297,7.4818,7.4453,7.4221,7.4221,7.3906,7.3442,7.3442,7.3045,6.6819,6.7707,6.8699,7.0129,7.259,7.5525,7.8522,7.9426,8.0618,8.3893,8.6136,8.6998,8.5671,8.7558,8.9297,8.9327,9.2126,9.4457,9.5046,9.668,9.7874,9.7783,9.8598,9.8656,9.7491,9.8347,9.8227,9.6641,9.8082,9.8821,0.0,9.8512,9.8594,9.8562,9.7582,9.6349,9.494,9.5209,9.4684,9.3267,9.3654,9.3226,9.2213,9.2562,9.1894,9.0502,9.0502,8.9674,8.8283,8.8283,8.7885,8.7289,8.7289,8.7289,8.7289,8.7289,8.7289,8.7289,8.7289,8.7289,8.7289,8.7289,8.7289,8.7289,8.7289,8.7289,8.7289,8.7289,8.7289,8.7289,8.7289,8.7289,8.7289,8.7289,8.6163,8.5103,8.5103,8.3943,8.3148,8.3877,8.401,8.4241,8.5003,8.4506,8.401,8.401,8.338,8.2916,8.2883,8.2883,8.2883,8.2883,8.2883,8.2585,8.1856,8.1128,8.0399,7.967,7.8941,7.8179,7.745,7.7417,7.6755,7.533,7.5297,7.4933,7.4255,7.4221,7.4221,7.4221,7.4221,7.3807,6.7358,6.8253,6.9449,7.1983,7.4294,7.7114,8.1606,8.3427,8.5219,8.8763,9.0471,9.0956,8.9954,9.0531,9.1661,9.3267,9.499,9.6487,9.7631,9.9241,9.9987,9.918,9.9874,9.9741,9.8323,9.8179,9.8021,9.7867,9.8221,0.0,0.0,9.9107,9.9121,9.8376,9.6992,9.6102,9.5673,9.4747,9.3819,9.2893,9.2427,9.2328,9.2562,9.2096,9.1132,8.9707,8.921,8.8449,8.7587,8.7587,8.7455,8.7289,8.7289,8.7289,8.7289,8.7289,8.7289,8.7289,8.7289,8.7289,8.7289,8.7289,8.7289,8.7289,8.7289,8.7289,8.7289,8.7289,8.7289,8.7289,8.7289,8.7289,8.7289,8.7289,8.6163,8.5103,8.5103,8.4341,8.391,8.4639,8.5169,8.56,8.5832,8.5666,8.5202,8.4175,8.3811,8.348,8.2983,8.2883,8.2883,8.2883,8.2883,8.2817,8.2585,8.1426,8.0598,8.0399,7.9206,7.8411,7.8212,7.7682,7.7219,7.6788,7.6258,7.5894,7.5662,7.5198,7.4933,7.4984,7.4453,7.4072,6.8118,6.9168,7.0671,7.3441,7.6017,7.9516,8.5621,8.819,8.9897,9.2428,9.3762,9.4273,9.3372,9.3613,9.4385,9.5688,9.6909,9.7965,9.8792,10.0125,10.0743,10.0002,10.1004,10.1013,9.92,9.9068,9.8612,9.7593,0.0,0.0,0.0,9.8395,9.8317,9.736,9.6167,9.5273,9.4676,9.3815,9.2854,9.1828,9.1364,9.1231,9.1364,9.0933,9.0072,8.8945,8.8217,8.7654,8.7289,8.7289,8.7289,8.7289,8.7289,8.7289,8.7289,8.7289,8.7289,8.7223,8.6925,8.7024,8.7223,8.6925,8.7024,8.7289,8.7289,8.7289,8.7289,8.7289,8.7289,8.7289,8.7289,8.7289,8.7289,8.7289,8.6163,8.5202,8.5467,8.4738,8.4308,8.5335,8.5865,8.6262,8.656,8.6362,8.5865,8.5003,8.4374,8.3745,8.2983,8.2883,8.2883,8.2883,8.2883,8.2883,8.2883,8.1823,8.0995,8.0697,7.9604,7.8842,7.8544,7.808,7.7715,7.7417,7.6987,7.6589,7.6324,7.5894,7.5695,7.5662,7.5231,7.5032,6.9093,7.0518,7.2452,7.4876,7.8361,8.3007,9.0217,9.319,9.4569,9.5155,9.6341,9.7059,9.625,9.6849,9.7415,9.7429,9.833,9.9024,9.9086,10.009,10.0681,10.0587,10.1954,10.2159,9.9973,10.0421,9.961,9.6635,0.0,0.0,0.0,9.6825,9.6631,9.5836,9.5008,9.3948,9.2589,9.2457,9.1728,9.0436,9.0337,8.9972,8.931,8.931,8.8912,8.8184,8.7554,8.7289,8.7289,8.7289,8.7289,8.7289,8.7289,8.7289,8.7256,8.719,8.719,8.7057,8.6328,8.6527,8.6958,8.6295,8.656,8.719,8.719,8.7223,8.7289,8.7289,8.7289,8.7289,8.7289,8.7289,8.7256,8.719,8.6163,8.5368,8.603,8.5136,8.4606,8.5931,8.6229,8.6494,8.7157,8.6726,8.6229,8.6097,8.4904,8.3745,8.2983,8.2883,8.2883,8.2883,8.2883,8.2883,8.2883,8.2221,8.1492,8.0829,8.0067,7.9339,7.8643,7.8544,7.8212,7.7517,7.7517,7.7185,7.6523,7.6424,7.6424,7.6424,7.6324,7.6324,7.0641,7.2768,7.549,7.8676,8.4487,9.0295,9.3573,9.6004,9.76,9.7587,9.8648,9.9578,9.9552,9.9251,9.9618,10.1047,10.108,10.1112,10.165,10.2512,10.251,10.1143,10.207,10.2205,10.0193,9.9435,9.8852,0.0,0.0,0.0,9.5701,9.6036,9.5637,9.4312,9.2987,9.2159,9.1828,9.0701,8.9972,0.0,8.9078,8.8714,8.8548,8.8548,8.815,8.7488,8.7322,8.7289,8.7289,8.7289,8.7289,8.7289,8.7289,8.7289,8.7223,8.6627,8.6395,8.6295,8.56,8.5434,8.5567,8.5401,8.5832,8.6395,8.6395,8.6825,8.7289,8.7289,8.7289,8.7289,8.7289,8.7289,8.7123,8.656,8.6163,8.5997,8.613,8.5931,8.5798,8.6155,8.666,8.709,8.7256,8.7157,8.666,8.55,8.4573,8.3745,8.2983,8.2883,8.2883,8.2883,8.2883,8.2883,8.2883,8.2221,8.1724,8.1558,8.0332,7.9571,7.9405,7.8842,7.8444,7.8279,7.8279,7.8212,7.8047,7.745,7.7185,7.7152,7.6589,7.6324,7.2335,7.4775,7.8216,8.3227,8.9047,9.4016,9.5786,9.8378,10.0272,10.0378,10.0638,10.0932,10.1349,10.1317,10.132,10.2077,10.1717,10.1268,10.1069,10.1671,10.1687,10.0686,10.1669,10.1701,9.9871,9.9374,9.8665,0.0,0.0,9.5867,9.498,9.4945,9.4279,9.2788,9.1993,9.1264,9.0536,8.9807,8.9244,8.8879,8.8482,8.815,8.7819,8.7819,8.762,8.7289,8.7289,8.7289,8.7289,8.7289,8.7289,8.7223,8.6892,8.6958,8.7157,8.6063,8.5865,8.603,8.4937,8.4805,8.5037,8.4705,8.507,8.5732,8.6063,8.6428,8.6825,8.719,8.7289,8.7289,8.7289,8.7289,8.719,8.6792,8.6163,8.5765,8.6097,8.5898,8.5865,8.656,8.7024,8.7157,8.6792,8.6461,8.5865,8.4738,8.4241,8.3745,8.2983,8.2883,8.2883,8.2883,8.2883,8.2883,8.2883,8.2552,8.2188,8.1823,8.0763,7.9968,7.9583,7.8908,7.8511,7.8511,7.8511,7.8511,7.8511,7.8113,7.7947,7.7947,7.755,7.7351,7.3855,7.6938,8.1443,8.7803,9.2534,9.5923,9.7327,9.9713,10.1845,10.2243,10.1827,10.1696,10.2607,10.2609,10.2364,10.1859,10.145,10.0983,9.9965,10.0164,10.0393,10.0198,10.0968,10.0906,9.9212,9.926,0.0,0.0,0.0,9.4881,9.399,9.3621,9.2722,9.1264,9.1099,9.0436,8.9244,8.9111,8.8747,8.815,8.8018,8.7654,8.709,8.6958,8.7057,8.7289,8.7289,8.7289,8.7289,8.7289,8.719,8.7024,8.6395,8.6461,8.6759,8.5401,8.5302,8.56,8.4275,8.4208,8.4639,8.401,8.4308,8.507,8.5765,8.6063,8.6328,8.7057,8.7289,8.7289,8.7289,8.7289,8.7256,8.7123,8.6163,8.55,8.6196,8.5898,8.5798,8.6892,8.6991,8.6726,8.6097,8.55,8.4871,8.4109,8.401,8.3745,8.2983,8.2883,8.2883,8.2883,8.2883,8.2883,8.2883,8.2883,8.2651,8.2022,8.1161,8.0432,7.9836,7.8974,7.8511,7.8511,7.8511,7.8511,7.8511,7.8511,7.8511,7.8511,7.8511,7.8511,7.4798,7.9983,8.6513,9.1761,9.4863,9.7059,9.8512,9.9164,9.9602,10.0427,10.1567,10.27,10.3608,10.2699,10.2044,10.2347,10.1799,10.1276,10.121,10.1498,10.1187,10.0042,10.0159,9.9975,9.8484,9.7756,0.0,0.0,9.5341,9.4082,9.2063,9.1927,9.1198,8.9741,8.9078,8.8647,8.8449,8.7852,8.7521,8.7422,8.6759,8.6395,8.6295,8.5699,8.6097,8.7289,8.7289,8.7289,8.7289,8.7289,8.6892,8.6328,8.6255,8.5865,8.5302,8.4473,8.4208,8.4175,8.3347,8.3115,8.3181,8.3082,8.3546,8.4275,8.5037,8.5666,8.6328,8.7057,8.7289,8.7289,8.7289,8.7289,8.7123,8.6461,8.6163,8.6229,8.6958,8.7057,8.6858,8.6395,8.5832,8.5368,8.5268,8.5169,8.4871,8.4109,8.401,8.3745,8.2983,8.2883,8.2883,8.2883,8.2883,8.2883,8.2883,8.2883,8.285,8.2751,8.1459,8.0664,8.0564,7.9239,7.8511,7.8511,7.8511,7.8511,7.8511,7.8511,7.8511,7.8511,7.8511,7.8511,7.716,8.1327,8.6193,9.078,9.3919,9.6353,9.86,9.9459,10.0036,10.1007,10.1098,10.1417,10.2274,10.1773,10.1099,10.0739,10.0192,9.9672,9.9035,9.9249,9.9296,9.8637,9.8912,9.8718,9.7691,0.0,0.0,0.0,9.3914,9.2623,9.1629,9.0801,8.9873,8.8846,8.8482,8.8117,8.772,8.7422,8.7057,8.666,8.5931,8.5567,8.5567,8.5268,8.5467,8.6063,8.6063,8.6063,8.6063,8.6063,8.5865,8.5533,8.5103,8.5003,8.497,8.3811,8.3645,8.391,8.3148,8.2883,8.2883,8.2883,8.3115,8.3612,8.4771,8.5335,8.5798,8.6958,8.7289,8.7289,8.7289,8.7289,8.719,8.6858,8.6792,8.6892,8.7223,8.6958,8.656,8.6229,8.5268,8.4473,8.4473,8.4142,8.3778,8.3446,8.338,8.3281,8.295,8.2883,8.2883,8.2883,8.2883,8.2883,8.2883,8.2883,8.2883,8.2883,8.1525,8.0697,8.0697,7.9272,7.8511,7.8511,7.8511,7.8511,7.8511,7.8511,7.8511,7.8511,7.8511,7.8511,7.8847,8.1714,8.4767,8.8903,9.2056,9.4876,9.7666,9.8707,9.9498,10.0643,9.9988,9.9523,10.0399,10.0313,9.9856,9.9052,9.8733,9.831,9.7409,9.7548,9.7685,9.752,9.7591,9.7327,9.6631,0.0,0.0,0.0,9.2523,9.1331,9.0767,8.9741,8.8813,8.8084,8.8051,8.772,8.6991,8.6825,8.6428,8.5898,8.5169,8.4838,8.4805,8.4639,8.454,8.4573,8.4937,8.5103,8.5103,8.5103,8.5003,8.4771,8.4208,8.4241,8.4407,8.3314,8.3248,8.3645,8.3082,8.2883,8.2883,8.2883,8.2883,8.3181,8.4672,8.5103,8.5401,8.6858,8.7289,8.7289,8.7289,8.7289,8.7289,8.7289,8.7289,8.7289,8.7289,8.6693,8.613,8.5931,8.4871,8.3943,8.3745,8.3248,8.2883,8.2883,8.2883,8.2883,8.2883,8.2883,8.2883,8.2883,8.2883,8.2883,8.2883,8.2883,8.2817,8.2618,8.1591,8.0896,8.0697,7.9637,7.9074,7.9074,7.9074,7.8875,7.8511,7.8511,7.8511,7.8511,7.8511,7.8511,7.8821,8.1271,8.382,8.7494,9.0358,9.284,9.5079,9.5863,9.645,9.7614,9.778,9.7815,9.8319,9.8353,9.832,9.8287,9.8254,9.8221,9.8188,9.8188,9.7923,9.7194,9.6565,9.5836,9.5074,0.0,0.0,0.0,9.1662,9.0668,8.8581,8.8415,8.8051,8.7355,8.7322,8.6991,8.6229,8.5567,8.5202,8.5169,8.4407,8.4076,8.4043,8.3347,8.3016,8.3082,8.4506,8.5103,8.5103,8.5103,8.4705,8.4043,8.401,8.3612,8.3016,8.2916,8.2916,8.295,8.2916,8.2883,8.2883,8.2883,8.2883,8.3181,8.4672,8.5103,8.5401,8.6858,8.7289,8.7289,8.7289,8.7289,8.7289,8.7289,8.7289,8.7289,8.7289,8.6693,8.5964,8.5302,8.454,8.3778,8.3082,8.2916,8.2883,8.2883,8.2883,8.2883,8.2883,8.2883,8.2883,8.2883,8.2883,8.2883,8.2883,8.2883,8.2585,8.1889,8.179,8.1426,8.073,8.0631,8.0564,8.0564,8.0564,7.9902,7.8511,7.8511,7.8511,7.8511,7.8511,7.8511,7.6954,7.8776,8.0962,8.4639,8.7269,8.9722,9.2367,9.3758,9.4848,9.5705,9.6234,9.6499,9.6167,9.6465,9.6797,9.6797,9.5968,9.5372,9.5372,9.5372,9.5273,9.5008,9.4743,9.4312,0.0,0.0,0.0,0.0,0.0,8.9144,8.8349,8.7885,8.7322,8.6593,8.656,8.6229,8.55,8.4771,8.4407,8.4407,8.3645,8.3281,8.3281,8.3016,8.2883,8.2916,8.348,8.3678,8.3678,8.3678,8.3546,8.3281,8.3281,8.3148,8.2883,8.2883,8.2883,8.2883,8.2883,8.2883,8.2883,8.2883,8.2883,8.3181,8.4672,8.5103,8.5401,8.6858,8.7289,8.7289,8.7289,8.7289,8.7289,8.7289,8.7289,8.7289,8.7289,8.6693,8.5964,8.5235,8.4506,8.3778,8.3016,8.3281,8.3612,8.3612,8.401,8.4142,8.3678,8.3612,8.3413,8.295,8.2883,8.2883,8.2883,8.2883,8.2784,8.2519,8.1624,8.1194,8.1393,8.0498,8.0233,8.0664,8.0697,8.0432,7.9902,7.9902,7.9902,7.9902,7.9902,7.9902,7.5628,7.702,7.8842,8.179,8.4374,8.6792,8.921,9.1099,9.2523,9.3285,9.4213,9.4743,9.4246,9.4345,9.4676,9.5173,9.4445,9.3716,9.3451,9.3418,9.3318,9.3086,9.2854,9.249,0.0,0.0,0.0,0.0,0.0,0.0,8.762,8.7157,8.656,8.5832,8.5567,8.5235,8.4738,8.401,8.3645,8.3612,8.3148,8.2883,8.2883,8.2883,8.2883,8.2883,8.2883,8.2883,8.2883,8.2883,8.2883,8.2883,8.2883,8.2883,8.2883,8.2883,8.2883,8.2883,8.2883,8.2883,8.2883,8.2883,8.2883,8.3181,8.4672,8.5103,8.5401,8.6858,8.7289,8.7289,8.7289,8.7289,8.7289,8.7289,8.7289,8.7289,8.7289,8.6892,8.6262,8.5302,8.4705,8.4142,8.3413,8.3678,8.4076,8.4341,8.4805,8.4838,8.4109,8.401,8.3711,8.2983,8.2883,8.2883,8.2883,8.2883,8.2784,8.2552,8.1823,8.1558,8.179,8.1094,8.0962,8.1426,8.1426,8.1426,8.1426,8.0929,8.0697,8.0697,8.0697,8.0697,0.0,0.0,0.0,7.9206,8.1757,8.4275,8.5699,8.772,8.9475,9.0204,9.1529,9.2523,9.2556,9.1993,9.1993,9.3418,9.3649,9.3418,9.2689,9.2589,9.2324,9.1596,9.09,0.0,0.0,0.0,0.0,0.0,8.825,8.762,8.6229,8.613,8.5798,8.5103,8.4341,8.3976,8.3976,8.3248,8.2883,8.2883,8.2883,8.2883,8.2883,8.2883,8.2883,8.2883,8.2883,8.2883,8.2883,8.2883,8.2883,8.2883,8.2883,8.2883,8.2883,8.2883,8.2883,8.2883,8.2883,8.2883,8.2883,8.2883,8.2883,8.3181,8.4672,8.5103,8.5401,8.6858,8.7289,8.7289,8.7289,8.7289,8.7289,8.7289,8.7289,8.7289,8.7289,8.7289,8.6858,8.5401,8.5136,8.4904,8.4142,8.4043,8.4308,8.5037,8.5169,8.4904,8.4142,8.4043,8.3745,8.2983,8.2883,8.2883,8.2883,8.2883,8.2585,8.1889,8.2486,8.2552,8.1856,8.2486,8.2883,8.2883,8.2883,8.2883,8.2883,8.1459,8.0763,8.0763,8.0763,8.0763,7.5231,0.0,0.0,0.0,0.0,0.0,8.2684,8.4308,8.5699,8.6461,8.7753,8.8912,8.9442,8.9807,9.0138,9.0569,9.0635,9.0569,9.0337,9.0304,9.0237,9.0039,8.984,0.0,0.0,0.0,0.0,0.0,8.6759,8.6362,8.5467,8.4904,8.4506,8.4308,8.3579,8.3215,8.3215,8.2983,8.2883,8.2883,8.2883,8.2883,8.2883,8.2883,8.2883,8.2883,8.2883,8.2883,8.2883,8.2883,8.2883,8.2883,8.2883,8.2883,8.2883,8.2883,8.2883,8.2883,8.2883,8.2883,8.2883,8.2883,8.2883,8.3181,8.4672,8.5103,8.5401,8.6858,8.7289,8.7289,8.7289,8.7289,8.7289,8.7289,8.7289,8.7289,8.7289,8.7289,8.6858,8.5401,8.5533,8.5467,8.4208,8.4871,8.5633,8.5832,8.6328,8.6229,8.497,8.4805,8.4308,8.3049,8.2883,8.2883,8.2883,8.2883,8.2817,8.2618,8.2287,8.2254,8.2585,8.2287,8.2353,8.2883,8.2883,8.2883,8.2883,8.2486,8.2287,8.2287,8.2287,8.2287,7.49,7.5083,7.5662,7.7219,0.0,0.0,8.0631,8.179,8.2751,8.3181,8.4672,8.5931,8.603,8.6925,8.762,8.762,8.7355,8.7587,8.878,8.8945,8.8846,8.8548,0.0,0.0,0.0,8.7157,8.6627,8.5798,8.5732,8.5401,8.4672,8.3943,8.3546,8.3546,8.3115,8.2883,8.2883,8.2883,8.2883,8.2883,8.2883,8.2883,8.2883,8.2883,8.2883,8.2883,8.2883,8.2883,8.2883,8.2883,8.2883,8.2883,8.2883,8.2883,8.2883,8.2883,8.2883,8.2883,8.2883,8.2883,8.2883,8.2883,8.3115,8.3579,8.4771,8.5302,8.5798,8.6958,8.7289,8.7289,8.7289,8.7289,8.7289,8.7289,8.7289,8.7289,8.7289,8.7289,8.6925,8.5798,8.5898,8.5898,8.507,8.56,8.6262,8.6593,8.6991,8.6759,8.5302,8.5368,8.497,8.3513,8.3645,8.3811,8.3811,8.3811,8.3678,8.338,8.295,8.2784,8.2883,8.2486,8.2453,8.2883,8.2883,8.2883,8.2883,8.2883,8.2883,8.2883,8.2883,8.2883,7.4602,7.49,7.5562,7.6258,7.7417,0.0,7.9285,8.0001,8.0465,8.0564,8.2154,8.338,8.2883,8.3844,8.4771,8.4838,8.4308,8.4838,8.7587,8.7952,8.772,8.7123,0.0,0.0,8.6063,8.5467,8.507,8.5003,8.4904,8.4573,8.391,8.3248,8.2883,8.2883,8.2883,8.2883,8.2883,8.2883,8.2883,8.2883,8.2883,8.2883,8.2883,8.2883,8.2883,8.2883,8.2883,8.2883,8.2883,8.2883,8.2883,8.2883,8.2883,8.2883,8.2883,8.2883,8.2883,8.2883,8.2883,8.2883,8.2883,8.2883,8.3413,8.4142,8.4904,8.56,8.6328,8.7057,8.7289,8.7289,8.7289,8.7289,8.7289,8.7289,8.7289,8.7289,8.7289,8.7289,8.709,8.6428,8.6295,8.6321,8.6196,8.6288,8.6527,8.719,8.7289,8.6792,8.5401,8.5765,8.5666,8.4275,8.4705,8.5103,8.5103,8.5103,8.4838,8.4175,8.4043,8.3711,8.3049,8.295,8.2883,8.2883,8.2883,8.2883,8.2883,8.2883,8.2883,8.2883,8.2883,8.2883,7.6092,7.5993,7.6291,7.702,7.7417,0.0,7.8577,7.8842,7.9107,7.9703,8.0167,8.0796,8.1823,8.2254,8.2651,8.3215,8.3215,8.3745,8.55,8.5732,8.5699,8.5533,0.0,0.0,8.5302,8.5202,8.4871,8.4275,8.3678,8.3281,8.3115,8.2983,8.2883,8.2883,8.2883,8.2883,8.2883,8.2883,8.2883,8.2883,8.2883,8.2883,8.2883,8.2883,8.2883,8.2883,8.2883,8.2883,8.2883,8.2883,8.2883,8.2883,8.2883,8.2883,8.2883,8.2883,8.2883,8.2883,8.2883,8.2883,8.2883,8.2883,8.3413,8.4142,8.4904,8.56,8.6328,8.7057,8.7289,8.7289,8.7289,8.7289,8.7289,8.7289,8.7289,8.7289,8.7289,8.7289,8.7223,8.709,8.7057,8.6858,8.6262,8.666,8.709,8.7256,8.7289,8.6958,8.6063,8.6097,8.5832,8.5003,8.5037,8.5103,8.5103,8.5103,8.5037,8.4904,8.4341,8.3943,8.3811,8.3215,8.2883,8.2883,8.2883,8.2883,8.2883,8.2883,8.2883,8.2883,8.2883,8.2883,7.6622,7.6324,0.0,7.7219,0.0,0.0,0.0,7.8246,7.808,7.8444,7.8809,7.9173,7.9537,8.0233,8.0829,8.1194,8.0962,8.1227,8.2718,8.3546,8.401,8.401,0.0,0.0,8.3446,8.3115,8.2751,8.2386,8.2353,8.2353,8.2353,8.2684,8.2883,8.2883,8.2883,8.2883,8.2883,8.2883,8.2883,8.2883,8.2883,8.2883,8.2883,8.2883,8.2883,8.2883,8.2883,8.2883,8.2883,8.2883,8.2883,8.2883,8.2883,8.2883,8.2883,8.2883,8.2883,8.2883,8.2883,8.2883,8.2883,8.2883,8.3645,8.4639,8.5003,8.5865,8.6792,8.719,8.7289,8.7289,8.7289,8.7289,8.7289,8.7289,8.7289,8.7289,8.7289,8.7289,8.7289,8.7289,8.7289,8.7157,8.6792,8.7024,8.7289,8.7289,8.7289,8.6991,8.6262,8.6494,8.6461,8.5732,8.5964,8.6196,8.6196,8.6196,8.603,8.5666,8.5302,8.4771,8.4043,8.3645,8.3281,8.2916,8.2883,8.2883,8.2883,8.2883,8.2883,8.2883,8.2883,8.2883,0.0,0.0,0.0,0.0,0.0,7.7782,0.0,0.0,0.0,7.7616,7.8113,7.8345,7.7749,0.0,0.0,0.0,0.0,0.0,0.0,8.1293,0.0,8.2254,0.0,0.0,8.1393,8.0962,8.0763,8.0896,8.1326,8.1691,8.1989,8.2453,8.2751,8.2883,8.2883,8.2883,8.2883,8.2883,8.2883,8.2883,8.2883,8.2883,8.2883,8.2883,8.2883,8.2883,8.2883,8.2883,8.2883,8.2883,8.2883,8.2883,8.2883,8.2883,8.2883,8.2883,8.2883,8.2883,8.2883,8.2883,8.2883,8.2883,8.391,8.5169,8.5434,8.6362,8.7289,8.7289,8.7289,8.7289,8.7289,8.7289,8.7289,8.7289,8.7289,8.7289,8.7289,8.7289,8.7289,8.7289,8.7289,8.7289,8.7289,8.7289,8.7289,8.7289,8.7289,8.7057,8.6461,8.6892,8.7057,8.6461,8.6925,8.7289,8.7289,8.7289,8.7024,8.6428,8.6262,8.5633,8.4473,8.4142,8.3711,8.3115,8.3115,8.3181,8.3314,8.3181,8.3049,8.2883,8.2883,8.2883,0.0,0.0,0.0,0.0,7.8411,0.0,0.0,0.0,7.8411,7.8411,0.0,0.0,0.0,0.0,0.0,0.0,0.0,0.0,7.8742,7.8908,7.9272,7.9935,0.0,0.0,0.0,8.0366,8.0962,8.1624,8.1128,8.1393,8.2718,8.2221,8.2221,8.2883,8.2883,8.2883,8.2883,8.2883,8.2883,8.2883,8.2883,8.2883,8.2883,8.2883,8.2883,8.2883,8.2883,8.2883,8.2883,8.2883,8.2883,8.2883,8.2883,8.2883,8.2883,8.2883,8.2883,8.2883,8.2883,8.2883,8.2883,8.2883,8.391,8.5335,8.6627,8.7157,8.7289,8.7289,8.7289,8.7289,8.7289,8.7289,8.7289,8.7289,8.7289,8.7289,8.7289,8.7289,8.7289,8.7289,8.7289,8.7289,8.7289,8.7289,8.7289,8.7289,8.7289,8.7256,8.7157,8.7223,8.7256,8.7157,8.7223,8.7289,8.7289,8.7289,8.7223,8.7157,8.6527,8.6097,8.5931,8.4672,8.3976,8.3877,8.3877,8.4208,8.4871,8.4208,8.3546,8.2883,8.2883,8.2883,0.0,0.0,0.0,0.0,0.0,0.0,7.861,0.0,7.8511,0.0,0.0,0.0,0.0,0.0,0.0,0.0,7.7782,0.0,0.0,0.0,7.7219,0.0,0.0,0.0,0.0,0.0,0.0,0.0,8.0001,8.0332,8.0962,8.1492,8.1923,8.2254,8.2684,8.2883,8.2883,8.2883,8.2883,8.2883,8.2883,8.2883,8.2883,8.2883,8.2883,8.2883,8.2883,8.2883,8.2883,8.2883,8.2883,8.2883,8.2883,8.2883,8.2883,8.2883,8.2883,8.2883,8.2883,8.2883,8.2983,8.3413,8.4241,8.5302,8.6328,8.6925,8.7289,8.7289,8.7289,8.7289,8.7289,8.7289,8.7289,8.7289,8.7289,8.7289,8.7289,8.7289,8.7289,8.7289,8.7289,8.7289,8.7289,8.7289,8.7289,8.7289,8.7289,8.7289,8.7289,8.7289,8.7289,8.7289,8.7289,8.7289,8.7289,8.7289,8.7289,8.7289,8.6593,8.6163,8.6163,8.5169,8.4639,8.4639,8.4639,8.4805,8.5103,8.4374,8.3844,8.3546,8.3115,8.2883,8.3281,0.0,0.0,0.0,0.0,0.0,0.0,0.0,0.0,0.0,0.0,0.0,0.0,0.0,7.8444,7.8246,0.0,7.6722,0.0,7.6225,0.0,0.0,0.0,0.0,0.0,0.0,0.0,0.0,0.0,7.9272,7.9869,8.0531,8.1061,8.1492,8.2221,8.2585,8.2585,8.2784,8.2883,8.2883,8.2883,8.2883,8.2883,8.2883,8.2883,8.2883,8.2883,8.2883,8.2883,8.2883,8.2883,8.2883,8.2883,8.2883,8.2883,8.2883,8.2883,8.2883,8.2883,8.2883,8.3016,8.3778,8.4374,8.497,8.5898,8.656,8.7024,8.7223,8.7289,8.7289,8.7289,8.7289,8.7289,8.7289,8.7289,8.7289,8.7289,8.7289,8.7289,8.7289,8.7289,8.7289,8.7289,8.7289,8.7289,8.7289,8.7289,8.7289,8.7289,8.7289,8.7289,8.7289,8.7289,8.7289,8.7289,8.7289,8.7289,8.7289,8.6759,8.6395,8.6196,8.5666,8.5401,8.5401,8.5401,8.55,8.5699,8.497,8.4506,8.4275,8.3347,8.2883,0.0,0.0,0.0,8.2784,0.0,0.0,0.0,0.0,7.9318,0.0,0.0,0.0,0.0,0.0,7.8279,7.7583,7.7417,0.0,0.0,0.0,0.0,0.0,0.0,0.0,0.0,0.0,0.0,0.0,0.0,0.0,8.0531,7.9372,7.9272,8.0697,8.1459,8.1823,8.1823,8.2552,8.2883,8.2883,8.2883,8.2883,8.2883,8.2883,8.2883,8.2883,8.2883,8.2883,8.2883,8.2883,8.2883,8.2883,8.2883,8.2883,8.2883,8.2883,8.2883,8.2883,8.2883,8.2883,8.3016,8.3778,8.401,8.4308,8.5732,8.6255,8.6362,8.709,8.7289,8.7289,8.7289,8.7289,8.7289,8.7289,8.7289,8.7289,8.7289,8.7289,8.7289,8.7289,8.7289,8.7289,8.7289,8.7289,8.7289,8.7289,8.7289,8.7289,8.7289,8.7289,8.7289,8.7289,8.7289,8.7289,8.7289,8.7289,8.7289,8.7289,8.7256,8.6925,8.6196,8.6163,8.613,8.613,8.613,8.6494,8.7223,8.6461,8.5732,8.5037,8.3579,8.2883,0.0,0.0,8.497,8.4473,0.0,0.0,0.0,0.0,0.0,0.0,0.0,0.0,0.0,0.0,7.8842,7.7616,7.702,7.6424,0.0,0.0,0.0,0.0,0.0,0.0,0.0,0.0,0.0,0.0,7.7285,0.0,0.0,7.8709,7.9239,7.9239,8.0896,8.179,8.179,8.2519,8.2883,8.2883,8.2883,8.2883,8.2883,8.2883,8.2883,8.2883,8.2883,8.2883,8.2883,8.2883,8.2883,8.2883,8.2883,8.2883,8.2883,8.2883,8.2883,8.2883,8.2883,8.2883,8.295,8.3181,8.3943,8.4838,8.5302,8.613,8.6958,8.7223,8.7289,8.7289,8.7289,8.7289,8.7289,8.7289,8.7289,8.7289,8.7289,8.7289,8.7289,8.7289,8.7289,8.7289,8.7289,8.7289,8.7289,8.7289,8.7289,8.7289,8.7289,8.7289,8.7289,8.7289,8.7289,8.7289,8.7289,8.7289,8.7289,8.7289,8.7289,8.7157,8.6925,8.6892,8.6892,8.6892,8.6892,8.7024,8.7289,8.6527,8.603,8.5798,8.4805,8.3844,9.0436,8.9012,0.0,8.7157,8.5732,0.0,8.3215,0.0,0.0,0.0,0.0,0.0,0.0,0.0,7.9041,7.7318,7.6622,7.596,0.0,7.452,0.0,0.0,0.0,0.0,0.0,0.0,0.0,7.5927,7.639,7.6556,0.0,0.0,7.8345,7.8146,8.0266,8.1393,8.1393,8.2386,8.2883,8.2883,8.2883,8.2883,8.2883,8.2883,8.2883,8.2883,8.2883,8.2883,8.2883,8.2883,8.2883,8.2883,8.2883,8.2883,8.2883,8.2883,8.2883,8.2883,8.2883,8.3082,8.3281,8.3281,8.4109,8.5169,8.5401,8.613,8.6925,8.719,8.7289,8.7289,8.7289,8.7289,8.7289,8.7289,8.7289,8.7289,8.7289,8.7289,8.7289,8.7289,8.7289,8.7289,8.7289,8.7289,8.7289,8.7289,8.7289,8.7289,8.7289,8.7289,8.7289,8.7289,8.7289,8.7289,8.7289,8.7289,8.7289,8.7289,8.7289,8.7289,8.7289,8.7521,8.7521,8.7289,8.7521,8.7521,8.7289,8.6527,8.6163,8.6163,8.5434,8.4606]}]]